GFSMA_925_thetae_000.txt.gz
Theta_e
319 319 318 318 318 319 318 316 313 306 304 303 304 304 304 304 305 307 307 307 308 311 316 319 320 324 326 326 328 327 326 326 327 327 329 327 326 326 325 325 324 324 325
318 319 320 319 319 320 318 312 306 304 303 303 304 304 304 304 304 304 303 303 304 304 305 309 317 321 324 325 324 325 327 327 326 327 329 329 328 327 325 326 325 324 325
314 315 317 318 318 320 316 310 307 303 304 304 304 304 303 303 303 303 303 303 303 304 307 308 307 309 315 321 324 323 324 324 325 328 327 327 329 328 325 325 326 324 324
312 311 311 311 311 315 313 308 307 303 304 304 303 303 302 302 303 302 303 302 303 304 304 305 306 313 312 314 319 320 324 323 324 323 323 327 328 327 327 325 326 326 324
311 311 311 310 308 309 309 307 304 303 304 304 303 303 302 302 302 302 301 303 302 302 304 304 305 306 306 307 310 316 318 323 323 323 323 324 322 329 327 326 324 326 325
310 311 311 311 308 308 308 307 304 304 304 304 303 303 302 301 301 302 301 299 299 302 300 305 305 306 306 306 306 309 316 319 322 324 324 323 324 323 324 327 326 324 324
308 309 311 311 310 308 307 307 305 305 304 304 303 303 302 301 302 300 300 300 299 299 303 303 301 303 303 304 305 309 316 315 314 317 322 322 323 323 324 321 327 325 324
308 308 307 308 310 308 307 307 306 305 304 304 303 300 298 300 301 301 299 300 298 302 301 298 299 298 297 298 303 303 303 309 311 310 312 312 316 319 320 322 321 326 325
309 307 307 307 308 310 307 306 307 305 304 304 303 301 298 298 297 298 300 297 299 296 297 295 295 294 295 298 298 300 301 302 309 308 307 309 308 315 318 319 322 322 323
307 307 306 305 307 310 308 306 306 306 304 303 301 301 299 298 294 294 295 297 294 295 293 294 293 293 298 298 299 299 302 303 303 308 308 306 309 310 315 318 319 322 323
304 305 306 305 304 305 306 305 305 304 303 301 296 297 295 296 295 294 293 293 293 293 294 293 294 294 292 293 297 299 300 301 300 301 308 306 304 307 309 311 316 318 320
303 303 304 304 302 302 302 301 299 296 296 297 297 296 295 293 292 293 292 292 293 294 293 294 294 294 294 296 296 296 300 302 305 305 306 303 304 304 307 308 314 311 319
302 302 301 300 298 297 297 297 297 297 297 297 296 297 295 295 294 293 292 293 292 293 293 294 294 294 293 296 298 297 297 298 300 303 301 300 302 303 304 305 306 305 307
299 298 298 297 296 297 298 298 298 297 297 296 295 292 292 291 292 292 293 292 292 292 292 293 293 293 293 292 293 294 295 297 297 299 299 302 300 302 301 301 301 302 304
297 297 297 298 298 298 298 299 298 295 292 292 292 292 291 292 292 291 291 292 293 292 292 291 292 292 293 293 294 296 294 293 295 297 299 302 299 297 297 297 298 299 299
297 297 297 295 294 294 294 294 292 291 292 292 292 292 292 290 289 289 289 289 290 292 292 291 291 291 292 292 292 292 292 293 294 295 296 297 297 297 296 297 298 296 296
294 293 293 293 293 292 292 293 293 292 291 291 290 289 289 288 288 288 288 289 289 290 291 290 291 291 291 291 291 291 291 292 292 293 293 294 294 294 295 296 298 295 295
292 292 292 292 292 291 291 292 290 289 288 288 288 288 288 288 288 288 288 288 289 289 289 289 290 291 292 292 292 293 292 291 291 291 291 291 292 293 293 294 296 298 296
293 292 292 292 292 291 291 290 288 287 287 287 287 287 287 286 286 286 286 286 286 287 287 288 288 288 288 289 288 289 290 290 292 291 291 290 290 290 291 293 293 295 297
294 293 293 292 291 289 288 287 287 287 287 286 286 285 284 284 284 283 283 284 284 285 285 285 286 286 287 287 287 288 288 288 288 288 289 289 288 289 289 290 292 295 297
293 293 293 292 288 287 287 286 286 286 285 285 284 284 283 283 283 284 284 284 284 284 285 285 285 285 285 285 286 286 286 287 287 288 288 288 288 290 290 291 293 295 298
293 292 290 287 286 286 286 286 285 284 284 283 283 282 282 282 282 282 283 283 284 284 284 284 284 284 284 284 284 284 284 285 286 286 287 288 289 289 289 291 294 295 296
287 286 286 285 285 285 285 284 284 283 282 282 281 281 281 281 282 282 282 282 282 283 283 284 284 284 284 284 284 284 284 284 285 285 286 288 289 289 290 291 291 294 295
285 284 284 285 284 283 282 282 282 281 281 281 281 281 281 281 281 281 282 282 282 282 282 283 283 283 284 284 284 284 284 284 285 285 285 287 287 288 288 288 288 290 292
284 284 284 282 281 281 281 280 281 281 280 280 280 280 280 281 281 282 282 282 282 282 283 283 283 284 283 283 283 283 283 284 284 284 285 285 285 286 287 287 287 287 291
283 282 282 281 281 280 279 280 280 280 280 281 280 280 280 281 282 282 283 283 283 283 283 283 283 283 284 284 284 284 284 285 284 284 285 285 285 286 286 287 287 287 288

GFSMA_925_thetae_003.txt.gz
Theta_e
322 319 317 318 318 319 319 319 314 306 302 302 303 304 304 304 304 308 308 304 304 305 308 314 317 320 325 325 325 326 327 326 327 326 327 327 327 326 325 324 323 323 325
320 317 314 314 315 317 319 319 312 305 303 303 304 304 304 304 303 304 305 305 304 305 306 307 308 314 320 322 324 324 324 325 327 326 326 326 327 327 326 326 325 324 323
314 314 313 312 312 314 317 319 312 307 303 304 304 303 303 302 303 303 303 303 305 305 305 306 307 312 318 319 321 322 324 324 324 324 326 327 327 329 327 327 326 325 324
312 311 311 310 310 311 313 316 312 307 303 304 305 304 303 302 302 302 303 303 304 305 305 304 306 307 308 309 315 317 320 322 323 324 323 323 323 327 327 328 327 325 325
310 310 310 309 309 311 311 311 310 307 305 305 305 304 303 302 302 301 301 302 301 302 303 302 304 306 307 307 307 312 316 318 320 321 323 323 322 322 323 326 327 327 325
309 310 310 309 310 311 310 309 309 307 305 305 304 304 305 303 301 301 302 300 302 300 302 305 306 306 306 306 305 306 312 317 318 316 320 322 324 323 322 323 322 328 327
307 307 308 308 309 311 311 310 308 307 306 304 305 305 305 303 302 303 303 302 302 301 301 302 302 301 302 299 299 303 306 308 313 315 315 314 320 322 322 322 324 323 327
307 307 307 307 307 309 310 310 309 308 306 306 305 306 307 306 303 303 303 303 302 302 301 298 298 298 298 299 298 298 303 303 303 309 311 308 306 308 312 318 320 320 321
303 304 304 304 305 307 308 308 309 308 308 306 304 306 308 307 306 304 302 301 303 301 299 297 297 296 296 299 300 301 301 302 304 304 312 309 307 305 307 315 318 319 320
302 303 303 303 303 306 307 307 308 308 308 308 305 303 304 303 306 306 301 300 300 298 297 298 296 296 296 295 295 298 300 300 302 302 302 309 309 308 311 314 317 318 319
301 302 302 302 302 302 303 305 306 306 306 306 306 304 301 299 298 300 302 301 297 296 297 297 296 297 295 295 298 299 297 301 305 301 300 308 308 307 307 311 310 314 317
300 301 301 301 301 300 300 300 299 300 300 300 299 299 300 298 298 297 298 298 298 298 296 295 295 296 296 296 295 297 299 298 300 305 305 306 305 302 305 309 309 310 314
300 299 299 298 298 297 298 298 298 298 298 298 298 297 297 297 296 295 295 297 298 297 296 295 295 295 295 295 296 294 295 296 298 299 300 301 301 304 304 303 303 306 306
298 297 297 296 297 298 298 299 299 298 297 295 294 293 293 293 292 292 293 295 296 296 295 295 294 294 294 294 294 293 297 297 296 297 299 301 303 302 303 300 299 300 304
297 297 297 297 296 295 295 295 294 293 293 292 292 292 292 293 293 293 293 293 293 295 296 295 293 293 293 293 293 293 296 295 293 295 297 298 301 298 298 297 298 297 298
297 295 293 292 293 293 293 293 293 293 293 293 293 293 293 293 293 292 292 292 292 292 293 291 291 291 292 291 291 292 292 293 293 294 295 296 297 296 295 296 296 299 296
293 293 293 293 293 293 292 291 291 291 291 291 291 291 291 290 290 290 290 290 290 290 291 290 290 291 291 291 291 291 292 291 292 294 292 291 291 292 295 295 295 297 298
292 293 293 293 293 292 293 292 290 289 289 289 288 288 288 288 288 289 289 289 289 289 290 290 290 290 290 290 291 292 292 292 293 293 292 291 291 291 291 292 294 295 297
294 294 294 293 293 291 289 288 287 287 287 287 287 287 287 287 287 287 287 287 287 287 287 288 288 288 289 289 289 289 290 290 290 291 291 291 292 291 290 290 291 294 295
293 292 293 293 292 290 288 286 286 286 286 285 285 285 285 284 284 285 285 285 285 285 286 286 286 287 287 287 288 288 289 289 289 289 289 289 289 289 291 289 289 290 293
293 292 292 290 287 286 286 286 286 285 285 285 285 284 284 283 283 283 284 284 285 285 286 286 286 286 287 287 287 287 288 288 288 288 288 289 289 290 290 291 291 291 291
287 286 286 285 285 285 285 286 285 286 285 284 284 283 283 282 282 282 283 283 283 284 285 285 285 286 286 286 286 286 286 287 288 287 287 288 288 289 289 290 291 290 291
285 285 285 284 285 285 284 283 283 283 283 283 282 282 282 282 282 282 283 282 282 282 283 283 284 285 285 285 285 285 285 286 286 286 287 287 288 289 290 290 290 291 292
284 284 284 284 283 282 281 281 281 281 282 281 281 281 281 282 282 282 282 282 283 283 283 283 283 284 284 284 284 285 285 285 285 286 286 287 287 288 289 290 290 289 289
283 283 282 282 282 281 280 280 280 281 281 281 281 281 281 282 282 282 282 283 283 283 283 283 283 283 283 283 283 284 285 285 285 285 285 285 286 286 287 287 287 286 286
283 282 281 281 280 280 279 279 280 280 280 281 281 281 281 281 282 282 282 283 283 283 283 285 285 284 284 285 284 284 284 285 285 285 285 285 286 286 287 288 288 288 287

GFSMA_925_thetae_006.txt.gz
Theta_e
325 323 321 319 319 319 319 320 319 316 311 310 310 311 310 311 312 311 311 305 304 305 306 308 312 318 321 323 325 325 326 327 327 327 327 327 328 328 327 326 325 323 322
322 320 318 317 316 316 317 318 317 314 311 310 309 310 309 309 310 310 309 309 304 304 305 306 307 311 319 322 322 323 324 324 325 327 327 327 327 327 327 327 326 324 323
318 318 316 316 316 316 317 318 318 315 312 310 309 309 309 309 308 308 308 308 308 305 304 305 306 309 311 314 317 320 322 323 324 324 325 326 326 326 327 327 326 325 324
319 318 317 316 316 316 316 316 316 314 313 310 309 309 308 308 308 308 307 307 307 307 307 304 304 306 307 308 311 314 316 318 320 323 324 323 324 325 327 326 328 326 326
316 316 315 315 316 316 315 315 315 314 313 311 309 309 309 308 307 307 307 307 307 306 306 306 301 303 305 306 306 307 312 317 317 320 320 322 322 323 323 325 328 327 327
312 313 314 315 316 316 315 314 314 314 312 311 310 309 308 309 308 307 307 306 306 307 307 307 307 307 303 302 303 304 308 311 313 319 317 318 322 322 322 322 322 325 327
311 311 311 311 312 313 313 314 314 314 314 312 311 310 309 309 309 308 307 307 306 306 307 307 305 304 304 302 300 299 302 308 309 311 314 315 313 320 323 324 322 322 322
307 307 308 308 309 309 310 311 313 313 314 313 312 311 312 310 309 308 308 307 306 306 306 306 304 303 302 302 302 299 297 300 303 305 306 313 310 308 307 314 320 322 322
305 305 306 306 307 307 307 308 309 310 312 312 312 312 313 313 311 309 308 307 306 306 306 304 302 301 301 302 301 301 300 300 301 304 304 309 310 308 305 306 309 316 319
304 304 304 305 305 306 306 306 306 307 308 310 310 311 311 311 314 312 308 307 306 306 305 303 301 301 300 300 298 297 297 300 301 302 303 303 310 310 308 307 311 314 317
303 303 304 304 305 304 304 305 306 306 307 308 308 309 309 309 308 309 311 308 305 304 302 301 301 301 301 300 299 300 298 299 302 304 302 302 306 309 310 310 311 310 311
302 302 303 303 303 303 303 303 303 303 303 304 303 303 303 301 303 305 307 308 308 303 301 301 300 300 300 300 299 297 297 299 300 303 305 302 303 310 307 307 309 310 310
301 302 302 302 302 302 301 301 302 301 300 299 298 297 295 295 295 296 299 301 302 302 302 300 300 299 299 299 298 298 296 296 297 298 300 303 304 302 305 307 307 307 306
301 301 301 301 301 301 301 301 300 298 298 299 298 296 295 295 294 293 292 294 297 299 300 301 300 299 298 298 297 295 295 295 296 296 298 300 303 302 303 305 302 299 299
300 300 300 299 297 297 297 296 296 295 295 294 295 295 295 295 294 293 293 293 294 298 297 298 298 298 297 296 296 295 296 296 297 295 295 297 301 299 299 297 297 297 298
300 298 297 296 296 296 296 295 295 294 294 293 293 292 292 293 293 293 293 293 293 293 294 294 294 294 294 293 294 293 293 294 293 294 293 295 297 297 296 296 295 296 297
297 296 296 296 296 295 294 293 293 293 293 292 292 292 291 291 291 291 291 291 291 292 293 292 292 292 292 292 293 292 292 292 293 293 293 293 293 293 293 293 296 296 295
297 296 296 295 295 295 294 293 293 292 291 291 291 290 290 289 289 289 290 290 290 290 291 292 291 291 291 292 292 292 292 292 292 293 292 293 294 292 291 290 291 293 295
295 295 295 294 294 293 293 292 291 290 290 290 290 289 289 289 289 289 289 289 289 289 289 289 290 290 290 290 291 291 291 292 292 292 292 292 292 291 292 292 291 290 290
293 293 292 291 291 290 289 289 289 289 289 288 288 287 287 287 287 287 287 287 287 287 287 288 288 289 289 289 289 290 290 290 291 291 291 290 290 291 291 291 290 290 290
289 288 288 288 288 287 287 287 287 287 288 287 287 287 286 286 285 284 284 285 285 286 287 288 289 289 289 289 290 290 290 290 290 290 291 291 291 291 290 290 289 289 290
288 287 287 287 287 287 285 284 284 285 286 286 286 286 286 285 284 284 283 283 283 285 286 287 287 287 288 288 288 288 289 289 290 289 289 290 290 290 291 291 291 291 292
287 287 287 287 286 286 284 282 282 283 284 284 285 285 284 284 283 284 284 284 283 283 283 283 284 285 286 286 287 287 287 288 288 288 288 289 289 290 290 291 290 290 290
287 286 286 285 285 285 283 282 281 281 283 284 284 284 283 283 284 283 283 283 283 284 284 284 284 284 285 285 285 286 286 287 287 287 287 289 288 288 288 289 289 289 290
286 286 285 285 284 284 282 281 280 281 282 282 282 282 283 283 283 283 283 283 284 284 284 284 284 283 283 284 284 285 286 286 288 287 287 287 287 287 287 288 288 288 289
286 285 285 284 283 282 282 280 279 280 281 281 282 282 282 282 282 283 283 283 283 283 284 284 284 286 284 284 284 284 285 286 286 287 286 287 287 287 288 288 288 288 289

GFSMA_925_thetae_009.txt.gz
Theta_e
323 322 320 319 318 318 318 318 318 318 316 314 312 312 312 312 312 313 312 311 308 304 305 306 311 316 320 321 323 325 326 327 328 328 327 327 326 327 328 327 326 325 325
321 320 319 318 317 317 317 317 318 319 316 314 313 312 312 311 311 312 311 311 309 305 305 306 306 311 316 320 322 322 324 324 326 327 327 327 327 327 327 328 327 326 325
319 319 318 318 317 317 317 317 317 317 317 316 313 312 312 312 312 311 311 309 310 308 304 305 306 307 310 313 315 318 321 323 324 324 325 326 327 326 327 327 327 327 326
318 318 317 317 317 318 317 317 316 316 316 316 315 313 312 311 311 311 310 310 309 310 308 306 304 305 306 308 309 311 315 317 320 322 323 323 325 326 326 326 327 327 326
316 316 316 316 317 317 317 317 317 316 316 316 315 314 312 311 311 311 310 310 309 309 309 309 304 302 302 304 305 306 307 312 318 319 320 320 322 322 323 325 326 326 326
315 314 314 314 314 314 314 315 316 316 317 316 315 315 314 313 311 311 311 310 309 309 308 309 307 305 306 303 301 302 304 309 311 315 319 318 319 321 322 321 322 324 327
311 310 310 310 310 310 310 311 312 314 315 315 317 317 316 314 313 311 311 311 310 309 309 309 309 308 306 304 302 301 300 304 308 308 313 316 317 316 320 322 322 321 322
309 309 308 308 308 308 308 309 310 312 312 313 315 316 319 316 315 314 312 312 311 309 309 308 309 308 307 306 305 304 301 298 298 300 305 309 314 313 310 313 319 323 321
308 307 306 307 307 307 307 308 308 308 310 310 311 314 316 316 316 313 315 312 311 311 309 308 309 307 305 305 304 303 301 300 298 298 300 305 307 313 311 307 306 308 313
306 305 305 306 306 306 306 306 306 307 307 308 308 308 309 312 315 315 313 313 312 310 310 309 308 306 304 304 304 303 303 301 298 299 299 303 305 313 311 307 306 307 309
305 304 304 304 305 305 305 305 305 305 305 305 306 306 307 307 308 306 310 312 311 310 309 309 308 305 304 303 303 302 301 298 296 299 301 301 307 306 311 311 312 312 307
303 303 303 304 304 304 304 304 304 304 303 302 302 302 302 301 301 301 302 306 309 308 308 307 305 304 304 303 303 301 300 299 298 300 302 302 302 303 308 311 310 310 311
302 302 303 303 303 303 303 303 303 301 300 299 299 300 299 298 297 297 296 297 300 300 302 303 303 302 302 302 302 300 299 297 297 298 300 303 304 303 309 309 308 308 310
301 302 302 302 302 301 300 300 300 299 298 298 297 296 297 297 297 296 295 295 298 298 298 299 300 302 301 301 301 299 298 296 295 295 297 298 302 304 304 303 305 306 305
300 300 301 300 299 298 298 297 297 296 297 297 296 296 296 296 296 296 295 295 295 296 297 298 297 298 299 299 298 298 298 298 296 296 296 296 297 302 302 303 304 303 300
299 299 298 298 297 297 296 295 296 296 296 295 295 294 294 294 294 294 294 296 295 295 296 295 294 295 295 295 296 296 296 295 295 295 294 295 294 297 298 297 296 296 296
298 298 298 297 297 296 296 296 295 295 295 295 294 294 293 293 292 292 292 292 292 293 295 294 293 293 293 294 294 294 294 294 294 294 293 293 293 294 294 294 295 295 296
297 297 296 296 295 296 295 295 294 293 293 293 292 292 292 292 291 291 291 291 291 291 292 293 292 292 292 293 293 293 294 294 294 294 293 293 293 293 292 292 292 292 292
295 294 294 294 293 292 291 291 290 291 291 291 291 290 290 290 289 289 290 290 290 290 290 291 291 291 291 291 292 292 292 293 293 293 293 293 293 294 294 294 293 292 291
291 290 290 290 289 289 289 289 289 289 288 289 289 289 289 289 289 288 288 288 288 288 288 289 289 290 290 290 290 291 292 292 292 292 292 292 292 292 292 291 291 291 291
290 289 289 289 289 289 288 287 287 287 286 287 287 288 288 288 287 286 286 286 286 286 287 288 289 290 291 291 291 291 292 292 292 292 292 292 293 292 291 291 290 290 291
289 289 289 288 288 288 286 285 284 284 284 285 286 286 287 287 287 286 285 284 284 284 285 286 287 288 289 289 289 290 290 290 292 290 290 291 291 292 292 292 292 292 291
289 288 288 288 287 287 285 284 283 283 283 284 285 285 286 286 286 286 285 285 285 284 284 284 284 285 286 286 287 288 289 289 290 289 289 290 290 291 291 291 291 291 291
289 288 288 287 287 286 285 283 282 282 282 283 284 284 284 285 285 285 285 284 284 284 284 285 285 285 285 285 286 286 287 287 288 288 289 290 289 290 289 289 289 289 289
288 288 287 287 286 285 284 283 281 281 281 282 282 283 283 283 283 283 283 284 284 284 285 285 285 285 284 284 284 285 286 287 288 288 287 288 288 289 289 289 289 288 288
288 288 287 286 285 284 284 282 281 280 280 281 281 282 282 283 283 283 283 284 284 284 283 284 284 285 285 286 285 284 284 286 287 288 287 288 288 288 289 289 289 289 289

GFSMA_925_thetae_012.txt.gz
Theta_e
322 321 319 319 318 317 317 317 317 318 319 317 315 313 312 313 312 312 313 313 312 311 306 305 310 310 316 320 321 323 325 325 327 329 328 325 327 326 327 327 328 327 326
321 320 319 319 318 318 318 317 317 318 319 318 317 315 313 312 312 311 312 312 311 310 309 305 306 311 317 318 319 321 322 324 325 327 328 325 327 327 327 328 328 327 326
320 319 319 318 318 318 318 317 318 318 317 317 317 316 315 312 312 312 311 312 311 310 309 307 305 306 309 311 313 317 321 322 323 324 325 327 327 327 327 327 328 327 326
317 317 317 317 317 317 317 318 318 318 318 317 317 317 316 315 312 312 312 311 311 310 310 308 305 304 304 306 308 310 314 317 320 322 323 324 325 326 327 327 327 327 327
316 315 315 315 315 315 316 315 316 317 318 317 317 317 315 316 315 312 312 311 310 310 310 310 307 306 304 304 305 306 307 310 315 318 320 321 322 323 325 325 326 326 327
313 311 311 311 311 311 311 312 312 311 313 314 315 316 316 316 315 314 314 312 311 310 309 310 310 307 303 302 302 303 304 305 307 312 318 320 319 320 322 321 320 325 326
311 310 309 309 308 309 309 309 309 310 310 311 313 314 314 314 315 317 315 314 312 311 310 309 309 309 306 305 305 302 304 307 308 308 310 317 317 317 318 322 323 322 323
309 308 307 307 308 307 307 308 309 309 308 308 310 311 310 310 311 313 314 315 313 312 311 310 309 310 310 309 305 304 303 304 303 301 301 306 313 315 314 312 317 322 322
309 307 306 306 305 307 306 306 307 307 308 307 307 308 308 308 309 310 310 310 311 311 313 312 310 309 309 308 306 304 304 302 300 299 299 299 303 308 313 311 308 308 316
307 305 304 304 304 305 305 306 306 305 306 307 306 306 305 304 306 307 308 308 308 310 310 312 311 310 310 309 306 304 304 302 300 300 299 298 298 302 313 312 309 306 307
304 303 303 303 304 303 304 305 304 305 305 303 303 302 302 301 302 301 303 301 301 303 305 307 309 310 307 306 304 304 303 303 301 298 298 299 299 304 308 313 312 309 309
302 302 302 302 303 304 304 303 303 302 301 301 301 301 300 300 299 298 298 298 298 299 301 301 304 306 305 304 304 303 302 301 300 299 298 301 302 303 307 309 311 311 312
302 301 301 302 302 301 300 300 300 300 299 299 299 298 298 297 297 296 296 296 297 296 297 298 299 300 301 303 302 301 302 300 300 298 297 299 303 303 303 305 310 311 310
301 300 300 300 299 299 298 298 298 297 297 297 297 297 297 297 297 297 296 295 294 295 297 298 298 298 299 299 301 299 299 299 297 297 296 297 299 303 306 308 310 308 309
300 299 298 298 298 298 297 297 297 296 296 296 296 296 296 296 296 296 296 296 295 295 294 295 297 296 295 296 297 298 298 298 298 297 296 295 296 297 302 303 305 306 307
297 297 298 298 298 297 297 296 296 295 295 295 295 295 295 295 294 294 294 294 295 295 296 295 295 295 295 294 294 295 296 297 296 295 296 296 295 295 296 298 298 298 298
297 297 297 296 296 295 295 294 293 294 294 293 293 294 294 293 293 293 292 292 292 292 293 292 293 293 293 294 295 294 294 294 294 294 294 294 294 294 293 293 296 295 295
296 295 294 294 293 292 291 291 291 291 291 292 292 292 292 292 291 290 290 290 291 291 291 291 291 291 291 292 292 292 292 294 294 294 294 294 294 293 293 293 293 293 292
294 292 291 291 290 290 290 289 289 290 289 288 288 288 289 290 290 289 289 289 289 289 288 289 289 289 289 290 290 291 291 292 292 293 293 293 293 293 293 293 293 293 292
292 291 290 290 289 289 289 289 288 287 287 286 286 286 286 287 288 289 289 288 288 287 286 286 287 287 288 289 289 290 290 290 291 292 292 292 292 292 293 293 293 293 293
290 290 289 289 289 289 288 287 286 285 285 285 285 285 285 286 286 287 287 287 286 286 286 286 286 286 288 289 289 290 290 291 291 292 292 292 292 292 292 292 292 292 291
290 289 289 289 288 288 287 286 285 284 284 284 283 283 284 285 286 286 286 286 286 285 285 285 285 285 285 286 286 287 288 289 287 290 290 290 290 290 291 291 292 292 292
289 289 289 289 288 287 286 285 284 283 282 282 282 283 283 284 284 285 285 285 285 286 285 284 284 284 284 284 284 285 286 287 288 289 289 289 289 289 290 290 291 291 291
289 289 289 288 287 286 285 284 284 282 282 281 281 281 281 282 283 283 283 283 284 284 284 285 285 284 284 284 285 285 286 286 286 287 287 288 289 289 289 289 289 289 289
289 289 289 288 287 286 285 285 284 282 282 281 280 281 282 282 282 282 283 283 283 283 284 284 285 285 284 285 285 285 285 285 285 286 287 287 288 288 288 288 288 288 288
289 288 288 287 286 285 285 284 282 281 281 280 280 281 281 282 282 281 281 282 283 283 283 282 282 282 282 282 283 284 286 285 284 284 285 286 287 288 288 288 288 288 288

GFSMA_925_thetae_015.txt.gz
Theta_e
321 320 319 318 318 318 317 317 317 316 317 318 318 317 314 313 312 311 311 312 313 313 312 311 307 306 307 314 320 321 323 325 325 328 327 327 328 327 326 326 327 328 325
320 319 318 318 318 318 318 318 317 317 318 317 317 318 317 316 314 312 311 311 311 312 311 310 309 307 307 307 311 315 319 322 324 326 327 328 325 322 320 326 327 328 327
319 319 318 318 317 317 317 315 316 317 317 317 317 317 317 317 316 314 313 311 311 311 311 310 309 308 306 307 311 311 314 319 322 324 326 327 327 321 323 327 326 327 328
316 316 314 313 313 313 313 314 313 314 315 314 313 313 314 315 315 315 314 312 312 311 311 310 310 309 307 305 305 308 309 313 319 321 323 324 326 326 327 327 326 327 327
315 314 310 309 309 309 309 309 310 309 308 308 308 311 313 314 314 313 313 314 313 312 311 310 310 310 308 307 305 306 310 310 312 316 320 322 323 324 326 327 327 327 327
311 311 310 309 308 307 307 308 307 306 308 310 310 310 310 311 312 312 312 313 316 314 312 310 310 310 309 308 305 305 311 312 314 316 316 319 320 321 322 324 326 326 325
312 311 309 306 306 307 306 306 306 305 306 307 308 308 309 309 309 309 309 308 312 313 313 312 311 310 309 309 308 304 305 310 311 312 314 317 319 319 319 321 322 322 323
309 307 305 305 305 305 306 305 304 306 307 306 306 306 306 306 306 306 308 307 308 309 310 311 311 310 310 309 308 306 306 308 309 310 312 310 316 317 316 317 318 322 322
306 304 303 303 303 303 304 303 303 306 305 306 306 305 304 304 302 305 304 306 305 304 304 304 309 310 310 309 309 307 307 305 306 309 309 309 308 312 314 313 312 311 317
304 302 302 302 301 301 302 304 305 304 304 304 303 304 301 300 301 300 301 299 301 298 298 299 302 306 309 310 309 308 308 304 304 304 302 305 306 310 311 312 310 310 308
302 301 300 300 302 303 303 302 302 302 302 301 300 301 301 300 299 297 297 297 297 296 297 298 298 300 305 306 306 306 306 304 303 301 300 299 303 308 308 312 313 310 309
301 300 301 301 301 301 301 300 300 300 300 299 298 298 298 298 299 298 296 296 296 295 295 294 297 298 299 303 303 304 304 303 301 300 299 297 298 301 308 309 313 313 312
300 300 299 298 298 298 298 298 298 298 297 297 296 297 297 297 297 296 296 296 294 294 295 294 296 297 297 300 300 301 300 301 299 297 298 298 298 299 301 306 309 311 311
300 297 297 298 298 297 297 297 296 296 296 296 295 296 296 296 296 296 296 295 295 294 294 295 295 295 295 295 296 298 298 299 300 296 296 296 297 298 301 304 305 306 311
296 295 297 297 296 295 295 295 295 295 293 294 294 294 295 295 294 294 294 294 295 294 293 294 294 293 294 295 294 295 296 296 296 298 296 295 295 295 297 301 305 307 308
295 294 295 295 295 295 295 294 293 293 292 292 293 293 293 294 293 292 292 292 292 293 293 293 293 292 292 294 295 294 294 294 293 296 296 295 296 296 295 296 299 302 305
295 295 295 292 291 290 290 290 290 289 290 290 289 288 288 288 291 292 291 290 290 290 290 290 290 290 290 290 291 292 294 294 294 294 295 294 294 294 294 294 294 295 296
295 294 291 290 290 289 289 289 289 289 288 287 287 286 286 286 286 287 289 289 289 289 289 287 287 287 287 288 289 289 289 292 294 294 294 294 294 294 294 293 293 293 294
293 291 290 290 289 289 289 289 288 287 286 286 285 285 285 284 285 286 287 288 288 288 288 286 286 286 286 286 287 288 288 289 289 290 291 292 293 293 293 293 293 293 293
292 290 290 289 289 289 289 288 287 286 285 285 284 284 283 284 284 285 286 287 287 288 287 286 286 285 285 286 287 288 288 289 290 290 290 291 292 292 292 293 293 293 293
291 289 289 289 289 288 288 287 286 285 285 283 282 282 282 283 284 284 286 286 286 286 286 285 285 285 284 285 285 285 285 286 288 289 290 290 291 291 291 292 292 292 293
290 289 289 289 289 288 287 286 285 284 284 283 282 280 280 281 282 283 283 285 285 285 286 284 284 283 284 284 284 284 284 285 285 287 288 288 289 289 290 290 290 291 292
289 289 289 288 288 287 286 285 285 284 284 282 281 281 280 280 281 281 282 283 283 283 284 285 285 284 284 284 284 284 284 284 285 285 287 287 288 288 289 289 289 290 291
289 289 288 288 287 286 285 285 285 284 282 282 281 280 280 281 281 281 282 282 282 283 283 283 284 284 284 284 284 284 284 285 285 285 286 286 286 286 287 287 288 288 289
289 289 288 287 285 284 285 284 283 282 281 280 280 279 280 280 280 282 281 281 282 282 283 283 284 284 284 283 284 284 285 285 284 284 284 285 285 286 287 287 287 287 287
288 288 287 285 285 284 282 282 282 280 279 279 279 279 279 280 280 281 281 281 280 280 281 281 281 282 281 281 281 281 282 284 285 283 284 284 284 285 286 286 287 287 287

GFSMA_925_thetae_018.txt.gz
Theta_e
319 319 319 318 318 318 318 318 317 316 316 318 317 317 318 318 316 314 313 312 311 311 311 312 311 310 309 307 308 313 317 320 322 324 326 325 324 325 327 326 326 327 327
319 319 318 318 316 315 314 314 313 314 314 316 317 316 316 316 316 316 314 312 312 311 310 310 311 310 309 309 308 309 312 313 316 321 323 324 325 325 327 327 326 325 327
319 318 316 312 310 311 310 310 310 311 311 310 310 310 309 308 309 311 313 314 313 311 311 310 310 310 309 309 309 307 309 311 313 316 320 323 325 325 326 327 326 326 324
316 315 311 310 311 310 309 308 308 308 307 306 307 306 308 308 308 309 310 312 313 314 313 311 311 311 310 309 309 307 308 312 310 313 316 320 322 325 326 326 323 325 326
313 312 311 310 309 307 307 307 306 305 304 303 304 306 305 305 306 307 309 310 310 311 313 313 312 311 310 309 309 309 308 312 317 317 315 317 321 322 324 326 326 327 326
310 309 309 307 306 306 305 305 305 304 303 303 307 306 306 306 305 308 308 308 308 308 310 310 310 310 310 310 310 309 309 308 311 316 317 319 319 320 322 323 325 326 326
309 308 306 304 304 304 305 304 303 303 303 305 305 305 305 304 306 304 303 304 305 305 306 305 308 311 310 309 309 308 311 314 314 313 314 316 317 318 319 320 322 322 324
306 305 303 302 301 301 301 301 302 304 305 305 305 305 302 304 303 303 302 302 302 299 300 300 300 304 309 309 309 310 310 313 314 313 312 312 314 315 318 318 319 321 322
305 303 301 300 299 301 302 303 303 304 304 304 304 303 301 301 300 301 300 300 298 299 297 296 297 297 300 306 309 308 308 308 306 311 311 311 312 312 315 317 316 315 317
303 301 300 300 300 301 302 301 301 301 301 302 301 302 300 300 300 299 299 298 297 297 296 295 294 297 297 299 306 309 309 308 309 307 309 311 310 309 312 313 315 314 310
301 300 299 300 300 299 300 300 300 300 299 299 299 298 297 296 297 297 297 296 296 296 295 295 295 297 298 301 303 305 306 307 306 307 307 308 307 307 308 310 312 314 313
300 299 299 298 297 298 297 297 297 297 297 296 296 296 296 297 296 296 296 295 295 295 295 294 295 296 297 296 297 300 303 303 305 305 303 303 305 300 304 308 309 313 313
300 298 297 297 298 297 295 295 295 295 295 294 294 295 295 295 295 295 296 295 295 294 294 293 294 294 294 295 295 296 297 301 301 301 299 299 300 301 300 301 307 310 313
299 296 294 296 295 295 294 295 294 293 293 292 292 293 292 293 294 294 295 295 295 294 294 293 293 293 292 293 294 294 295 297 299 300 300 298 297 299 300 300 301 305 308
298 294 294 294 294 294 292 293 291 290 291 291 291 292 291 291 292 293 292 291 291 293 293 293 292 291 291 291 293 294 294 295 296 297 297 295 295 296 297 300 302 306 306
296 295 294 294 292 290 290 289 289 289 289 289 288 287 287 286 286 285 288 291 291 290 291 290 290 289 290 290 289 290 293 294 293 294 294 295 295 296 296 296 298 302 305
295 294 294 292 290 289 289 289 288 289 288 287 286 286 286 285 285 285 284 285 288 290 290 289 289 289 289 289 289 289 288 291 294 293 293 292 294 294 294 295 295 295 298
295 294 292 290 290 289 289 288 288 288 287 286 286 285 285 284 284 284 284 284 286 286 288 287 287 287 287 286 286 287 288 287 288 290 292 292 293 293 294 294 293 293 293
294 293 291 290 289 289 288 288 287 286 286 286 285 284 283 282 282 282 283 284 284 285 286 287 286 286 286 285 285 285 286 287 288 289 289 290 291 293 293 293 293 293 293
293 293 290 289 289 289 288 288 287 286 286 284 283 283 282 280 281 282 283 284 285 285 286 285 286 285 285 285 284 285 285 286 286 288 289 290 290 291 292 292 292 293 294
294 292 289 289 289 288 288 287 286 285 284 284 284 282 281 281 281 281 282 282 284 285 285 285 284 284 284 284 284 284 284 284 283 285 288 289 289 290 290 291 292 292 292
290 289 289 289 288 287 287 286 285 285 284 284 282 282 281 281 280 281 281 282 282 283 283 284 284 283 283 284 284 284 283 283 282 284 286 286 286 287 289 289 290 290 291
290 289 289 288 287 286 285 285 285 284 283 282 281 281 280 280 279 280 280 281 282 282 282 283 283 284 284 284 284 283 283 283 283 284 285 286 286 286 286 287 288 289 289
291 288 288 287 285 284 284 284 283 282 281 280 279 279 279 279 279 280 281 282 281 281 282 282 283 283 283 284 284 284 284 284 284 284 285 285 284 285 285 285 286 287 288
288 288 287 285 284 283 282 282 281 280 278 278 278 278 278 278 279 280 280 281 281 280 280 281 282 283 283 284 284 284 284 284 284 284 284 284 284 284 284 284 286 287 287
288 287 285 283 282 281 280 280 280 278 277 277 277 277 278 278 279 280 281 281 280 280 280 280 280 280 280 280 280 280 281 281 282 282 283 283 284 284 284 284 284 285 286

GFSMA_925_thetae_021.txt.gz
Theta_e
320 319 318 318 317 315 313 311 311 310 310 311 313 314 313 313 313 314 315 315 314 312 311 311 311 315 316 314 312 310 308 310 313 316 319 322 325 324 323 325 326 327 327
318 319 317 316 311 311 311 310 309 308 308 308 307 307 308 307 307 308 310 311 313 313 313 312 311 311 311 312 312 311 310 308 309 311 312 316 321 324 324 323 325 326 326
319 317 312 310 310 309 308 308 307 306 306 304 303 302 303 304 305 305 307 309 311 311 312 312 313 311 311 310 310 310 311 311 309 307 308 310 315 321 324 323 324 325 324
313 311 310 310 309 307 307 307 305 305 304 303 302 301 302 303 303 304 305 307 307 308 309 310 312 313 312 311 311 310 310 313 314 313 307 308 311 315 321 324 323 325 325
310 310 309 307 307 306 305 304 304 303 302 302 301 302 302 303 303 304 306 305 306 306 307 308 309 310 311 312 312 315 312 310 312 317 316 310 307 310 315 321 323 324 326
309 309 308 306 304 303 303 302 301 301 300 303 305 304 304 302 304 304 303 302 303 303 302 302 302 304 308 310 310 310 314 316 316 318 318 318 313 307 308 315 320 322 324
309 308 306 304 302 302 300 299 301 302 303 304 304 303 303 304 302 302 301 301 300 300 299 298 297 297 299 303 309 309 313 315 316 316 316 316 315 312 308 311 316 319 321
306 305 304 303 302 300 299 301 302 302 302 302 303 302 300 301 301 300 300 299 299 298 298 297 296 296 296 297 299 306 309 311 314 315 315 315 314 313 311 308 313 317 318
302 301 301 300 299 299 300 300 300 300 300 300 300 301 299 299 298 299 297 298 297 297 296 295 295 294 296 296 298 301 305 309 308 309 313 314 314 313 312 310 310 316 316
302 300 299 298 298 298 297 298 299 299 299 299 299 298 297 297 296 296 297 296 296 296 295 295 295 295 297 298 298 302 303 305 306 308 308 308 311 312 313 312 312 315 316
306 305 300 298 298 297 297 297 297 298 297 297 296 295 295 296 296 295 295 294 295 295 295 295 294 294 296 296 295 295 297 299 302 304 306 308 310 311 310 309 310 313 315
304 300 299 298 296 295 296 294 295 295 295 295 294 294 295 295 295 295 294 294 294 294 294 294 293 294 293 293 294 294 295 296 298 301 303 305 306 307 307 309 309 310 311
300 299 298 296 294 294 294 294 294 293 292 292 292 292 292 292 292 293 293 293 294 293 294 294 294 293 293 292 293 294 294 294 296 298 300 299 303 301 301 305 306 310 310
300 298 295 294 295 295 294 294 294 291 291 291 291 291 291 290 290 291 290 290 292 292 293 292 292 291 290 291 292 294 293 294 294 294 296 299 298 301 301 300 302 302 309
298 296 294 294 294 293 291 290 289 289 289 289 289 289 288 287 286 286 285 289 290 290 290 291 290 290 289 290 289 290 293 294 294 293 293 296 297 297 297 298 301 305 304
297 295 295 295 294 291 290 289 289 288 288 288 288 287 286 286 286 286 285 284 285 289 289 290 290 289 289 289 288 289 288 289 292 294 293 293 295 295 297 297 296 298 305
296 295 295 294 292 290 289 289 288 288 288 287 286 286 286 285 284 284 283 283 283 284 286 287 288 289 288 288 288 288 288 287 288 289 293 293 292 293 293 295 296 296 296
296 294 293 292 290 289 289 288 288 288 287 286 285 285 284 283 282 281 281 281 283 283 284 285 286 288 287 287 287 287 287 286 286 288 289 290 292 292 292 293 294 294 294
295 294 294 293 290 289 289 288 288 287 286 285 285 284 283 282 281 280 281 281 282 283 284 284 285 285 286 286 286 285 285 285 286 287 288 290 290 291 291 292 293 293 294
295 294 293 291 289 289 289 288 287 286 285 285 284 284 283 282 281 281 281 281 282 282 283 284 284 284 285 285 285 284 284 284 284 285 286 288 289 291 291 292 292 293 293
295 293 292 289 289 289 287 287 286 285 285 284 284 283 282 281 282 281 280 281 281 281 282 284 284 284 284 284 284 284 284 284 283 283 284 286 288 288 290 292 293 292 292
293 290 290 289 288 287 286 285 285 285 284 283 282 281 280 280 280 280 280 280 281 281 282 282 282 283 284 283 283 283 283 282 282 283 285 285 285 285 286 288 289 290 292
291 289 288 287 287 285 284 284 283 283 281 281 279 278 278 279 278 278 279 280 280 281 282 282 282 282 283 282 283 283 283 282 283 283 284 284 285 285 285 286 286 288 289
290 289 287 287 285 283 283 282 281 280 279 278 277 277 278 278 278 279 280 280 280 280 281 280 281 282 282 282 283 283 283 283 283 283 283 284 284 284 284 284 285 285 287
290 287 286 284 283 282 280 280 280 278 277 277 277 277 278 278 278 280 280 280 280 280 280 280 280 281 282 282 283 283 283 283 283 283 284 283 283 283 283 284 284 284 286
287 286 284 283 282 280 279 279 279 278 277 277 277 277 277 278 279 279 280 280 280 280 280 280 280 280 280 279 280 281 282 282 282 281 282 283 283 283 283 284 284 284 284

GFSMA_925_thetae_024.txt.gz
Theta_e
320 318 317 315 311 310 310 309 308 308 307 307 305 304 304 306 307 307 307 308 309 311 314 313 313 316 318 318 319 315 312 310 309 308 309 311 314 320 323 324 323 325 326
318 317 313 310 310 309 308 307 307 306 305 304 303 302 301 301 301 302 303 304 306 308 310 311 311 312 313 314 316 318 316 311 310 309 307 307 308 311 318 323 324 323 326
317 312 310 310 309 308 307 307 306 305 304 303 302 301 300 300 302 303 303 304 304 305 307 308 309 310 311 313 313 313 317 318 311 310 310 309 307 308 311 318 323 324 323
311 310 310 310 309 308 306 305 303 302 301 300 300 300 300 301 302 303 304 304 305 306 306 305 305 306 308 310 312 312 313 316 319 316 312 311 309 306 307 310 317 323 323
311 310 311 308 305 304 303 302 301 300 300 301 301 301 300 300 303 302 302 301 301 301 301 301 301 301 301 303 307 310 313 315 317 318 318 316 314 309 307 306 308 317 322
309 308 306 303 303 301 301 300 300 300 301 302 302 301 300 302 301 301 299 300 299 299 299 299 298 298 298 298 298 302 310 314 316 317 317 318 318 314 311 308 307 308 316
306 306 304 303 302 301 299 298 298 299 300 300 301 299 299 302 298 300 297 299 298 298 298 297 296 296 296 296 296 297 303 308 310 313 318 316 317 317 315 312 310 308 310
305 304 303 303 303 301 297 296 297 299 299 299 299 299 297 299 300 298 297 297 296 297 296 295 294 295 295 295 295 296 301 299 304 308 310 315 316 316 315 313 311 309 310
304 305 305 303 299 297 297 296 298 299 298 298 298 299 296 296 296 296 295 296 296 295 295 294 294 295 294 295 297 297 300 301 301 304 307 309 310 314 314 314 312 310 311
303 305 303 299 298 298 296 296 297 297 297 297 297 298 296 295 296 295 295 295 294 294 294 294 294 295 294 296 295 295 295 296 297 300 303 305 309 311 312 314 314 310 309
304 302 300 298 298 296 295 294 295 295 295 295 295 294 293 295 295 294 294 293 293 293 293 293 294 294 293 293 293 294 294 294 295 297 300 302 305 308 311 312 313 311 309
302 300 299 298 296 294 294 293 293 293 292 292 292 292 292 293 293 292 292 292 292 292 291 293 293 293 292 292 291 293 294 294 294 294 297 300 302 305 307 308 310 310 309
301 300 298 297 294 294 294 294 294 294 292 291 291 291 291 291 290 291 290 289 290 289 292 290 292 292 291 290 290 293 294 293 294 293 293 294 299 299 302 302 305 308 310
300 299 297 294 294 294 296 293 292 291 289 289 289 289 289 288 287 286 288 288 288 289 288 290 289 291 290 290 290 289 289 292 294 294 293 293 296 298 298 300 301 302 302
299 298 296 294 294 295 293 292 291 289 289 288 288 288 288 287 286 285 285 284 285 285 286 286 288 289 289 288 289 289 288 289 290 292 293 293 293 296 298 297 297 301 303
299 298 297 295 295 294 293 290 289 289 288 288 288 287 286 286 285 285 284 283 282 283 284 285 286 287 288 288 289 288 288 288 288 288 289 293 293 292 295 297 297 296 301
297 297 296 295 293 292 291 290 289 288 288 287 287 286 285 285 284 283 282 281 281 281 283 283 283 284 284 286 288 288 288 288 287 287 287 288 289 291 292 295 296 297 296
294 296 294 293 294 293 290 290 289 288 288 286 285 285 285 284 283 282 281 281 281 281 281 282 283 283 284 286 286 287 287 287 286 286 286 288 289 291 291 293 293 294 296
294 294 293 294 293 290 289 288 288 287 286 285 285 284 283 283 283 282 281 281 281 280 281 283 283 283 284 285 285 286 286 285 285 285 285 286 288 289 291 291 292 293 293
295 294 295 294 291 288 289 288 287 286 285 285 284 284 283 282 282 281 281 281 280 280 280 281 281 283 284 284 284 284 285 284 284 284 284 284 287 289 290 292 291 292 293
294 294 290 289 288 289 288 287 286 285 284 284 282 281 281 281 281 281 280 280 280 280 280 281 281 282 282 283 283 284 283 284 284 284 283 283 285 287 289 292 291 292 292
292 292 290 288 288 287 286 285 284 283 282 281 279 278 278 278 278 279 279 279 280 280 281 281 281 281 281 282 283 283 282 282 283 283 283 285 284 285 286 287 289 292 292
291 289 289 287 286 285 284 283 282 281 280 279 277 277 277 278 277 278 278 279 280 280 280 280 282 281 282 282 282 282 282 282 282 283 283 283 283 284 285 285 286 288 290
290 290 287 286 285 283 281 281 280 279 278 277 277 277 277 277 277 278 280 280 280 279 280 280 280 281 281 281 282 282 282 282 282 282 283 283 283 283 284 284 284 286 286
289 287 286 284 283 282 280 279 279 278 277 277 277 277 277 277 278 279 279 279 279 280 280 281 281 281 281 281 281 281 282 282 282 283 282 283 283 283 283 283 283 284 286
287 286 285 284 282 281 280 279 279 278 277 277 277 277 276 277 278 279 279 278 279 280 279 280 280 280 280 280 280 280 280 281 283 281 282 283 282 283 282 283 284 284 284

GFSMA_925_thetae_027.txt.gz
Theta_e
319 317 315 312 311 310 309 309 308 307 306 305 304 302 302 301 301 303 304 302 303 304 306 309 311 312 315 314 315 316 317 319 319 314 311 308 308 309 313 320 323 324 323
318 314 311 310 309 310 309 308 306 305 304 304 303 302 302 303 302 301 304 305 302 304 305 306 307 308 309 311 314 315 315 314 316 317 316 312 309 309 307 310 318 323 324
314 311 311 311 309 308 306 305 304 304 304 303 304 304 304 304 304 303 304 305 305 305 305 304 304 304 304 305 307 311 315 317 317 318 318 317 315 311 307 307 310 318 323
312 311 310 309 306 304 304 303 303 303 304 304 304 304 303 302 304 304 304 303 303 302 302 302 301 301 300 300 302 305 309 313 317 318 318 319 318 315 312 307 307 309 318
310 310 307 305 303 304 303 302 303 301 303 302 301 302 300 301 304 303 302 301 301 300 300 300 299 299 298 297 297 301 304 307 312 316 318 318 318 317 315 312 309 307 308
308 307 305 304 303 303 302 301 300 300 301 301 299 300 299 301 303 301 300 300 299 299 299 298 298 297 295 295 295 298 302 305 308 311 314 316 319 318 317 316 313 310 309
305 304 305 304 303 300 297 297 299 299 298 300 299 298 299 303 302 300 299 298 298 297 297 297 296 296 296 296 296 297 301 303 305 306 308 312 313 317 317 317 316 313 310
304 305 303 302 299 298 297 295 297 298 299 299 298 298 299 298 300 298 297 296 296 297 296 296 296 296 296 296 296 298 299 301 302 303 305 307 310 312 315 316 316 315 312
305 305 301 300 298 298 298 297 298 298 297 298 298 297 299 298 296 296 295 295 295 294 294 294 294 294 295 296 296 297 298 295 297 299 302 304 307 310 312 314 315 315 313
304 303 301 300 298 298 296 296 296 296 296 296 295 296 295 295 295 295 294 293 293 292 293 294 294 295 295 295 295 294 293 294 295 297 299 302 304 307 310 312 314 314 316
302 301 301 299 298 297 293 292 295 295 295 294 294 293 292 293 293 293 293 292 291 291 292 291 293 294 294 294 293 293 293 294 295 295 297 298 302 304 306 310 313 313 314
302 301 300 299 298 295 293 294 294 294 294 294 293 292 291 291 291 291 291 290 290 289 289 290 290 292 293 293 292 290 290 292 294 294 295 295 298 301 302 304 308 311 312
302 301 300 298 297 294 294 296 295 295 294 292 292 291 291 290 290 289 289 289 289 288 288 288 288 290 289 292 291 290 291 290 289 293 294 293 294 298 299 300 302 306 309
301 300 299 298 296 294 294 296 295 294 294 292 291 290 290 289 289 288 288 288 289 288 287 287 287 287 288 290 290 288 290 290 289 288 290 293 293 293 297 298 299 301 302
299 299 298 297 296 296 295 294 294 293 291 290 290 289 289 288 288 287 287 287 287 289 288 286 286 286 286 287 288 288 289 290 288 287 288 288 292 293 292 294 297 298 301
296 296 295 297 295 295 294 293 292 291 289 290 289 289 288 287 287 286 286 285 285 285 287 284 284 284 284 285 286 286 287 290 288 288 287 287 288 288 290 291 293 297 298
293 294 295 295 295 294 293 293 291 290 289 289 288 287 287 286 286 286 285 284 284 283 284 284 283 283 283 284 285 285 286 288 288 288 287 286 287 288 288 290 292 295 297
292 293 294 294 294 294 293 292 290 289 288 288 287 286 286 286 285 285 284 283 283 283 282 283 282 282 283 284 284 285 286 287 288 287 286 286 286 287 288 290 291 293 295
293 294 294 294 294 293 289 288 288 288 286 286 286 286 285 284 284 283 283 282 282 282 282 281 282 282 282 282 284 285 285 286 287 286 285 285 284 285 288 289 291 292 293
293 294 294 292 291 289 288 288 287 286 286 286 285 284 283 282 282 281 281 281 281 281 281 281 281 281 282 282 284 284 285 285 286 286 285 285 284 284 287 289 290 291 292
293 291 291 289 288 287 287 287 287 286 285 283 282 281 280 280 279 279 280 280 280 280 280 281 281 281 282 282 282 283 284 284 286 286 285 285 285 286 288 289 291 292 292
292 291 290 288 287 286 285 285 284 284 282 281 280 279 279 278 279 279 279 279 279 280 281 281 281 283 282 283 282 282 283 284 285 285 285 285 285 285 286 288 287 289 292
290 290 290 287 286 285 284 283 282 282 280 280 279 279 279 279 278 279 279 280 280 280 280 280 281 281 281 281 282 282 283 283 283 284 284 285 285 285 285 286 286 287 288
290 290 288 286 285 283 282 281 280 280 280 279 279 278 278 278 278 278 280 280 280 279 280 281 281 282 281 281 281 282 283 283 283 283 283 284 284 285 285 285 285 286 287
290 288 286 285 283 282 281 280 280 280 279 279 279 278 278 278 278 279 279 279 279 279 280 279 280 281 281 281 281 281 282 283 284 283 283 283 284 284 285 285 285 284 286
288 287 285 284 283 282 281 280 279 280 279 279 279 278 277 277 277 278 278 278 278 279 279 279 280 280 281 281 281 281 281 282 282 284 284 284 284 284 284 285 285 285 284

GFSMA_925_thetae_030.txt.gz
Theta_e
324 321 319 317 316 315 314 314 313 311 310 310 309 309 308 308 308 308 308 308 306 302 303 308 310 310 311 311 312 312 313 316 319 323 318 314 313 311 309 310 318 322 323
322 319 317 315 314 314 313 312 310 310 310 309 309 309 309 308 308 307 307 307 307 305 304 304 305 306 306 307 307 308 311 314 317 319 321 318 314 313 312 310 309 314 322
317 317 316 315 312 311 308 308 309 309 310 309 309 308 307 307 306 306 306 306 306 306 304 303 302 302 303 304 304 305 307 309 311 317 318 320 320 314 313 313 308 309 314
314 313 313 310 307 308 309 309 309 309 307 307 305 304 304 303 303 305 305 305 304 304 303 302 300 300 300 300 302 303 304 306 307 311 315 317 319 319 316 313 313 308 309
309 309 310 309 308 308 309 307 306 304 303 304 303 301 301 301 300 303 304 304 303 302 301 301 299 298 298 298 299 300 302 304 306 308 310 312 315 318 319 317 314 312 309
310 309 309 309 308 307 305 303 302 302 301 301 301 300 301 300 301 303 303 301 301 301 300 299 299 299 298 298 298 299 301 303 304 305 307 308 310 313 316 319 318 315 312
308 309 308 307 305 304 303 302 301 301 301 301 301 300 300 301 304 303 301 300 300 298 299 298 298 297 297 297 298 298 299 301 301 302 303 304 307 308 312 315 318 316 315
308 307 306 305 303 303 303 302 301 300 299 299 300 300 301 300 300 301 298 298 298 298 297 296 296 296 297 297 297 297 298 299 299 299 300 301 303 306 308 312 315 316 315
306 306 305 303 303 302 301 301 300 299 299 298 298 299 301 300 298 297 297 296 296 295 295 295 295 295 296 297 297 297 296 294 296 297 299 300 301 303 305 309 312 315 317
305 304 303 303 303 302 302 300 298 299 298 298 297 297 297 296 298 297 295 294 294 294 293 293 293 293 294 295 296 295 295 293 295 297 297 298 298 300 303 307 309 312 315
305 304 304 303 303 302 301 300 299 299 297 296 296 295 295 294 293 294 295 293 292 292 292 291 290 291 292 293 294 294 292 290 290 295 296 297 297 298 302 303 306 308 313
304 304 304 303 303 302 301 300 299 298 297 296 294 294 293 293 293 293 293 292 291 291 290 290 290 290 290 290 292 293 292 291 291 291 293 295 296 296 297 301 303 305 308
302 301 302 302 302 301 300 299 298 297 296 295 294 293 292 292 292 291 291 291 291 290 290 290 290 289 289 289 289 290 292 291 289 290 290 291 292 294 295 296 300 302 303
300 300 301 300 299 299 298 298 297 296 296 295 293 293 292 291 291 291 290 290 292 290 289 289 289 288 288 288 288 288 289 290 289 290 289 288 289 289 291 293 295 298 300
298 297 297 297 297 297 297 297 296 296 295 294 293 292 291 291 290 290 289 289 289 291 290 288 288 287 287 287 287 287 287 288 288 288 290 288 287 289 289 289 290 291 296
296 295 295 295 296 296 296 296 296 295 294 293 292 291 291 290 289 289 289 288 288 288 291 287 287 287 286 286 286 286 286 286 286 287 289 288 288 287 288 288 289 289 292
295 294 294 294 295 295 295 295 295 294 293 292 291 291 290 290 289 288 288 287 287 287 287 286 286 286 285 285 285 286 286 287 287 288 289 288 287 287 287 287 288 289 290
294 294 295 295 295 295 295 295 294 292 291 291 291 290 289 288 288 287 287 286 286 285 285 285 285 284 284 284 284 284 285 285 286 288 288 287 287 286 285 286 287 289 290
294 294 294 295 294 294 293 292 291 291 290 290 289 289 288 287 286 285 285 285 284 284 284 284 284 283 283 283 284 284 286 286 286 287 287 287 286 285 285 285 286 287 290
294 294 293 292 292 292 291 290 290 290 290 289 288 287 285 284 284 283 283 283 283 283 283 283 283 283 283 283 284 284 284 285 286 287 287 287 286 286 285 284 285 287 289
293 293 293 292 291 291 289 290 290 289 288 287 285 284 283 282 280 280 280 281 281 281 282 282 283 283 283 283 284 284 284 284 284 285 286 287 287 287 288 287 288 290 292
293 293 292 291 291 289 287 286 285 286 286 285 284 283 283 282 281 280 280 280 280 280 282 282 282 283 283 283 283 284 283 284 286 285 286 287 287 287 287 287 288 289 288
293 292 292 291 290 290 285 284 283 284 284 283 283 282 282 281 281 281 280 280 281 281 281 281 281 282 283 283 283 283 283 283 284 285 285 285 286 286 287 287 286 287 287
292 292 291 291 290 288 284 283 282 283 284 283 282 282 282 281 281 279 279 280 280 281 281 281 281 281 281 281 282 283 283 283 283 284 284 285 285 285 286 286 286 286 286
291 291 291 290 289 287 284 282 281 283 284 283 282 282 280 279 279 278 279 279 279 280 280 280 280 280 280 281 281 282 282 283 284 284 285 285 285 285 285 286 287 286 285
290 290 290 289 287 286 283 281 281 283 283 282 282 281 280 278 277 277 277 278 279 279 279 279 280 281 281 282 282 282 283 283 283 284 284 285 285 285 286 286 286 287 287

GFSMA_925_thetae_033.txt.gz
Theta_e
326 325 322 320 319 318 317 317 316 314 313 314 313 312 312 311 311 311 310 309 308 307 305 309 310 310 309 309 309 309 310 312 313 318 319 320 321 318 313 311 309 312 321
320 323 321 319 318 317 315 312 312 313 313 313 312 311 310 309 308 308 308 308 307 307 305 304 304 306 306 306 306 307 307 309 310 312 316 318 319 320 319 315 312 309 308
323 319 318 316 314 311 311 313 312 312 312 310 309 308 306 304 305 304 306 307 307 307 304 304 302 302 302 302 303 304 305 306 307 308 311 314 316 318 319 319 317 314 308
317 317 315 313 311 312 312 312 311 309 308 307 306 306 303 302 303 303 303 305 305 305 304 303 301 300 301 300 301 302 302 304 305 307 308 311 312 314 316 319 319 317 314
313 312 313 312 312 312 311 309 308 307 306 305 303 303 302 302 303 302 303 305 304 303 303 302 301 300 300 299 300 300 301 303 304 305 306 307 309 310 311 314 317 319 318
314 313 313 313 311 310 309 307 306 304 303 302 302 302 302 302 302 303 305 304 303 302 301 301 300 299 299 298 299 299 301 301 302 303 303 304 304 306 308 310 313 316 319
312 312 312 311 309 308 307 306 304 302 302 301 301 301 301 301 301 303 302 303 301 300 300 299 299 298 298 298 299 299 299 300 301 300 300 301 301 302 304 307 309 312 315
312 310 310 309 308 306 304 303 303 302 301 300 300 300 302 300 300 300 300 299 299 298 298 297 297 297 296 296 297 298 298 298 298 298 298 299 300 300 302 304 306 308 313
310 308 308 306 305 304 302 303 302 301 300 300 299 299 300 300 299 298 298 297 297 296 296 295 295 294 295 294 295 296 296 295 295 296 298 298 299 299 300 302 303 306 310
308 307 306 305 304 304 303 303 301 301 300 299 298 298 297 297 298 297 296 296 295 295 294 294 294 293 292 292 293 293 295 294 292 292 294 297 298 298 298 300 302 304 307
308 306 305 305 304 303 303 302 302 301 299 299 298 297 296 296 295 296 296 295 294 293 293 292 292 292 292 292 291 292 292 291 292 292 292 293 295 297 297 297 300 303 304
304 304 304 304 303 302 302 302 301 299 299 299 298 296 295 295 295 294 295 294 294 293 292 292 292 291 291 291 291 291 290 291 292 291 291 292 293 293 294 296 296 298 301
303 302 302 301 301 301 300 300 300 299 298 298 298 297 295 294 294 293 293 293 293 292 292 291 291 291 290 290 290 289 289 289 289 290 291 291 291 292 292 293 294 295 297
301 300 299 299 299 299 298 298 298 298 298 298 297 296 295 294 293 293 292 292 293 292 291 290 290 290 290 289 289 288 288 288 288 288 289 290 291 290 290 291 292 293 294
299 297 297 297 296 296 297 297 297 298 297 297 296 295 295 294 293 292 292 291 291 293 292 290 290 289 289 288 288 288 288 288 287 287 287 287 288 290 289 290 290 292 293
297 297 296 296 296 296 296 296 297 296 296 296 295 294 294 293 292 291 291 290 290 290 292 289 289 288 288 287 287 287 287 287 287 287 288 288 287 289 289 288 287 288 291
297 296 295 296 296 295 295 296 296 296 295 294 294 293 293 292 291 291 290 289 289 289 290 289 288 287 287 286 286 286 286 286 286 287 287 287 288 289 287 287 287 286 287
296 295 295 296 295 295 295 295 295 294 294 293 292 292 291 291 289 289 288 288 287 287 287 287 286 286 285 285 285 285 285 285 286 287 287 288 289 288 287 287 286 286 286
295 295 295 295 295 294 293 293 293 292 292 291 291 291 289 288 288 287 286 286 285 285 285 285 285 285 284 284 284 285 285 285 286 286 287 287 287 287 287 286 285 286 285
295 295 295 295 294 293 292 292 292 291 291 290 289 288 287 287 286 285 283 283 283 284 283 283 283 284 284 284 285 285 285 285 285 285 286 286 287 288 287 287 286 285 285
295 295 294 294 293 292 291 291 291 290 289 288 288 287 286 285 283 282 282 282 282 282 282 282 283 284 284 284 284 284 284 284 285 285 286 286 287 289 288 288 287 287 288
294 294 294 293 292 292 290 289 287 287 287 287 287 286 285 284 284 282 282 281 281 281 282 283 282 283 283 283 284 284 284 285 286 285 285 286 286 288 288 289 288 289 288
294 294 294 293 293 292 289 288 285 285 286 286 286 285 285 284 284 283 282 281 281 281 281 282 282 283 283 282 282 283 283 284 284 284 284 285 286 287 287 288 287 287 286
294 293 293 293 292 291 289 287 284 284 286 286 285 285 284 284 282 280 279 280 280 281 281 281 281 281 281 281 281 281 282 283 283 284 284 285 286 286 286 286 287 287 287
293 293 293 293 292 290 288 286 284 284 286 285 285 284 283 282 281 279 278 279 279 280 281 280 280 280 280 281 281 281 283 283 284 284 284 285 286 286 286 286 286 287 287
292 292 291 291 291 290 287 286 284 284 285 285 284 284 283 280 279 277 277 278 278 280 279 278 279 281 281 282 283 283 284 284 284 285 284 285 286 286 286 286 287 286 287

GFSMA_925_thetae_036.txt.gz
Theta_e
326 325 323 321 319 318 318 316 314 313 314 313 312 311 310 309 307 306 308 308 308 307 306 306 308 308 307 307 307 307 308 308 309 310 312 315 318 320 320 318 315 312 310
321 323 322 319 319 317 313 312 313 313 312 310 309 308 308 306 303 304 304 305 307 307 305 304 305 304 304 304 303 303 305 305 307 308 309 311 313 316 318 319 320 317 315
323 320 319 318 317 315 312 313 312 310 309 308 307 306 305 304 302 303 304 302 306 306 305 303 302 302 302 302 302 302 303 304 305 306 307 309 310 311 312 315 318 320 319
320 319 317 316 312 312 313 312 309 308 307 306 304 303 303 303 302 303 303 303 305 305 304 304 302 301 301 301 301 301 302 303 304 304 305 306 307 308 309 310 312 315 318
316 314 313 313 313 312 311 309 308 306 304 303 302 302 302 302 303 302 303 303 305 303 303 302 301 300 300 300 300 300 301 303 302 303 304 303 303 303 304 306 308 310 313
314 314 314 313 311 310 309 308 306 304 303 302 302 301 301 302 301 302 303 304 303 301 301 300 299 299 297 298 298 299 301 301 302 302 301 301 301 301 302 303 305 307 309
314 313 313 311 310 308 307 306 305 304 303 302 301 300 301 300 299 300 299 298 299 300 299 298 297 296 296 296 296 297 299 300 299 299 299 299 299 300 300 301 302 304 306
313 312 311 309 308 306 305 304 303 303 302 301 300 301 299 299 300 299 298 297 298 296 296 296 295 296 295 294 293 294 297 296 297 296 297 297 298 300 300 300 300 302 304
312 310 309 307 306 305 304 303 303 303 302 301 301 300 299 298 298 298 297 296 296 295 295 295 293 293 293 293 292 293 293 293 294 294 294 295 295 297 299 299 299 300 302
310 309 308 306 305 305 304 304 303 303 302 301 300 299 299 298 296 295 296 296 295 294 294 293 293 293 292 292 292 292 292 292 291 292 293 293 294 294 296 298 299 298 300
310 308 306 306 306 305 304 303 303 303 302 301 299 299 298 297 296 295 294 294 294 294 294 293 292 292 292 292 291 291 292 291 292 293 292 292 292 293 294 295 296 297 297
305 305 304 303 302 302 302 301 300 301 301 300 299 299 298 297 296 295 293 294 293 293 293 292 291 291 291 291 291 290 290 289 289 289 290 291 291 292 292 293 294 295 296
303 302 301 301 300 300 299 299 299 300 300 299 299 298 298 297 295 295 294 293 292 292 292 291 291 291 290 290 290 290 289 289 289 288 289 289 290 290 291 292 292 294 294
302 301 299 298 298 297 297 297 298 299 299 299 298 297 297 296 295 294 294 293 291 291 291 291 291 290 290 289 289 288 288 288 288 288 287 288 288 288 289 289 291 291 292
300 298 298 297 296 296 296 296 296 297 298 297 297 296 296 295 295 294 293 292 292 290 290 290 290 289 289 288 287 287 287 287 287 287 287 287 287 288 289 289 289 290 291
299 298 297 296 296 296 296 296 297 296 296 296 296 295 294 294 293 293 292 292 291 290 289 289 289 288 288 286 286 286 286 286 286 286 286 286 287 287 287 289 289 290 290
298 297 296 296 296 296 296 295 295 295 295 295 294 293 293 292 292 291 290 289 288 288 287 287 287 287 286 286 285 285 285 285 285 286 286 286 286 287 287 288 289 289 287
298 297 296 295 296 296 295 294 294 294 293 293 292 292 291 291 290 288 288 287 286 285 285 285 285 285 285 284 284 285 285 285 285 285 285 286 286 286 287 288 288 287 287
297 296 295 295 295 295 293 293 293 293 292 292 291 291 290 288 287 287 286 284 283 284 284 283 283 283 283 283 284 284 284 285 285 285 285 286 286 286 286 288 288 288 287
296 295 295 295 295 294 293 293 292 292 291 290 289 288 288 287 286 285 284 283 282 282 282 282 282 282 283 283 284 283 284 284 284 284 285 285 286 286 287 288 288 287 287
295 295 295 295 294 293 293 292 291 290 289 288 287 287 287 286 285 284 283 283 282 282 281 281 281 282 282 282 282 283 283 284 284 284 285 285 285 285 285 286 288 288 287
295 295 295 294 294 293 292 290 289 288 287 287 287 287 286 285 285 284 283 282 281 281 281 281 282 282 282 283 282 282 282 282 282 283 284 284 284 285 285 286 288 288 288
295 294 294 294 294 293 292 291 289 287 286 286 286 286 286 285 284 283 282 281 279 281 281 281 281 282 282 281 281 281 281 281 282 282 283 283 283 285 285 286 287 287 287
294 294 294 293 294 293 292 290 288 286 286 286 286 286 285 284 283 282 281 279 279 279 279 280 281 280 280 280 280 281 281 282 282 283 284 284 284 285 285 285 286 286 287
294 294 293 293 293 293 290 289 287 285 285 285 285 285 284 284 283 281 280 277 278 278 279 279 278 279 280 281 281 282 283 282 283 283 284 284 284 284 285 285 286 286 286
294 293 293 292 291 290 290 288 286 285 284 284 285 284 284 282 281 280 278 277 277 278 278 277 278 280 280 281 282 282 282 283 283 284 284 285 284 285 286 287 286 286 287

GFSMA_925_thetae_039.txt.gz
Theta_e
324 322 321 319 318 318 317 316 313 313 312 311 310 308 306 305 304 303 304 304 305 306 308 309 307 306 305 305 304 304 305 306 307 308 309 310 311 313 314 316 317 319 319
322 322 322 319 317 316 315 313 312 311 309 308 307 306 304 304 303 302 303 303 303 306 305 304 305 304 304 303 303 303 303 304 304 305 306 307 309 310 310 311 312 315 317
322 322 320 317 316 313 312 312 310 309 308 306 304 302 303 302 301 303 302 303 304 306 305 304 303 303 302 302 302 302 302 303 304 303 305 305 305 306 306 307 308 310 313
322 320 319 315 312 313 312 311 309 308 305 302 302 302 301 301 302 301 301 302 304 305 304 304 301 302 301 301 302 301 302 303 303 303 305 304 303 303 303 304 305 306 308
318 316 314 313 312 311 310 309 308 305 303 302 301 300 300 300 300 300 300 300 299 301 301 300 298 298 298 299 299 300 300 300 303 303 302 302 301 301 301 302 303 304 305
314 314 313 312 311 309 309 307 306 304 303 302 301 300 300 299 300 299 298 298 298 298 297 297 297 296 296 297 297 297 297 299 300 300 299 299 299 299 301 301 301 302 302
314 314 312 311 310 308 306 304 304 303 303 301 300 301 299 299 298 298 297 297 297 296 295 295 295 295 294 294 294 295 295 297 296 296 297 297 296 297 298 300 301 301 301
313 313 311 309 307 306 304 303 303 303 303 301 300 299 296 298 298 297 297 296 295 295 294 294 293 293 293 292 292 292 293 294 294 294 294 294 295 295 296 297 300 300 300
312 311 309 308 307 305 304 304 303 303 302 302 301 300 296 295 296 297 296 295 295 295 294 293 293 292 292 292 292 292 292 292 292 293 293 293 293 294 294 295 297 299 300
310 309 308 307 306 305 305 304 304 303 303 302 301 300 299 298 294 294 295 294 294 294 293 293 293 292 291 291 291 291 291 291 292 291 292 292 292 293 293 293 294 297 297
310 309 308 306 305 303 302 302 301 300 301 301 300 299 299 298 297 293 292 293 294 294 293 293 292 290 290 290 290 290 290 290 289 290 290 290 291 291 292 292 293 295 296
309 305 303 302 302 301 300 299 299 299 299 300 300 299 298 297 296 295 292 292 292 293 292 292 291 290 291 290 290 289 290 289 289 290 289 290 290 290 290 290 291 293 294
302 301 301 300 299 298 298 297 296 296 297 298 300 299 298 298 297 296 294 293 291 292 292 291 291 290 290 289 290 289 288 288 288 288 289 289 289 289 289 289 289 290 291
302 302 299 298 298 297 296 296 296 296 296 298 298 297 297 296 296 295 294 292 290 290 291 290 290 290 289 289 288 287 287 287 287 287 288 288 288 288 288 288 288 289 290
300 299 298 297 297 296 296 296 296 297 296 296 296 296 296 295 295 294 293 293 292 291 290 289 289 288 287 287 287 286 286 285 286 286 285 286 286 286 287 288 288 289 290
299 298 298 297 296 295 296 296 296 295 295 295 294 294 294 293 293 292 292 291 289 289 287 286 285 285 286 285 285 285 284 285 284 284 285 285 285 286 286 287 288 288 289
298 298 297 296 295 295 296 295 294 293 294 293 293 292 292 291 291 289 288 287 286 285 284 284 284 284 283 283 283 283 283 283 285 284 284 285 285 285 286 286 286 287 289
298 298 296 295 295 296 295 294 293 293 293 292 292 291 291 290 288 287 287 286 285 283 283 282 282 282 282 282 282 283 283 284 283 284 284 285 285 285 285 286 286 287 287
298 297 296 295 295 295 294 293 293 292 292 292 291 289 289 288 287 287 285 284 284 283 282 282 281 281 281 281 282 282 282 282 283 283 283 283 284 284 285 285 285 287 287
297 296 296 295 295 295 294 293 292 292 291 290 289 288 287 286 285 285 285 284 283 282 282 281 281 280 281 281 282 282 282 282 282 281 282 282 284 284 284 284 285 285 286
297 296 295 295 294 294 294 293 292 292 290 289 288 287 286 286 285 285 284 283 283 282 281 281 280 280 281 281 281 282 281 280 280 280 281 282 282 282 283 284 284 286 287
296 295 295 294 294 294 293 293 291 290 289 288 287 286 286 286 285 284 283 282 281 280 280 280 280 280 281 281 281 280 280 280 280 281 282 281 282 283 283 284 285 286 286
295 294 294 294 294 294 293 293 292 290 288 287 286 286 286 285 285 284 283 282 281 279 278 279 279 280 279 279 280 280 280 280 280 281 281 282 282 283 284 284 284 285 286
294 295 294 294 293 293 293 293 291 290 287 286 285 286 285 285 284 283 283 281 281 277 277 278 279 278 278 279 280 281 281 282 281 282 282 283 283 283 284 284 285 285 285
294 294 294 293 293 292 293 291 290 288 286 286 285 285 285 284 283 282 281 281 278 276 277 278 277 279 279 280 281 282 282 281 281 281 282 283 284 284 284 285 286 285 286
293 293 293 293 292 291 291 291 290 288 286 285 285 284 284 283 282 282 281 279 277 277 277 277 278 278 279 280 280 280 280 281 281 282 283 283 284 284 284 285 285 285 285

GFSMA_925_thetae_042.txt.gz
Theta_e
327 324 322 320 318 315 314 314 313 312 312 310 307 304 303 303 303 302 303 302 304 308 311 309 307 306 306 305 304 304 304 305 305 306 306 306 307 308 307 308 309 310 313
323 320 319 316 314 315 314 314 312 310 308 306 304 301 303 302 301 301 301 301 305 306 308 307 305 305 305 304 303 303 303 304 303 304 306 306 305 305 305 305 306 307 308
322 320 317 316 314 313 313 312 310 309 307 305 301 301 301 300 301 300 301 301 305 306 305 304 304 304 303 303 303 303 302 303 303 306 305 304 303 303 303 303 304 304 305
321 320 318 316 314 313 312 311 309 308 305 302 301 301 300 299 299 299 299 300 304 305 304 299 301 301 301 301 301 301 301 301 302 301 303 302 302 301 301 302 303 303 303
321 319 316 313 313 312 310 309 307 305 303 302 301 300 299 299 298 298 297 298 297 299 298 297 296 296 297 298 298 298 298 298 299 301 300 301 300 300 299 299 301 302 303
316 315 313 312 310 309 308 306 304 303 303 302 301 300 300 299 297 298 297 296 296 295 295 294 294 295 295 296 296 296 296 296 298 297 297 297 298 297 297 297 298 301 301
314 313 312 310 309 308 306 304 303 303 302 301 300 300 299 298 298 298 297 296 296 295 295 294 293 293 292 292 292 294 294 294 295 295 295 295 295 295 296 296 296 297 299
314 313 311 310 308 307 305 304 303 303 302 301 301 298 296 298 298 298 296 296 296 295 294 293 293 292 291 291 292 292 293 293 293 293 293 294 294 294 294 294 295 295 297
313 312 311 309 308 306 305 304 303 303 302 302 301 300 296 295 295 297 297 295 295 295 294 293 293 293 292 290 290 291 290 291 292 293 293 293 293 293 293 294 294 294 295
312 312 309 307 306 305 304 304 303 302 301 302 301 300 299 298 295 293 295 296 295 294 294 293 293 292 290 290 290 290 290 289 290 291 291 292 292 292 292 293 293 293 295
311 309 308 306 305 304 302 301 300 299 299 300 300 300 299 298 298 294 291 293 295 295 293 293 293 292 290 290 290 289 289 290 289 290 291 291 291 291 291 291 292 292 292
310 308 306 305 303 301 299 298 297 297 296 296 298 299 299 297 296 295 292 293 292 293 293 293 292 291 290 290 290 289 289 288 288 288 289 289 290 290 290 290 291 291 291
305 302 301 300 299 298 297 296 296 296 296 296 297 298 298 297 297 297 295 293 291 292 292 292 291 290 289 289 288 287 287 287 287 287 287 288 288 288 288 289 289 290 290
301 300 299 298 297 296 296 295 295 296 296 296 296 296 296 296 296 296 295 293 292 290 290 290 289 288 287 286 286 286 286 286 285 286 286 286 286 286 287 287 288 288 289
300 299 297 298 298 296 295 295 296 296 295 294 295 295 295 295 294 294 293 292 291 291 288 288 286 285 285 285 285 285 285 284 285 285 285 285 286 286 286 287 288 288 288
300 299 299 298 297 295 295 296 295 294 294 293 294 293 293 293 293 292 291 291 288 287 285 285 284 283 282 282 282 282 282 283 282 283 284 285 285 286 286 286 287 287 287
300 300 299 297 296 295 295 295 294 294 293 293 292 292 292 291 290 289 288 287 286 285 283 283 283 282 282 281 280 281 281 282 283 283 284 284 285 285 285 286 286 286 287
300 299 298 296 295 295 295 295 294 293 293 292 292 291 291 290 289 288 287 286 285 283 283 282 282 282 281 280 280 281 281 281 282 282 283 283 283 284 284 285 285 286 286
298 297 296 296 296 295 295 295 294 293 292 292 291 289 288 287 287 287 286 285 284 283 282 282 281 281 280 280 280 281 281 281 281 281 280 281 282 282 285 285 285 285 286
297 297 297 296 295 295 295 294 293 292 292 292 290 289 288 287 286 285 285 284 283 282 282 281 281 280 280 280 280 280 281 281 280 279 280 280 281 282 282 282 282 283 285
297 296 295 294 294 295 294 294 294 293 292 291 290 288 287 286 286 285 284 283 283 282 281 280 279 280 280 280 280 280 280 279 279 280 281 281 281 282 283 283 283 283 284
295 294 294 294 294 294 294 294 293 292 291 290 289 287 286 286 285 285 284 283 282 281 280 278 279 278 278 279 278 278 279 279 280 281 281 281 281 282 282 283 283 283 284
295 294 294 294 294 294 294 293 293 291 290 290 287 286 286 286 285 284 283 282 282 281 280 277 278 278 278 278 279 279 279 280 280 281 281 281 281 282 283 284 284 284 285
294 294 294 294 294 294 293 292 293 291 290 289 286 286 285 285 285 284 283 282 281 281 278 277 278 278 278 279 280 280 281 281 281 280 280 281 282 282 283 283 284 285 285
293 293 294 293 293 293 293 292 292 291 290 288 288 286 285 284 284 283 282 281 281 280 277 278 278 278 278 279 280 280 280 280 280 280 281 281 282 283 283 284 284 285 285
293 292 292 292 292 292 292 292 291 291 290 288 287 286 285 284 284 282 281 282 280 279 278 278 278 278 277 277 277 278 279 279 280 280 281 281 282 283 283 284 284 284 284

GFSMA_925_thetae_045.txt.gz
Theta_e
323 319 320 320 318 315 314 313 312 311 308 306 304 301 302 302 301 300 300 302 304 310 311 309 307 308 306 305 305 304 305 305 305 306 306 305 305 305 305 305 305 306 307
326 323 321 320 316 314 313 312 311 309 308 305 301 300 301 300 300 300 300 301 305 309 309 307 306 306 305 305 304 304 304 303 303 305 305 304 304 303 303 303 303 304 305
325 321 319 315 314 314 312 310 309 308 306 303 301 300 299 299 299 299 301 302 306 308 305 304 304 304 303 303 303 302 302 302 302 302 302 303 302 302 301 301 301 303 303
321 319 316 314 313 312 311 310 309 307 304 302 301 300 299 299 298 298 298 301 305 305 301 299 298 299 299 300 299 300 300 299 299 301 301 300 300 300 300 299 300 300 302
319 317 315 313 312 311 310 309 307 304 303 302 301 300 300 298 298 297 297 297 298 300 297 296 295 296 298 298 297 297 298 298 298 299 299 298 298 298 298 297 298 298 299
317 315 314 313 312 310 309 306 305 303 302 302 300 300 300 298 297 297 297 296 296 296 295 294 294 294 295 295 295 295 296 296 296 296 296 296 296 296 296 296 297 297 297
316 314 313 311 310 309 307 306 303 302 302 301 300 301 299 298 297 298 297 296 297 295 294 294 293 293 292 291 291 294 294 295 295 295 295 294 295 295 294 295 295 295 296
314 313 312 310 309 308 307 304 303 303 302 301 301 298 295 297 297 297 297 297 295 294 294 293 292 292 292 291 290 291 292 292 292 293 293 293 293 294 294 294 294 295 295
314 313 312 310 309 307 305 304 303 303 302 302 301 301 296 295 295 298 296 296 294 295 294 293 293 293 292 290 290 290 290 290 291 291 292 292 293 293 293 293 294 294 294
312 312 311 309 307 305 304 304 303 301 300 300 300 300 299 298 294 294 296 295 296 296 294 295 293 292 291 290 289 290 289 289 290 291 291 291 291 292 292 292 292 293 293
312 310 309 307 305 304 303 300 299 298 298 298 299 299 298 298 297 294 292 294 295 295 296 294 293 292 291 290 289 290 289 289 289 290 290 290 290 290 291 291 291 291 292
310 308 307 305 303 300 298 297 296 296 295 295 296 296 298 298 296 294 290 292 292 294 294 294 292 291 290 289 289 288 288 288 287 288 288 289 289 290 290 290 290 290 290
307 305 302 300 299 299 298 296 295 295 295 296 296 297 298 297 297 296 295 293 293 293 293 293 291 290 288 287 287 286 286 286 286 286 287 287 287 287 287 288 288 288 289
304 300 300 302 302 297 296 296 295 295 296 296 295 294 295 295 295 296 295 294 293 291 290 291 290 288 287 286 285 284 284 284 284 284 285 285 285 286 286 287 287 288 289
300 300 302 298 298 298 299 296 295 296 295 294 293 293 294 295 294 294 294 293 291 290 287 288 287 286 284 283 282 281 282 282 283 283 284 284 285 285 286 286 287 287 288
303 304 299 301 300 298 296 295 295 295 294 293 293 293 293 293 292 292 291 291 291 290 285 286 285 284 282 282 281 280 280 281 281 282 283 283 284 285 285 286 286 286 287
302 300 302 301 298 295 295 295 295 294 293 293 292 292 292 291 291 290 289 288 287 285 284 284 283 283 282 282 280 280 280 281 281 281 282 283 283 283 283 284 285 286 286
300 302 300 298 296 295 295 295 294 294 294 293 292 292 291 290 290 288 287 287 285 284 283 282 282 282 282 281 279 280 280 280 281 281 281 281 281 282 282 283 284 286 286
301 299 297 296 296 295 295 295 294 294 293 292 292 292 291 289 288 287 286 285 284 283 282 281 281 281 280 279 279 280 280 280 280 280 280 280 281 281 282 283 284 284 284
299 297 296 296 295 294 294 294 294 294 293 292 292 291 289 289 288 286 285 285 284 283 282 282 281 280 279 279 279 280 279 279 279 279 280 281 281 281 282 282 282 283 284
296 295 295 295 294 294 294 294 294 294 293 292 291 290 288 287 286 286 285 285 283 283 282 281 279 278 278 278 279 278 278 278 279 280 280 281 280 281 281 282 283 283 283
297 298 297 295 295 294 294 294 294 294 293 292 291 290 289 287 286 285 285 284 283 282 281 280 279 277 277 278 278 277 278 278 279 280 280 280 280 281 281 282 283 283 284
298 297 296 294 294 294 294 294 293 293 293 292 290 290 289 286 286 285 284 283 282 282 281 280 277 277 278 278 278 278 279 279 280 280 280 280 280 281 282 282 283 283 284
296 294 293 293 293 293 293 293 293 292 292 290 289 288 286 286 286 285 284 283 282 281 281 279 277 278 278 278 279 279 280 279 279 279 279 279 280 281 282 283 284 284 285
293 293 293 293 292 292 292 292 292 292 291 290 291 291 286 288 285 284 284 282 281 281 281 278 278 278 278 278 278 278 278 278 278 279 279 280 281 280 282 284 284 284 284
292 292 292 292 292 291 292 291 292 291 291 291 290 289 287 286 285 284 283 282 281 281 279 278 278 278 278 278 278 277 277 277 278 278 280 279 280 281 283 284 284 284 284

GFSMA_925_thetae_048.txt.gz
Theta_e
316 317 317 318 317 314 314 312 311 310 308 304 301 300 300 299 299 299 299 302 307 310 312 309 308 307 306 305 305 304 305 304 304 305 304 304 304 303 303 303 303 303 305
319 319 318 318 315 313 312 312 310 308 307 303 300 299 299 298 299 299 300 303 306 310 309 307 306 306 306 305 304 303 303 303 303 302 303 303 303 301 302 301 301 302 303
325 320 320 317 314 313 312 310 309 308 305 302 300 300 299 299 299 300 302 306 308 307 305 305 305 304 302 303 302 301 301 301 301 301 302 301 300 300 300 299 299 300 301
325 323 319 315 313 312 311 310 309 306 304 301 300 300 300 298 298 298 300 305 306 303 301 299 298 297 298 299 299 300 299 299 299 299 300 300 298 299 298 298 298 299 299
323 319 316 314 313 311 311 309 307 305 302 301 301 300 299 297 297 297 297 297 297 299 299 297 295 295 297 298 297 297 297 297 297 298 298 297 296 297 297 297 297 297 298
319 316 315 314 313 311 309 307 306 303 302 301 300 300 300 297 297 297 297 296 297 296 295 295 294 294 294 294 295 295 296 296 297 297 296 296 296 296 296 295 295 296 296
318 316 315 314 312 310 308 306 304 302 302 301 300 300 299 298 297 297 296 296 297 296 295 294 294 294 293 292 291 293 294 294 294 294 295 295 295 295 295 295 295 295 295
317 315 314 312 309 308 307 305 303 302 302 301 300 298 296 297 297 297 297 296 297 294 294 293 292 292 292 292 291 291 292 292 292 293 293 293 294 294 294 294 294 294 295
315 313 312 310 309 307 305 303 303 303 302 301 301 300 296 296 295 297 297 296 295 294 296 294 293 293 292 291 290 290 290 289 291 292 292 292 293 293 293 293 293 293 294
313 312 311 309 307 305 304 303 303 301 300 299 299 300 299 298 295 295 296 296 294 295 296 295 295 293 292 290 290 289 289 290 290 291 291 292 291 291 292 292 292 293 293
313 312 309 306 305 304 303 301 298 297 296 296 297 298 298 298 297 294 293 295 296 296 296 295 295 292 291 290 289 289 290 289 288 289 290 290 291 290 291 291 291 291 292
310 309 307 306 304 302 299 298 300 297 295 295 295 295 296 297 296 295 291 291 292 294 293 293 294 291 290 289 287 287 286 287 286 287 288 288 289 289 289 289 289 290 290
309 307 305 303 300 299 303 301 296 296 295 295 295 296 296 296 297 296 295 293 292 293 292 292 292 291 290 287 287 286 285 284 283 284 285 286 286 287 287 287 288 288 289
308 304 303 299 300 303 298 300 300 299 295 295 295 294 293 293 295 295 295 294 293 293 290 291 291 290 289 287 286 283 282 281 281 282 284 285 285 285 286 286 287 288 288
305 305 304 302 303 300 303 301 297 295 295 295 294 293 292 293 294 294 294 294 292 291 288 289 289 288 287 284 283 282 281 280 281 282 283 283 284 284 285 286 286 287 287
308 303 302 303 300 302 300 296 295 295 295 294 294 293 292 293 293 293 292 291 291 290 288 288 286 285 284 283 282 281 279 280 280 280 282 283 283 283 284 284 285 285 286
302 302 302 300 302 298 297 295 295 295 294 294 293 292 292 292 292 291 290 290 289 289 286 285 284 283 282 282 281 279 279 279 280 280 281 282 282 282 282 282 283 283 285
302 303 301 302 299 297 295 295 295 295 294 293 293 292 292 291 291 290 289 288 287 286 284 283 283 282 282 281 280 278 278 279 280 279 281 281 281 282 282 283 283 283 284
302 300 300 299 298 295 295 296 295 294 294 294 293 292 292 291 291 289 288 287 286 285 284 282 282 281 281 280 279 278 279 279 278 279 279 280 281 281 282 282 283 283 283
300 299 299 296 295 296 296 294 294 294 294 294 293 292 292 291 290 288 287 286 285 284 283 282 281 281 280 280 277 278 278 278 278 279 280 280 280 280 280 281 281 282 283
298 295 295 296 297 296 295 294 294 294 294 293 293 292 291 290 290 288 287 286 285 284 283 282 281 280 279 278 277 278 277 278 278 279 280 280 280 280 280 281 282 282 283
297 296 297 298 297 296 294 294 293 293 293 293 293 292 291 290 289 288 286 285 285 284 283 281 280 279 279 277 277 277 277 278 279 279 280 279 279 279 280 281 282 282 283
299 299 298 297 295 293 293 293 293 293 293 293 293 292 290 289 288 287 285 286 284 283 282 281 280 280 277 277 278 278 278 278 279 279 279 279 279 279 280 281 282 283 283
297 296 295 294 293 293 293 292 292 292 292 292 292 291 290 289 289 286 287 285 284 283 282 281 280 279 277 278 279 278 278 278 278 278 278 278 279 279 279 281 283 284 284
294 293 292 292 292 292 292 291 291 291 291 292 291 291 290 289 290 286 286 284 284 283 282 281 280 278 279 279 279 278 277 277 277 277 277 278 280 279 279 281 283 283 283
292 292 291 291 291 291 291 291 291 291 291 291 291 290 289 289 289 287 285 284 283 283 282 281 279 278 278 278 278 278 277 277 277 276 278 278 278 279 280 281 282 281 282

GFSMA_925_thetae_051.txt.gz
Theta_e
315 315 315 314 314 313 313 312 310 308 306 303 301 300 299 298 299 299 300 303 306 312 312 309 310 307 307 306 305 305 304 304 304 303 304 304 303 302 301 302 301 302 303
315 316 317 316 314 313 313 312 309 308 306 303 300 299 299 299 299 300 305 307 306 311 309 308 308 307 306 305 304 303 303 303 302 302 302 302 302 301 301 300 300 300 301
316 317 317 316 314 313 312 310 309 308 305 301 300 299 299 298 299 299 302 306 308 309 306 306 306 303 303 303 302 301 301 300 301 301 300 302 300 299 300 299 299 299 300
324 318 318 317 315 312 311 310 309 306 303 302 301 300 299 298 298 299 303 306 305 305 304 302 300 298 297 299 299 299 298 299 299 299 299 299 298 298 297 298 298 298 298
325 323 319 317 313 311 311 310 307 305 303 302 301 301 300 299 297 297 297 298 299 299 298 298 295 295 296 297 297 297 297 298 298 299 299 298 298 298 297 297 296 296 297
324 322 318 315 312 311 310 308 306 303 302 302 301 301 300 298 297 298 297 296 297 297 295 295 296 296 294 294 294 295 296 297 297 297 297 297 297 296 296 296 296 296 296
321 319 316 314 312 311 310 307 305 303 303 302 302 302 301 299 298 298 297 296 297 297 295 295 295 295 294 293 292 292 295 295 295 295 295 295 295 295 295 296 296 296 296
320 317 315 314 312 310 307 305 304 303 302 301 303 302 303 301 299 298 297 296 297 296 294 295 294 293 293 293 292 292 292 293 293 294 294 294 294 294 294 294 295 295 295
318 317 314 313 311 308 306 304 303 303 304 301 301 301 302 301 299 299 298 297 297 296 295 296 294 293 293 293 292 292 291 289 292 293 293 293 293 293 293 294 294 294 294
317 315 313 311 309 307 306 304 303 303 301 301 299 299 300 300 299 299 298 298 297 296 296 296 295 294 293 292 291 290 290 290 290 291 291 292 292 292 293 293 293 293 293
314 313 311 310 307 306 305 304 302 299 300 298 298 299 299 298 298 299 298 297 297 297 296 296 295 293 292 290 291 290 288 287 287 288 289 290 290 291 291 291 291 291 292
313 312 310 308 307 306 304 300 299 301 296 295 296 297 297 297 297 297 297 297 297 296 295 294 293 293 291 289 288 287 286 286 285 284 286 287 287 288 288 289 289 290 290
311 311 310 307 306 304 301 300 300 300 299 297 296 297 297 296 296 296 296 296 296 295 294 293 293 291 289 288 287 287 285 285 283 282 283 284 285 286 287 287 288 288 289
312 310 308 307 306 304 300 301 303 299 297 295 295 295 296 295 295 295 295 295 296 294 293 292 292 291 289 288 287 286 285 283 282 281 282 284 284 285 286 286 287 287 288
311 310 308 304 302 301 300 303 300 296 294 295 295 294 295 294 294 294 295 295 294 295 293 291 291 290 289 287 286 284 284 283 281 280 282 282 283 284 284 285 285 286 286
310 308 301 301 301 299 303 299 296 295 295 295 295 294 294 294 294 294 294 293 293 292 292 290 289 288 287 285 284 283 283 281 281 280 280 282 282 283 284 284 284 284 284
306 301 301 302 301 302 299 296 296 297 295 295 294 294 294 294 293 293 293 292 291 291 291 290 288 286 285 284 284 283 282 281 281 281 281 281 282 282 282 282 283 283 284
304 302 302 301 302 299 296 297 299 296 296 295 295 294 294 293 293 292 292 291 290 289 289 288 287 285 284 284 283 282 281 280 281 281 280 281 281 281 282 283 283 283 284
303 302 301 301 298 297 298 297 296 296 296 295 294 294 294 293 292 292 291 290 289 288 287 286 286 285 284 283 282 282 280 281 280 280 280 280 281 281 282 282 282 283 283
301 301 300 299 300 297 296 296 296 295 294 294 294 294 293 293 292 292 291 290 288 288 287 286 285 285 284 283 282 281 281 281 280 280 281 281 280 281 281 281 281 282 283
299 299 298 297 296 295 297 297 296 295 294 294 294 293 293 293 292 292 290 290 288 287 286 286 286 285 284 283 282 280 280 280 281 281 281 281 281 281 282 282 282 283 283
296 296 297 296 296 298 298 296 294 294 294 293 294 293 293 293 292 291 289 288 288 287 286 286 285 285 284 283 281 280 280 280 281 281 281 281 281 281 282 282 282 281 282
297 297 297 298 297 297 295 293 292 292 293 293 293 293 292 291 292 290 288 289 287 286 286 285 285 284 283 282 280 280 280 280 281 280 280 280 281 281 282 282 282 282 283
298 297 296 296 295 293 292 292 292 291 292 292 291 291 291 291 290 289 288 288 287 287 285 284 283 283 282 280 279 280 280 280 280 280 280 280 280 281 281 281 282 283 283
296 295 293 292 292 291 291 291 291 291 291 291 291 291 291 290 290 290 288 287 286 286 284 284 283 282 281 279 279 280 280 280 280 280 280 280 280 280 280 281 283 283 283
291 291 291 290 290 289 289 289 289 290 290 290 290 290 290 290 290 290 287 287 286 286 284 282 282 281 280 280 279 279 280 280 280 280 279 279 279 280 280 281 282 282 283

GFSMA_925_thetae_054.txt.gz
Theta_e
320 319 320 318 317 315 314 313 311 310 309 308 306 305 304 304 305 305 307 303 306 314 312 310 310 308 307 306 305 305 305 304 303 303 303 303 303 302 302 302 301 301 302
321 320 319 318 316 315 314 313 312 311 309 308 306 304 304 303 305 306 307 308 307 313 311 309 309 308 307 306 304 303 303 303 302 302 301 303 302 300 301 300 300 300 301
321 320 319 316 315 315 314 312 311 310 309 307 305 304 303 303 304 305 305 307 308 311 309 307 307 305 304 304 302 301 301 300 301 300 300 301 300 299 299 299 299 299 299
321 320 319 319 317 315 313 311 311 312 310 308 306 304 303 302 302 302 305 306 306 306 306 306 304 301 298 299 299 300 299 299 299 300 300 300 299 299 299 298 298 298 298
325 321 320 319 316 314 311 310 312 312 309 307 305 305 304 303 302 300 302 304 303 301 300 300 298 296 296 297 298 298 298 298 299 299 299 299 299 298 298 298 298 297 298
326 324 322 320 314 312 310 311 311 310 309 307 304 305 306 304 302 301 301 300 300 300 299 298 299 299 296 295 294 295 296 297 298 299 298 297 297 297 297 297 297 297 297
324 324 322 318 314 312 312 310 311 310 308 307 308 309 307 305 303 301 301 300 300 300 299 298 298 298 297 295 294 293 295 296 297 297 296 296 296 296 296 296 296 296 297
321 321 320 317 315 314 310 309 310 310 309 307 309 308 311 308 304 302 301 301 300 300 299 298 297 297 297 296 296 294 293 293 294 295 295 295 295 295 295 295 295 296 296
319 318 318 317 316 312 309 310 311 310 310 307 306 307 310 310 306 304 302 301 300 300 299 298 298 298 297 296 296 295 293 292 291 293 294 294 294 294 294 294 295 295 295
318 318 317 316 314 311 311 311 310 309 309 307 306 304 303 303 306 306 303 301 301 300 299 299 299 298 297 296 295 294 292 291 290 290 291 292 292 293 293 293 293 294 294
319 316 315 314 312 313 312 310 309 308 305 304 303 300 303 303 302 302 302 300 299 299 299 299 298 297 296 295 294 294 292 288 287 287 287 288 289 289 290 290 291 291 292
318 315 312 312 311 311 311 310 308 304 303 301 298 299 303 302 301 299 300 299 299 298 298 297 296 295 295 294 293 291 288 287 287 285 286 286 286 287 288 288 289 290 290
315 313 312 312 312 311 308 307 304 303 301 298 298 301 299 298 298 298 298 298 298 297 297 296 295 295 294 292 292 290 288 287 286 285 284 284 285 286 286 287 288 288 289
316 313 312 311 309 307 305 303 303 300 300 299 299 298 298 298 298 297 296 296 298 297 296 296 295 294 293 292 291 289 288 287 286 284 282 283 284 284 285 286 286 287 287
315 312 310 309 307 303 303 301 301 301 297 297 298 299 298 298 297 296 296 296 296 298 297 295 294 293 292 291 290 288 287 286 285 283 282 283 283 283 284 285 285 286 286
316 312 311 309 303 302 301 301 300 296 295 295 300 299 298 297 296 296 296 295 295 295 296 294 293 292 291 290 289 287 286 286 284 283 282 282 282 283 283 284 284 284 284
315 311 310 304 302 301 300 301 296 295 295 300 300 298 297 297 296 296 295 295 294 294 294 293 293 292 290 289 288 287 286 285 284 283 282 282 282 282 282 283 283 283 284
311 306 304 303 301 300 302 298 296 296 299 299 298 297 297 296 296 296 295 295 294 294 293 293 292 291 290 289 288 287 286 285 284 284 283 282 282 281 282 282 283 283 284
306 303 303 302 300 301 297 297 298 300 299 299 298 297 297 296 296 296 295 294 294 293 292 292 291 291 290 289 288 287 286 284 284 284 282 282 282 282 282 282 283 283 283
303 302 301 301 300 297 299 299 298 298 299 298 297 297 296 296 296 295 295 294 294 293 292 292 291 290 289 289 288 287 286 284 284 284 284 283 283 283 282 283 283 283 283
301 301 300 299 299 300 298 297 297 298 299 297 296 296 296 296 295 295 294 294 293 293 292 291 291 290 289 288 288 287 285 284 284 284 284 284 284 284 284 283 284 283 284
299 299 298 299 298 297 296 297 297 297 296 296 296 296 295 295 295 294 293 292 292 292 292 291 290 289 289 288 287 286 285 284 285 284 284 284 283 284 284 284 284 283 282
299 299 298 297 297 296 297 297 294 293 294 294 295 295 294 294 293 293 293 293 291 290 289 291 290 289 289 288 286 285 284 284 284 284 283 283 283 283 284 284 283 283 283
299 299 298 298 298 297 295 293 291 292 293 293 293 293 293 293 293 293 293 292 292 290 290 289 287 288 288 287 285 284 283 283 283 283 283 283 283 283 283 283 283 283 283
298 297 296 295 294 294 293 291 289 290 291 291 292 292 292 292 292 292 292 292 292 291 291 289 288 287 285 284 283 283 283 283 284 284 283 283 283 282 283 283 283 284 283
293 293 292 292 292 291 292 291 290 290 291 291 291 291 291 291 291 290 291 291 291 291 291 289 286 285 284 283 282 281 282 283 283 284 283 282 282 282 283 282 283 282 283

GFSMA_925_thetae_057.txt.gz
Theta_e
322 320 320 320 319 319 318 317 316 314 313 311 310 308 307 307 308 308 311 300 307 315 313 313 311 309 308 307 306 305 305 304 303 303 303 303 304 302 301 301 301 301 301
321 321 322 321 320 319 318 317 317 315 314 312 309 307 306 306 307 308 310 307 307 315 312 310 311 309 308 307 305 304 303 303 302 302 302 302 302 300 300 301 300 300 300
324 322 321 321 320 319 318 317 316 315 314 311 309 307 306 306 306 307 307 310 307 312 311 309 309 307 305 305 304 302 302 301 301 301 301 301 301 300 300 300 299 299 299
323 322 322 321 320 319 318 317 316 316 315 312 310 308 307 306 305 305 307 308 308 309 307 308 307 306 302 300 300 301 300 300 300 301 301 301 301 301 300 300 300 299 299
324 323 322 322 321 320 318 315 316 316 315 312 310 309 309 307 306 304 304 307 306 303 303 303 300 299 299 296 297 298 299 299 299 300 300 300 300 299 299 299 298 298 298
329 325 324 324 322 319 316 315 316 314 315 312 308 308 310 309 307 306 305 304 303 303 302 302 301 300 299 297 296 296 297 298 299 299 300 299 298 298 298 297 297 298 297
328 328 327 325 322 318 317 315 314 313 312 311 311 312 312 311 309 306 305 304 303 303 302 302 301 300 299 297 297 295 296 297 297 298 298 298 297 297 297 297 297 297 297
327 327 327 325 322 319 317 315 313 313 313 312 312 312 314 313 308 307 305 305 304 303 303 301 300 300 299 299 298 296 295 295 295 296 296 296 296 296 296 296 296 297 297
324 324 324 323 321 319 318 315 314 312 313 312 311 312 314 314 310 309 307 305 305 304 303 302 300 300 300 299 299 298 296 294 293 293 294 294 294 294 295 295 295 295 295
322 322 322 321 321 320 317 314 312 313 314 313 311 310 307 306 308 310 308 306 304 303 303 302 301 301 300 299 298 297 296 294 293 291 291 291 292 292 292 292 293 293 293
322 323 320 320 320 318 314 313 313 314 313 312 308 305 304 306 307 307 308 305 303 302 301 301 301 300 299 298 297 296 294 293 291 290 288 289 290 289 289 289 290 291 291
322 322 321 320 319 315 312 313 314 313 310 306 305 302 301 305 306 305 305 303 302 302 301 300 300 298 298 297 296 294 293 292 290 288 287 287 287 287 287 288 289 289 290
324 322 320 316 315 313 313 314 313 311 306 305 301 300 301 302 301 301 301 301 301 300 300 299 299 298 297 296 295 294 292 291 289 288 287 287 286 286 286 287 287 288 288
325 321 317 315 313 313 313 312 310 306 303 301 301 300 299 299 301 301 301 300 301 299 299 299 298 297 296 295 295 293 292 291 289 287 286 286 285 285 285 285 286 287 287
323 318 316 314 312 312 311 309 305 302 301 300 297 299 299 301 301 300 299 299 298 301 300 298 297 296 295 295 294 293 292 290 289 287 286 285 284 284 285 285 285 286 286
319 316 315 313 311 311 306 304 301 301 299 297 298 300 301 302 300 299 299 298 298 297 299 296 296 295 295 294 293 291 291 289 288 288 286 285 283 284 284 284 284 284 285
316 313 313 311 310 305 302 301 302 299 298 297 299 301 302 300 300 299 298 298 297 296 297 296 295 295 294 294 293 292 291 290 289 288 286 284 283 284 283 283 283 283 284
314 312 310 307 305 303 302 301 299 298 297 298 300 302 300 300 299 299 298 298 297 296 296 296 295 295 294 293 292 292 291 289 288 287 286 285 284 283 282 283 283 283 284
309 306 305 304 302 301 300 299 298 299 299 300 301 301 300 299 299 299 298 297 297 296 296 296 295 294 294 292 292 291 290 289 289 287 285 285 284 284 283 283 283 283 284
304 304 302 301 300 300 300 299 299 299 300 299 299 300 299 299 298 298 298 297 297 296 296 295 295 294 293 292 292 291 290 289 288 287 286 286 285 285 285 285 284 284 284
302 301 300 300 300 300 299 300 299 298 298 299 299 299 299 298 297 297 297 296 296 296 295 295 295 294 293 292 291 290 290 289 288 287 286 286 286 286 285 285 285 285 285
301 300 300 299 300 299 298 298 297 296 298 298 297 297 297 297 296 296 296 295 295 295 295 295 294 294 293 292 291 290 290 288 288 286 286 286 286 285 285 285 285 284 284
301 300 300 300 299 299 298 298 297 296 295 295 295 295 295 295 295 295 295 294 294 294 294 293 293 293 292 292 291 290 289 288 287 286 285 285 285 285 285 285 285 284 284
302 301 300 300 300 300 296 294 293 292 292 293 293 293 293 293 294 294 293 294 294 293 293 293 291 291 291 291 290 289 288 287 285 285 285 286 285 285 285 284 284 284 284
301 300 298 297 296 296 293 292 291 292 292 292 292 292 292 292 292 292 291 292 292 292 292 292 292 291 291 289 288 288 287 286 286 285 285 285 285 284 284 284 284 284 284
296 295 294 294 294 294 292 289 288 288 287 287 288 288 287 287 287 287 288 290 291 291 291 291 291 290 289 288 288 286 285 285 285 286 285 285 285 284 284 284 284 284 283

GFSMA_925_thetae_060.txt.gz
Theta_e
321 316 317 317 316 317 316 317 316 314 313 311 309 307 307 307 308 310 309 305 315 315 314 313 311 309 308 307 306 305 304 304 303 303 303 303 303 302 301 301 301 301 301
322 318 320 319 319 319 318 318 316 315 314 312 309 307 307 307 308 309 311 308 302 315 313 313 312 310 310 308 306 304 303 303 302 302 302 302 302 302 301 301 301 300 300
321 322 323 322 321 320 319 318 317 315 314 312 310 307 307 307 307 307 308 310 307 307 313 310 309 309 307 305 305 303 302 302 301 301 302 302 302 302 302 301 301 301 300
322 322 322 321 321 319 318 318 317 316 315 313 310 308 307 306 306 306 308 309 310 309 308 309 308 307 307 305 302 302 301 300 300 301 301 301 301 301 300 300 300 300 299
323 321 323 322 321 319 319 318 317 317 316 314 311 309 309 307 307 306 305 307 307 306 308 307 305 301 299 298 298 297 299 299 299 300 301 301 301 300 300 299 299 299 299
322 323 323 322 321 320 320 318 316 316 316 315 312 309 310 309 308 307 306 305 305 304 303 303 302 301 300 298 298 297 298 298 299 300 300 300 299 299 298 298 298 298 298
326 326 324 324 323 322 320 317 316 316 315 313 311 310 310 311 310 308 306 305 304 303 303 303 302 301 300 299 299 299 297 297 298 298 298 298 297 298 297 298 298 298 298
326 326 326 326 325 322 319 317 315 315 314 312 312 312 312 313 311 310 307 306 305 304 303 303 302 301 300 300 299 298 298 298 297 296 296 296 296 296 296 296 296 296 296
326 327 327 326 325 324 321 317 316 314 313 313 312 313 313 312 309 309 308 306 306 304 304 303 302 300 300 301 300 299 298 297 296 295 294 295 294 294 294 294 294 294 294
326 326 325 324 323 323 321 319 317 314 314 313 312 311 311 307 307 308 308 307 306 305 304 303 303 301 301 301 300 298 298 296 295 294 293 292 292 292 292 291 291 291 292
326 324 323 322 321 322 321 320 317 315 313 314 312 310 308 306 306 307 307 307 306 305 304 303 302 302 301 300 298 297 297 296 295 293 292 290 290 290 290 290 290 290 291
325 323 322 322 322 322 321 318 316 314 312 313 309 308 306 304 305 304 304 304 303 303 302 301 301 301 300 299 298 297 296 294 293 292 291 289 289 289 289 288 288 289 289
325 324 322 321 321 320 320 318 313 312 311 307 307 304 301 302 302 303 302 302 302 302 301 300 300 300 299 298 297 296 295 294 293 291 290 288 288 288 288 287 287 288 288
326 324 323 322 320 319 318 316 313 312 312 308 304 301 301 302 302 301 302 302 299 300 300 300 300 299 298 298 296 296 295 293 292 291 290 288 288 288 287 286 286 287 287
327 324 323 321 319 316 314 313 312 312 310 305 301 303 302 303 302 302 301 300 300 297 297 299 298 298 296 296 295 295 294 293 292 290 290 289 288 287 286 285 285 286 286
325 323 321 320 317 314 311 311 311 307 304 302 303 302 302 302 301 301 302 300 299 299 297 298 298 297 296 295 295 294 293 292 291 290 290 289 288 286 285 285 285 284 285
323 322 320 316 314 311 310 309 305 303 302 301 301 301 302 301 301 302 300 300 299 299 297 297 297 296 296 295 295 294 293 292 291 290 289 288 287 286 286 284 283 283 284
321 319 315 312 310 309 306 305 302 302 301 301 301 299 300 302 302 301 300 299 299 299 298 296 296 296 296 295 295 294 293 292 291 290 289 289 288 286 285 284 284 284 284
315 311 309 308 307 306 304 302 302 301 301 300 300 300 302 301 300 300 299 299 299 298 298 298 297 296 296 295 294 293 292 292 291 290 289 289 287 286 285 285 285 285 284
309 307 306 305 304 303 302 302 301 299 300 300 300 300 299 299 299 299 299 299 299 298 298 297 297 296 296 295 294 293 292 291 291 290 289 288 287 286 286 286 285 285 285
304 304 303 302 301 301 301 299 298 299 299 298 299 298 299 299 299 299 298 298 297 297 296 296 295 294 294 294 294 293 292 291 290 290 289 287 286 286 286 285 285 285 285
302 301 301 301 300 299 299 299 298 298 297 298 298 296 296 296 296 296 296 296 295 295 295 295 295 294 294 293 293 293 292 291 289 289 288 286 286 286 285 285 285 285 285
301 300 299 299 300 299 299 298 297 297 296 294 294 293 294 294 294 294 294 294 293 293 293 294 293 293 293 293 293 292 291 290 289 288 287 285 285 285 285 286 285 285 284
301 301 301 300 300 300 299 296 293 292 292 292 292 292 291 290 289 289 288 288 288 289 291 292 292 292 292 292 292 292 291 290 288 287 286 285 285 285 286 285 284 284 284
301 301 300 299 295 293 292 292 291 290 289 288 287 288 287 287 286 286 286 286 287 287 288 289 290 291 291 291 291 291 290 288 287 286 286 285 285 285 285 284 284 284 284
298 296 295 295 294 292 290 289 287 286 285 285 284 283 283 284 284 284 284 285 285 284 284 285 286 286 288 290 291 290 288 287 286 285 285 285 285 285 284 283 284 283 283

GFSMA_925_thetae_063.txt.gz
Theta_e
314 314 314 314 315 315 316 317 316 314 311 309 308 307 307 308 309 309 306 305 316 315 314 313 311 310 309 307 306 305 304 304 303 303 303 303 303 302 302 302 302 301 301
315 315 315 315 316 317 317 317 317 314 312 312 308 307 307 307 308 310 308 306 312 314 314 313 312 311 310 308 306 304 303 303 302 302 302 303 303 302 302 302 302 302 302
318 317 320 319 319 319 318 318 316 315 313 312 310 307 306 307 307 308 309 308 305 307 311 311 312 311 309 307 306 304 303 302 301 302 302 302 302 302 301 301 301 300 300
320 321 323 322 321 319 319 318 317 315 314 312 310 307 307 306 306 306 308 309 309 307 312 311 308 308 307 307 305 303 302 301 300 301 301 302 302 301 301 300 300 299 299
322 321 322 322 322 320 319 318 317 316 315 314 310 308 307 307 306 306 307 308 308 308 309 310 309 306 303 299 300 300 299 299 300 300 301 301 301 300 300 299 299 298 299
322 323 322 323 322 320 319 319 317 317 316 316 312 311 309 309 307 307 305 305 306 305 303 303 303 302 301 300 298 298 299 299 299 300 299 299 299 299 298 298 298 298 298
322 323 322 323 322 322 320 319 319 317 316 316 314 310 309 310 309 307 307 306 305 304 303 303 303 302 301 300 299 300 300 300 299 299 299 298 297 297 297 297 297 297 297
324 324 322 323 323 323 321 320 319 317 316 316 312 311 311 311 310 309 308 307 305 304 303 303 303 302 301 300 300 300 301 300 300 298 297 296 296 296 295 295 295 295 295
323 324 324 322 323 324 322 321 320 316 316 315 313 312 311 311 309 310 310 308 306 305 305 304 303 303 301 300 300 300 299 299 298 297 296 295 295 294 294 293 293 293 293
324 326 325 324 323 324 324 323 319 317 316 314 314 312 309 307 306 306 309 309 308 306 305 304 304 303 302 300 300 300 299 298 297 296 295 295 293 293 292 292 292 292 292
324 325 325 326 325 325 324 322 319 317 316 315 314 312 309 309 308 306 306 307 307 306 306 305 305 303 302 301 301 299 298 298 297 296 295 293 292 292 291 291 291 291 290
324 325 325 325 325 323 322 322 320 319 316 316 314 313 310 306 305 304 304 304 303 305 303 302 302 302 302 301 301 300 298 297 297 295 294 293 291 291 291 291 290 289 289
326 326 326 324 323 322 322 322 320 317 316 313 312 311 308 306 302 303 303 302 301 302 302 301 300 300 301 301 300 299 298 297 296 295 293 292 291 290 290 290 289 288 288
325 325 325 324 322 321 321 320 318 316 313 312 312 310 308 304 304 305 302 302 299 299 300 300 299 299 299 298 299 298 297 296 295 294 292 292 290 289 289 289 288 287 287
325 326 325 323 322 321 320 318 316 313 312 311 308 305 304 304 305 304 303 302 300 299 295 299 299 298 298 297 296 297 296 295 294 293 292 291 290 289 289 289 288 287 286
326 326 324 323 322 319 317 315 313 312 311 307 305 304 304 304 303 302 302 301 301 299 297 298 298 298 298 297 296 295 295 295 294 293 292 291 290 289 288 287 286 286 285
325 326 325 322 319 317 314 313 312 310 306 305 304 303 302 302 301 301 301 302 301 300 298 298 298 298 297 297 296 296 295 294 293 292 291 291 290 289 288 288 286 285 284
323 322 321 319 316 314 312 311 309 305 304 303 301 301 301 300 301 301 302 301 301 300 299 298 297 298 297 297 297 296 296 294 293 292 291 290 289 290 289 287 286 285 285
320 317 317 315 312 310 308 307 306 303 302 301 301 300 300 301 300 300 300 300 299 298 299 298 297 297 297 297 296 296 295 294 293 293 291 291 290 289 287 286 286 286 285
316 314 312 310 308 307 305 303 302 301 300 300 300 300 300 299 299 299 299 299 298 299 298 298 297 297 296 296 295 295 295 294 293 293 291 290 290 288 287 286 286 286 285
310 309 307 306 305 304 303 302 301 300 300 300 299 298 298 298 297 296 296 295 295 295 295 295 294 294 294 294 294 294 293 293 292 291 292 290 289 288 287 286 286 285 285
306 305 304 303 302 301 301 300 299 300 299 297 297 295 294 293 293 293 293 292 290 288 289 290 291 292 292 293 293 293 292 291 291 291 291 289 289 286 286 286 285 285 285
302 302 301 301 300 300 300 299 298 297 296 294 293 292 291 291 290 289 289 288 287 286 285 287 288 289 290 290 291 291 292 291 291 291 290 288 288 286 285 285 285 285 285
301 300 299 300 299 299 298 297 297 293 292 292 291 289 288 287 285 283 283 282 282 282 283 284 285 286 287 288 288 288 290 291 290 291 290 285 286 286 285 285 285 285 284
300 300 300 299 299 296 295 292 291 290 289 287 285 284 282 282 282 282 281 281 281 283 284 283 283 283 284 284 285 286 289 290 289 288 286 286 286 285 285 285 285 284 283
301 300 297 296 293 290 289 288 287 286 284 283 281 280 280 279 280 280 282 282 282 283 284 284 284 284 284 284 285 287 289 289 288 286 287 285 285 285 284 284 284 283 283

GFSMA_925_thetae_066.txt.gz
Theta_e
314 313 313 315 315 316 316 316 314 311 309 307 307 307 307 307 307 309 308 311 314 315 314 313 312 310 309 307 306 305 305 304 303 303 303 303 303 303 303 303 302 302 302
314 313 314 315 315 316 317 317 316 314 311 309 307 307 307 308 309 308 308 307 311 314 314 313 312 311 310 308 306 304 304 303 302 302 303 303 303 302 302 302 301 301 301
314 315 314 315 316 316 317 317 316 314 313 311 308 306 307 307 308 309 309 307 313 314 314 314 313 312 311 309 307 304 303 302 301 302 302 303 302 302 301 301 301 300 300
315 315 316 317 317 319 317 317 317 315 314 312 310 307 307 307 307 307 308 307 308 313 312 311 311 310 308 307 305 304 303 301 300 301 302 302 302 301 301 300 300 299 299
319 319 321 322 320 320 318 318 317 316 314 313 311 308 307 307 307 306 307 308 308 309 310 310 309 308 306 304 300 303 300 300 300 300 301 301 301 300 300 299 299 299 299
321 322 322 322 322 321 319 318 318 316 316 315 313 309 308 307 307 307 306 307 307 308 307 308 308 305 302 300 300 301 301 301 300 300 300 300 299 298 298 298 298 298 297
321 323 321 321 321 321 320 319 318 317 317 316 315 309 308 308 308 307 306 305 305 306 306 305 303 303 302 301 301 301 302 302 301 300 300 298 297 297 296 296 296 296 296
320 321 322 322 322 322 321 320 319 318 317 316 314 311 309 309 309 307 306 306 306 305 304 303 303 303 302 302 301 300 302 302 302 301 300 297 296 295 295 295 295 295 295
321 322 322 322 321 323 322 321 320 319 318 316 315 312 311 312 309 310 308 307 308 307 305 304 303 302 302 302 301 300 300 300 301 301 299 297 296 295 294 294 294 293 293
322 322 322 323 322 322 323 323 322 320 319 316 314 313 311 308 307 309 309 309 309 308 306 305 304 303 303 303 302 300 300 300 299 299 299 297 296 294 294 294 293 293 293
321 322 323 323 323 324 323 323 323 320 320 316 315 312 310 309 309 307 308 308 307 308 307 306 306 305 303 303 302 300 300 300 299 298 298 297 296 294 294 292 293 293 292
319 320 323 324 325 325 324 324 324 322 320 317 315 315 312 310 307 307 305 306 304 306 306 304 303 303 302 302 302 301 301 300 299 298 297 297 295 295 294 293 292 292 291
321 322 325 325 325 325 325 324 322 321 319 317 316 314 312 312 311 309 305 303 303 303 304 303 302 302 302 300 302 301 300 300 299 297 296 296 294 294 293 293 292 291 290
320 320 321 323 324 325 323 322 321 321 320 317 315 313 313 311 309 306 305 303 302 300 300 301 300 300 299 299 298 298 299 299 298 297 296 295 294 293 292 291 291 291 290
322 321 323 324 324 323 322 321 320 320 317 315 314 312 310 308 306 306 305 304 302 300 300 301 300 300 299 299 298 297 296 297 297 297 296 295 294 293 292 290 291 290 289
323 324 324 324 324 323 321 320 319 317 314 313 311 309 307 305 304 304 303 302 301 301 300 300 300 299 299 299 298 297 297 296 295 295 295 295 294 292 290 290 290 290 289
324 322 323 324 324 322 320 318 316 315 312 310 307 304 303 303 302 302 301 301 301 301 299 299 299 299 298 298 298 298 297 296 296 296 295 294 292 291 290 289 289 288 288
323 322 323 323 323 320 318 316 313 311 309 305 303 303 302 302 301 301 302 301 301 301 299 298 298 298 297 298 298 298 298 297 297 296 295 295 292 291 290 290 289 288 286
320 321 321 319 318 317 316 312 311 309 306 304 303 302 301 300 301 300 300 299 299 299 298 297 296 297 297 297 297 297 297 296 296 296 295 294 294 292 291 290 290 289 286
320 319 318 317 316 314 311 309 307 305 303 301 301 300 300 300 299 298 298 297 296 295 294 293 292 293 293 293 293 294 294 294 294 294 294 293 293 292 291 290 289 287 286
320 317 315 311 310 309 307 305 304 302 301 300 300 299 298 295 294 293 292 292 291 290 289 288 288 288 289 290 291 291 292 292 293 292 292 292 291 290 290 289 287 286 286
311 310 308 308 306 305 304 303 301 300 300 299 298 295 293 293 292 290 289 288 287 284 284 284 285 285 286 287 288 288 289 290 290 291 291 291 291 291 289 289 287 286 285
307 306 305 304 303 302 301 299 299 299 297 295 293 292 292 290 289 288 286 284 282 281 280 282 283 284 284 284 284 285 285 286 287 289 290 289 290 289 290 288 285 285 285
304 303 302 302 301 299 299 299 298 296 293 292 291 289 288 285 282 281 281 280 281 282 283 284 284 284 284 285 284 284 284 284 284 285 287 288 289 289 290 287 285 285 285
301 301 300 299 299 298 297 297 296 292 291 288 286 283 282 281 280 279 281 282 282 282 282 282 283 283 284 284 284 284 284 284 285 286 288 288 288 288 286 285 285 284 285
299 299 299 298 298 295 294 291 290 289 286 284 281 280 279 279 279 281 281 281 281 281 280 281 281 282 283 283 284 285 284 285 286 286 287 286 286 285 285 285 285 284 283

GFSMA_925_thetae_069.txt.gz
Theta_e
311 313 312 313 314 315 314 313 312 308 308 307 307 308 308 308 310 311 313 314 315 315 314 313 312 310 309 307 306 306 305 304 304 304 304 304 303 303 303 302 302 302 302
312 314 313 315 315 316 316 315 314 310 307 306 306 307 307 308 309 310 312 314 314 314 314 313 312 311 310 308 306 305 304 304 303 303 303 303 303 303 302 302 301 301 301
313 314 314 315 316 317 317 316 314 311 311 307 307 307 307 308 309 308 310 312 313 313 313 314 313 312 311 310 307 305 304 303 302 302 302 303 303 302 301 301 301 300 300
313 314 314 314 315 317 317 316 315 313 313 310 308 306 307 307 307 308 308 308 308 311 313 314 313 313 312 309 308 305 304 302 301 301 302 302 302 302 301 300 300 300 299
314 314 314 315 317 318 317 317 316 316 314 312 310 307 306 307 307 307 307 308 308 308 312 313 312 310 308 307 307 305 304 301 301 301 302 301 301 300 299 299 299 298 299
314 315 316 318 318 318 318 318 317 317 316 313 311 309 307 306 306 307 307 307 308 307 309 311 310 309 308 305 302 303 303 302 302 301 301 300 298 297 297 297 297 297 297
319 319 321 322 321 320 319 319 317 317 316 314 313 310 309 307 306 306 306 306 307 307 308 308 308 307 306 303 302 302 304 303 303 302 301 301 299 297 296 294 295 296 296
320 321 321 322 321 321 320 319 318 317 316 316 315 310 307 308 307 306 306 306 306 306 306 306 306 304 303 303 303 302 303 304 304 304 302 301 299 297 295 294 295 295 295
320 320 322 322 321 321 321 320 319 318 318 317 315 314 311 311 309 309 308 306 305 304 305 305 305 304 303 303 302 302 302 301 303 303 303 302 300 298 296 295 295 294 294
318 319 320 321 322 321 321 322 321 320 318 317 315 313 312 312 309 310 309 308 306 305 306 304 304 303 303 303 302 302 302 301 300 300 303 303 301 299 298 296 295 294 294
315 316 321 322 322 322 322 322 322 322 320 318 317 314 311 311 309 309 310 309 310 310 310 308 306 305 304 303 302 302 302 301 300 300 301 303 302 300 299 297 296 295 295
314 315 317 320 322 323 323 323 322 322 322 319 318 317 315 311 309 309 307 308 308 308 306 306 305 305 305 304 303 303 301 301 300 299 300 301 302 300 299 298 296 296 295
314 315 316 317 320 322 323 324 324 324 323 320 319 318 315 315 313 311 309 306 304 304 304 306 305 304 302 302 302 299 299 300 301 299 300 299 299 300 299 298 297 296 295
315 315 318 318 319 320 322 323 324 323 322 321 320 317 315 315 312 311 309 305 303 302 302 305 303 303 301 300 300 299 298 298 298 299 299 298 297 297 297 297 297 296 294
320 319 319 319 320 322 323 322 323 322 321 321 320 317 316 314 313 308 307 306 304 302 300 302 302 303 301 300 299 299 298 298 296 296 296 297 297 296 296 295 295 295 294
321 321 320 321 322 322 323 323 321 320 319 318 316 315 312 312 308 305 305 304 303 302 301 301 301 301 301 299 299 298 298 298 297 297 297 296 296 295 295 295 295 294 292
323 321 321 321 322 323 322 322 321 318 318 316 314 311 310 308 304 303 303 302 301 301 299 300 300 300 299 298 297 297 297 298 298 298 297 297 296 296 295 294 293 292 291
323 320 323 320 322 322 321 322 319 317 315 314 311 308 304 303 302 302 301 301 301 300 299 298 298 297 296 297 296 296 296 296 296 296 296 296 296 296 295 295 293 292 291
322 318 317 318 321 321 321 318 317 315 314 311 308 304 303 302 301 301 301 299 298 298 297 295 293 293 292 292 292 292 292 292 292 293 293 294 294 294 294 294 293 292 291
320 318 319 319 318 319 317 316 314 312 309 307 305 303 301 301 301 299 298 297 296 294 292 290 289 288 288 288 287 288 287 287 288 289 289 291 292 292 293 292 292 292 291
323 321 318 316 316 314 314 312 310 308 305 303 301 300 299 299 298 296 294 292 291 290 288 287 285 284 283 283 283 284 286 285 285 286 287 287 288 290 291 291 291 291 290
320 318 316 314 312 311 311 309 308 305 302 300 300 298 294 293 292 292 291 290 288 285 283 281 281 282 282 283 284 284 284 283 283 284 286 285 285 287 289 290 290 290 290
313 313 311 310 309 308 306 305 304 302 300 299 297 293 291 290 289 288 287 285 282 281 282 282 283 283 283 283 283 283 283 283 283 283 283 284 284 285 285 288 289 289 289
310 308 307 307 306 304 302 301 300 299 298 295 292 291 290 287 285 283 281 280 281 281 281 281 282 282 283 283 283 283 283 284 284 284 284 284 285 285 286 287 288 289 286
304 304 304 303 303 300 299 299 299 296 293 290 289 287 285 282 281 280 280 281 280 280 280 279 280 281 281 281 282 283 284 284 284 284 284 285 285 287 287 287 288 288 285
302 302 301 301 300 298 298 297 296 293 290 288 284 282 280 279 279 281 281 280 280 279 278 277 277 278 279 280 280 281 283 284 284 284 285 285 285 286 285 285 285 284 285

GFSMA_925_thetae_072.txt.gz
Theta_e
308 306 308 310 310 309 309 308 309 310 312 311 309 308 308 309 311 313 315 315 315 315 315 314 312 310 309 308 307 306 306 305 305 305 305 304 304 303 303 303 302 302 302
308 308 310 312 312 311 311 309 309 308 310 309 308 308 308 309 310 311 314 314 314 315 315 314 313 311 310 308 307 306 305 304 304 304 304 304 304 303 302 302 302 301 301
310 313 312 314 314 314 312 313 308 307 306 307 307 307 307 308 309 310 312 313 314 313 313 314 314 312 311 310 307 306 305 304 303 303 303 303 303 302 302 301 301 300 300
316 313 313 316 316 315 314 314 310 308 307 307 306 307 307 308 309 309 310 311 312 313 313 313 313 313 313 312 310 307 305 303 302 302 303 302 302 302 300 300 300 299 300
313 314 315 316 316 316 316 316 313 312 310 307 307 306 307 307 307 308 309 310 311 311 312 313 313 313 312 312 309 308 306 304 302 302 303 302 301 298 297 297 298 298 298
313 313 314 314 315 316 317 317 315 314 314 313 310 307 306 306 307 307 307 307 308 309 310 311 312 312 311 309 308 307 306 305 303 302 303 302 300 298 297 295 294 294 296
315 314 314 315 315 317 318 317 316 315 316 314 312 310 309 307 306 306 306 306 307 307 307 308 310 310 310 308 306 305 306 306 305 304 303 303 301 299 298 296 293 292 294
314 314 315 318 318 319 319 317 317 317 316 315 313 311 309 310 309 307 306 306 306 307 307 307 308 309 308 307 305 303 305 306 306 306 305 304 303 301 299 297 294 294 295
316 316 319 320 321 322 321 320 318 317 317 316 315 314 311 310 309 309 307 306 305 305 306 307 307 308 308 306 305 303 302 302 304 305 305 305 304 302 300 299 297 296 296
319 319 319 320 321 321 321 320 319 319 318 317 315 314 313 312 312 312 309 309 308 306 305 305 306 306 306 305 304 303 302 302 301 301 304 304 305 304 302 300 299 297 297
317 317 318 319 320 320 322 322 321 320 319 318 317 315 312 311 311 311 313 311 309 308 306 305 306 311 307 304 304 303 303 302 301 301 300 302 303 305 304 302 301 299 298
315 316 317 316 317 320 321 322 322 322 321 321 319 317 317 314 310 309 309 309 309 310 308 309 309 306 305 304 304 303 303 303 302 301 300 299 301 303 304 303 302 301 299
313 314 315 315 314 315 319 321 322 323 323 322 320 319 317 316 316 313 311 309 308 308 306 306 305 304 303 302 302 301 300 299 299 298 298 300 299 299 301 302 302 301 300
314 314 313 314 314 316 319 319 320 321 322 322 321 320 318 316 314 314 313 309 303 303 304 306 307 305 304 304 301 300 299 299 298 298 297 296 297 299 300 299 299 299 299
315 315 314 315 316 319 320 320 321 321 320 321 321 319 317 315 314 313 311 309 307 304 302 303 303 303 302 301 301 299 299 298 297 297 297 297 297 297 296 296 296 296 296
316 316 317 319 321 321 321 321 321 322 320 320 320 318 316 315 313 311 307 306 306 304 302 303 302 302 302 301 300 298 297 297 297 297 297 297 297 297 296 296 296 295 296
317 318 320 322 322 322 322 320 320 321 320 320 319 317 315 313 311 308 305 304 303 302 301 301 300 301 300 300 298 297 296 295 294 294 294 294 294 295 295 295 295 295 295
317 318 320 321 322 321 320 320 321 320 320 318 317 315 313 310 307 305 304 303 302 301 300 298 298 298 298 296 293 293 293 293 291 290 289 289 289 290 291 292 293 293 294
318 319 321 322 321 321 318 319 321 320 319 316 316 313 311 307 304 303 303 301 300 299 297 296 293 292 291 292 290 289 285 283 283 283 283 283 283 283 284 286 289 291 292
319 320 322 322 321 321 318 319 320 317 314 311 311 309 307 304 303 302 301 299 298 296 293 290 289 288 288 285 283 283 284 284 284 284 284 284 283 284 284 284 286 289 291
320 320 322 321 319 317 318 317 316 312 310 308 306 304 302 302 301 300 298 296 293 291 290 288 285 283 282 282 283 283 283 283 283 284 284 284 284 283 284 284 283 283 288
322 321 322 321 318 317 316 314 313 309 308 305 302 300 300 300 298 296 294 292 291 289 286 283 282 282 282 283 282 282 282 282 283 283 283 283 283 283 284 284 285 285 286
320 320 319 319 316 313 311 309 308 306 304 301 299 298 294 293 292 290 290 288 285 282 282 282 282 282 282 281 281 281 282 282 283 283 283 283 283 283 284 284 285 286 286
316 316 315 311 308 307 305 304 305 303 301 299 297 294 293 289 288 287 285 282 281 281 281 281 280 280 281 281 282 282 282 282 282 283 284 283 284 284 285 285 285 286 287
308 307 306 305 306 302 302 302 302 300 297 293 291 290 289 286 283 281 281 281 281 280 280 279 278 278 278 278 280 281 281 281 282 283 283 283 284 284 285 285 286 286 286
304 303 302 302 302 299 299 299 300 297 292 289 286 284 283 282 280 280 281 280 280 279 278 278 278 277 277 277 277 278 279 280 280 282 284 284 284 284 285 285 285 286 286

GFSMA_925_thetae_075.txt.gz
Theta_e
311 313 311 310 311 315 318 317 317 314 311 308 308 309 314 315 316 316 316 316 316 316 315 314 313 311 310 309 308 307 307 307 306 306 305 305 305 304 304 303 303 302 302
307 309 309 309 310 312 314 314 315 314 314 309 308 311 312 314 315 316 316 316 315 316 316 314 313 312 310 309 308 307 306 305 305 305 305 305 304 303 303 302 302 301 301
306 309 310 309 309 309 310 310 312 314 310 310 309 309 312 313 314 315 316 315 315 315 315 315 314 313 311 309 308 307 306 305 304 305 304 304 304 303 302 301 301 300 301
308 309 311 310 310 309 309 308 312 310 308 308 311 312 312 312 314 314 315 315 315 315 314 314 314 313 313 312 310 307 306 305 303 304 304 303 303 302 299 298 298 299 300
308 311 313 313 313 312 311 307 307 307 306 307 308 307 308 309 310 312 312 313 314 315 315 314 313 313 313 313 313 310 307 306 304 303 304 303 303 300 298 297 295 296 296
312 313 315 316 316 316 313 309 308 308 308 307 307 306 307 307 308 308 309 310 311 313 314 314 314 314 312 312 312 310 309 308 305 304 304 304 303 300 299 298 295 293 293
313 316 317 316 316 316 316 313 312 312 311 309 310 309 307 306 306 306 307 307 307 309 311 311 312 314 314 312 311 310 309 308 307 306 305 305 304 302 300 299 297 295 294
315 316 315 314 315 315 316 315 315 314 315 313 314 314 317 314 309 307 306 306 306 306 307 308 309 312 311 312 311 309 309 308 308 308 307 306 305 304 302 301 299 297 296
315 315 314 314 314 315 316 317 317 317 317 316 314 317 315 318 312 310 310 308 306 305 306 307 307 308 310 309 308 308 307 304 306 307 307 307 307 306 305 303 301 300 299
314 314 314 314 316 319 319 320 320 319 317 317 314 315 315 315 319 318 312 310 309 313 306 305 306 307 307 308 307 307 306 304 303 302 302 304 306 306 306 306 304 302 301
315 315 315 316 318 317 319 320 321 320 318 317 316 317 314 312 312 315 319 318 311 311 311 310 306 308 304 305 310 305 305 304 303 302 302 301 303 305 305 306 306 305 303
316 317 317 316 319 319 319 320 320 321 320 319 319 317 317 318 316 314 316 315 313 312 311 310 309 305 308 309 307 304 303 303 302 303 302 301 300 301 304 304 305 305 305
317 318 318 317 317 317 317 318 319 320 320 320 320 319 317 317 317 316 312 311 312 310 309 308 308 307 304 303 302 302 301 300 299 299 299 298 298 297 297 300 303 303 303
316 316 315 315 315 315 315 315 316 319 320 320 320 319 320 320 317 314 314 312 307 307 306 306 303 303 302 302 301 300 300 299 299 298 298 297 297 297 296 297 297 298 300
314 314 314 314 314 314 314 315 317 319 320 320 320 319 320 319 317 314 313 313 311 312 312 307 306 303 302 302 301 301 299 298 298 297 297 297 297 297 297 297 297 297 297
316 315 315 315 315 315 315 317 319 320 321 321 321 319 318 319 316 313 312 312 311 310 311 308 304 302 302 301 300 300 298 297 297 296 295 295 294 294 295 295 295 295 295
316 315 315 316 315 316 317 320 321 320 320 321 320 320 318 319 315 313 311 309 307 306 306 304 303 302 301 300 299 298 296 295 293 293 291 288 287 286 286 286 287 288 290
315 315 317 315 316 318 320 316 321 320 320 320 319 318 315 315 313 312 309 307 305 303 303 302 301 300 299 298 297 295 293 289 287 285 284 285 284 284 284 284 284 284 284
316 317 317 316 317 319 320 320 320 318 318 320 321 316 316 312 312 309 305 303 302 301 300 299 298 296 295 293 292 289 286 284 285 285 284 284 284 284 285 285 285 284 284
316 317 316 316 318 319 319 320 320 317 317 317 317 316 313 311 309 306 303 302 301 299 297 295 292 292 291 290 286 286 286 286 286 285 285 284 284 284 285 285 285 284 284
317 317 317 317 317 319 320 320 319 317 316 316 315 310 308 308 306 305 303 301 299 296 293 291 290 289 288 286 285 285 285 285 285 285 285 286 285 286 286 286 286 285 285
317 318 318 318 319 317 319 321 318 317 316 311 307 305 304 303 302 301 300 298 296 294 291 288 288 287 286 285 284 284 284 285 286 285 285 285 285 286 286 286 286 285 285
319 319 319 319 318 317 319 319 317 316 309 305 304 301 299 299 299 297 294 293 292 291 288 285 285 285 284 284 283 284 284 284 285 285 284 285 285 285 286 286 286 285 285
320 319 319 318 318 317 317 315 310 307 305 302 300 299 299 295 293 293 291 287 284 282 282 282 283 282 282 282 282 282 283 283 283 284 284 285 285 285 286 286 286 285 286
316 316 315 314 313 313 310 306 304 302 298 295 295 295 293 291 290 288 285 282 282 282 280 280 279 278 278 278 279 281 282 282 283 283 283 284 285 285 285 286 286 285 285
313 311 308 307 306 305 301 300 302 299 293 290 289 288 288 287 286 283 282 282 282 282 280 279 279 278 277 278 277 279 279 280 281 281 284 283 283 284 286 286 286 286 286

GFSMA_925_thetae_078.txt.gz
Theta_e
320 322 325 326 324 323 322 321 320 318 317 316 317 317 317 318 318 318 318 317 317 317 316 315 313 312 311 310 309 309 308 308 308 307 306 306 305 305 304 304 303 303 303
317 317 320 323 324 324 323 321 319 316 315 315 316 316 317 318 318 318 318 317 316 316 316 316 314 312 311 309 309 308 307 307 307 306 306 306 305 304 303 302 302 302 303
315 314 315 315 318 321 320 319 318 316 315 314 315 316 316 317 318 319 318 317 316 316 316 315 314 313 311 310 309 308 307 306 306 306 305 305 304 303 300 298 298 300 301
313 312 311 311 313 315 317 318 317 316 315 314 314 315 315 316 317 317 318 317 317 316 316 315 314 314 312 311 310 308 307 306 305 305 305 305 304 302 299 298 297 296 296
310 310 310 310 311 312 312 315 315 314 314 313 314 314 314 315 316 316 316 317 317 317 316 315 314 314 313 313 312 310 309 308 305 305 305 304 304 302 299 298 297 295 294
310 310 312 314 313 312 312 312 312 312 312 312 311 312 313 313 314 315 315 315 316 316 316 316 315 314 314 313 314 314 312 309 308 306 306 306 305 303 301 299 298 297 296
312 315 317 316 315 315 315 313 313 314 313 312 311 312 312 312 312 312 313 313 314 315 316 316 316 315 315 313 312 314 312 311 310 308 307 306 306 305 303 301 300 299 297
309 313 316 316 317 318 318 315 316 317 318 314 316 318 319 315 312 311 311 311 310 311 311 313 314 313 313 314 314 312 312 311 310 310 309 308 307 306 305 304 303 302 300
312 314 316 316 316 316 318 316 316 317 319 316 315 319 320 321 317 315 312 310 310 309 307 309 311 312 310 313 313 313 308 310 309 309 310 309 309 308 308 307 306 304 303
315 316 316 315 314 318 319 320 319 318 320 320 317 317 319 319 321 323 317 314 310 309 306 308 308 309 308 308 309 311 308 308 308 307 304 304 307 307 308 308 308 308 306
315 316 315 315 317 320 320 321 321 320 321 321 321 321 318 316 316 317 323 321 316 314 313 311 310 309 307 307 309 311 307 308 306 306 304 303 302 304 305 306 307 307 308
314 315 315 315 315 317 320 322 323 323 323 322 321 321 319 319 320 321 322 322 321 316 315 313 314 312 308 306 306 305 310 306 304 303 302 302 301 300 299 301 303 305 306
315 315 314 315 315 315 318 321 319 320 322 322 323 322 321 321 322 322 321 317 316 315 313 313 314 312 308 306 307 308 304 304 303 302 301 299 299 299 298 298 297 301 302
317 316 315 315 315 317 319 319 319 320 323 322 322 322 322 322 322 321 318 314 312 314 312 315 310 308 308 307 305 303 303 301 300 300 299 299 298 298 297 297 297 297 297
317 317 317 318 319 320 320 321 321 321 322 322 322 323 323 321 321 320 317 315 313 312 312 313 312 309 307 305 304 303 304 302 300 299 298 298 297 296 296 296 296 296 297
319 318 319 320 320 320 320 320 320 320 320 322 323 322 322 321 318 317 317 313 313 313 315 315 311 309 307 306 303 303 303 301 299 298 297 297 295 294 293 292 291 291 290
319 318 319 319 319 319 318 319 320 321 321 322 321 321 320 319 317 316 316 313 312 312 313 311 311 307 304 304 301 301 302 300 299 296 295 292 288 286 285 285 285 285 285
320 319 319 319 319 319 319 319 320 321 321 321 319 318 319 318 317 314 313 311 310 309 310 310 305 305 303 302 301 301 299 296 294 291 288 286 286 285 285 285 285 285 285
319 319 320 320 319 319 319 319 320 319 319 317 318 319 317 316 318 313 312 312 309 307 307 308 302 301 301 300 297 297 295 292 290 288 287 286 286 285 285 284 285 285 285
318 318 319 319 319 319 319 320 320 321 321 319 320 316 316 317 316 312 310 308 307 304 302 301 299 298 297 295 294 293 292 290 290 289 288 287 287 287 287 287 287 287 286
319 319 319 319 320 320 320 320 320 319 318 318 317 317 317 316 314 312 308 304 304 300 298 298 295 293 293 293 290 290 289 289 289 289 289 289 289 288 289 289 288 288 287
320 320 320 320 320 320 319 317 317 318 319 317 316 315 314 311 309 307 306 306 304 299 296 295 293 291 292 290 289 289 289 288 290 289 289 289 288 288 289 289 288 287 286
320 320 320 320 320 321 319 317 318 318 317 316 314 311 307 305 304 302 301 301 298 295 294 293 290 290 288 289 288 288 288 288 289 288 287 288 288 289 288 288 288 287 286
320 320 320 320 320 321 319 318 317 317 314 312 310 304 303 299 297 298 295 292 291 290 289 287 286 286 286 286 286 286 286 286 286 286 286 287 288 288 288 288 287 287 287
321 321 321 320 319 318 318 318 315 310 307 302 299 298 297 296 295 296 294 288 285 284 283 283 283 283 282 281 280 283 284 285 286 286 286 285 287 287 286 286 288 288 287
319 319 318 316 315 315 312 310 309 305 298 294 291 291 293 293 292 291 288 285 283 282 281 281 281 280 279 281 279 279 282 283 284 285 286 284 285 284 286 286 287 287 287

GFSMA_925_thetae_081.txt.gz
Theta_e
326 325 323 326 323 321 320 318 320 319 319 318 319 319 320 320 320 319 318 317 317 317 316 315 314 313 312 312 310 310 310 309 308 308 307 307 306 305 305 304 304 304 304
325 320 322 324 323 322 321 320 321 319 319 318 319 319 319 320 320 320 318 317 317 316 317 315 314 313 312 311 310 310 309 309 308 307 307 305 305 303 301 300 300 302 303
323 323 323 324 325 323 322 322 320 317 317 318 318 319 319 320 320 320 319 318 317 317 316 316 315 314 312 311 309 309 308 308 308 307 307 306 304 301 299 298 297 297 297
321 323 322 323 324 324 322 320 318 317 316 317 317 318 319 319 320 320 319 319 318 317 316 315 315 314 313 312 310 309 308 307 307 307 307 306 305 301 299 299 297 296 296
317 317 318 319 321 321 320 320 318 317 317 316 317 317 318 318 319 319 319 319 319 318 318 316 314 314 313 312 312 311 310 308 307 307 307 306 306 305 302 300 299 298 298
313 315 315 315 316 317 316 317 316 316 316 316 315 316 317 317 318 318 318 318 319 318 318 318 315 315 314 313 314 313 312 311 309 308 307 307 306 306 304 301 301 300 299
314 314 314 313 313 313 314 315 315 315 315 314 314 314 315 315 316 317 318 318 317 318 318 318 317 316 315 313 312 315 316 314 312 311 309 308 308 307 306 304 303 302 302
313 314 314 316 314 314 314 315 315 316 316 316 316 317 318 316 315 315 315 315 316 316 317 317 317 317 317 316 315 312 314 314 313 313 312 310 309 308 308 307 306 305 304
314 315 318 316 313 318 319 319 319 320 321 318 319 321 324 325 321 316 314 314 314 314 314 314 314 314 316 315 315 315 314 312 312 312 312 312 310 309 309 309 309 308 307
315 316 317 316 318 321 320 320 321 320 320 321 315 317 321 322 322 322 318 316 314 312 312 311 309 311 313 315 314 314 314 312 310 309 309 308 308 309 310 310 309 309 309
314 315 315 318 318 318 321 320 318 320 319 321 321 320 320 321 321 321 321 321 318 315 314 311 309 311 312 312 312 313 311 312 311 309 307 308 307 305 305 306 307 307 308
314 316 316 316 315 318 320 320 320 321 321 322 321 321 322 321 321 320 320 321 322 320 318 315 314 313 312 313 311 311 310 311 310 308 309 306 304 303 302 302 302 303 303
316 315 316 316 315 316 320 320 320 319 321 321 320 320 319 320 320 321 322 323 323 321 317 317 318 317 316 315 312 310 308 308 307 309 305 303 303 301 300 299 299 299 301
315 315 316 315 315 316 316 320 320 320 323 321 322 320 320 322 322 322 323 323 319 317 318 318 317 316 315 313 310 308 306 307 306 304 303 301 301 300 299 298 297 296 296
316 315 315 316 316 316 316 319 319 319 321 319 320 323 322 323 322 322 322 323 321 320 316 315 314 314 312 311 309 307 305 305 303 302 301 300 300 299 298 297 295 295 294
319 318 318 317 317 316 317 318 319 320 321 321 322 322 323 323 323 323 323 321 319 316 317 314 315 315 312 309 306 305 305 306 304 302 301 299 299 298 296 294 292 289 287
322 320 320 319 318 318 319 319 320 321 322 322 321 322 323 323 322 322 320 318 316 315 315 315 315 314 309 308 306 305 306 305 304 302 300 299 297 295 291 287 286 286 286
322 321 321 320 320 320 321 321 321 321 321 322 322 322 323 322 322 321 318 317 316 316 314 314 312 310 310 309 305 304 304 303 301 299 297 295 293 288 286 286 286 286 285
323 322 322 321 321 321 322 322 322 322 321 322 322 322 323 321 319 318 316 314 315 315 313 313 311 307 306 305 305 302 301 300 298 294 292 291 288 287 287 286 286 286 285
323 323 322 321 321 321 321 321 321 321 321 321 322 322 320 320 319 317 315 313 314 311 310 310 309 304 302 300 301 300 298 295 293 292 291 290 289 289 288 289 289 289 288
324 323 323 322 322 322 322 322 322 321 322 322 321 321 322 320 317 316 314 313 312 309 307 305 301 299 297 296 296 295 293 291 291 291 291 291 291 291 291 291 290 290 289
323 323 323 322 322 322 322 321 321 322 321 322 322 320 319 318 316 318 316 314 313 307 304 300 298 298 296 295 295 292 289 290 292 291 292 291 291 291 290 290 291 290 289
323 322 322 322 322 322 321 321 321 320 322 321 319 318 315 316 315 314 309 307 305 303 302 300 296 295 294 293 291 289 290 290 291 291 291 291 290 290 290 291 290 289 288
324 324 323 323 323 323 322 322 321 320 319 319 319 316 314 314 311 309 305 300 298 296 296 295 294 293 290 289 289 289 289 290 290 289 289 289 289 289 290 289 290 289 288
324 324 324 323 323 323 322 322 321 319 317 315 313 310 308 305 302 301 300 295 292 291 292 291 291 288 287 287 287 287 287 287 288 288 288 288 288 287 289 288 287 287 288
324 323 323 322 322 322 321 321 320 318 309 303 299 297 296 297 292 292 293 291 288 286 286 285 284 283 282 281 281 280 284 285 286 286 287 287 287 287 286 287 287 287 286

GFSMA_925_thetae_084.txt.gz
Theta_e
327 325 326 327 323 317 317 310 318 317 315 317 320 320 321 320 319 317 318 317 317 318 317 316 315 314 313 312 311 311 311 310 309 309 308 307 306 305 305 304 305 305 305
327 325 327 324 321 317 313 317 320 318 318 318 320 320 321 320 319 317 317 317 316 317 316 316 315 314 313 312 311 311 311 310 309 309 307 306 303 302 300 298 299 302 302
326 326 325 323 322 320 316 320 320 320 319 319 319 319 320 321 319 319 317 317 316 316 316 315 315 314 313 312 311 311 310 310 309 309 308 306 303 300 299 298 297 297 297
325 324 323 320 324 323 320 321 320 318 319 319 319 319 320 321 321 319 318 317 317 316 316 315 315 314 313 312 311 310 310 309 309 308 308 307 305 302 300 299 298 297 297
321 320 320 322 324 323 322 319 317 318 317 318 318 319 320 320 321 319 319 318 317 317 315 315 314 314 313 313 312 311 310 309 308 309 308 307 307 306 303 301 300 299 299
319 319 322 322 322 322 321 319 318 317 317 317 318 318 319 320 320 320 321 319 318 318 317 316 314 314 313 312 313 313 312 311 309 309 309 308 307 307 306 303 302 301 301
319 320 319 321 321 320 319 318 316 316 316 316 316 317 317 318 318 318 319 319 319 318 319 318 317 315 314 313 312 314 314 314 313 311 310 309 309 307 306 306 305 305 304
317 315 315 318 318 318 317 316 315 316 315 316 317 316 316 316 316 317 318 318 318 318 318 318 318 318 316 315 313 312 315 316 316 315 313 311 310 310 309 308 308 308 307
314 315 315 315 315 314 313 314 314 315 316 315 316 318 319 319 316 316 316 316 317 317 316 317 318 318 317 317 316 315 313 313 315 316 315 314 312 310 310 310 310 310 309
315 314 314 313 316 315 315 314 316 315 319 317 316 319 321 321 320 319 316 314 314 314 315 316 316 316 317 317 317 316 316 314 313 313 313 313 313 313 312 312 311 311 311
315 315 316 315 316 318 317 317 318 319 321 320 318 317 317 321 321 321 319 319 318 316 314 313 313 313 312 309 315 315 316 315 315 313 312 312 310 310 310 309 308 308 308
316 314 317 318 316 318 319 319 320 320 320 320 321 320 320 320 322 320 319 320 320 319 319 318 315 315 314 310 312 313 313 313 313 313 312 310 308 308 308 307 306 306 305
315 316 316 318 316 317 319 320 319 319 318 318 320 319 320 321 321 321 320 320 321 321 320 317 316 316 315 314 313 312 312 312 311 310 311 311 308 307 305 303 302 301 302
314 315 316 316 315 316 318 318 318 318 318 317 319 319 319 320 320 319 321 322 319 320 320 319 318 316 316 318 316 316 313 312 311 310 309 307 307 303 302 301 300 299 297
314 314 317 316 316 316 315 316 317 317 317 317 317 318 318 318 319 319 321 321 321 320 316 318 319 318 317 318 317 315 313 311 309 307 306 306 303 302 301 300 299 298 296
315 315 315 316 316 316 317 317 317 318 319 319 320 320 319 319 321 321 322 321 321 320 321 318 317 317 317 315 315 313 310 308 306 306 304 302 301 300 300 299 298 297 294
316 315 315 315 316 316 316 317 317 318 319 319 320 321 321 319 320 321 321 321 322 321 319 319 317 316 316 314 312 311 308 306 305 304 303 302 302 301 299 298 297 293 287
317 316 315 316 316 317 317 317 318 318 318 320 320 321 322 321 322 322 322 322 321 320 318 316 316 315 316 314 311 309 306 306 306 305 304 302 301 299 297 294 290 287 287
321 319 319 319 318 318 318 318 318 318 319 319 320 321 322 322 322 323 323 321 320 318 317 316 315 314 313 311 309 306 305 305 305 303 301 299 297 294 293 290 287 287 286
324 324 323 322 321 320 320 319 320 320 321 321 321 321 322 322 322 323 322 321 319 316 314 313 313 311 310 309 307 305 303 304 302 300 298 299 292 290 290 289 289 289 289
325 325 324 323 322 322 321 321 321 321 321 321 322 322 322 322 322 322 321 319 317 314 313 311 311 307 305 304 303 304 302 301 300 300 294 292 291 291 291 291 291 290 291
325 325 324 324 323 322 322 322 321 322 322 322 321 321 321 321 322 321 320 320 319 314 311 310 310 306 304 301 300 298 296 293 290 291 291 291 291 292 292 291 291 290 291
326 325 324 323 323 323 323 322 322 321 322 322 322 321 321 322 321 321 321 318 315 312 312 310 308 303 298 297 296 295 292 290 290 291 291 292 292 291 291 290 289 290 290
325 325 325 325 324 323 323 323 323 322 321 321 321 321 321 321 320 319 317 313 307 305 304 303 301 296 296 295 295 293 291 290 289 289 290 289 289 289 289 289 290 290 289
325 324 324 324 323 323 322 322 322 322 321 320 320 320 320 318 316 311 307 298 292 291 291 294 293 292 292 291 290 289 288 287 288 288 287 288 288 288 288 288 288 289 288
325 325 325 325 324 324 323 323 323 320 318 315 311 308 304 303 300 297 297 293 288 286 288 288 287 287 287 287 287 286 286 286 287 286 286 286 287 287 286 287 286 287 287

GFSMA_925_thetae_087.txt.gz
Theta_e
327 328 327 327 323 319 319 317 315 313 318 319 320 321 320 319 317 317 318 317 318 318 318 317 316 315 314 313 313 313 311 311 310 310 309 308 307 306 306 306 306 306 306
327 326 327 326 322 314 315 314 316 314 319 319 321 321 320 319 317 317 317 317 317 317 317 317 316 315 314 312 312 312 311 311 310 309 308 306 305 304 303 304 305 304 300
327 324 327 326 321 311 310 317 318 313 316 318 320 321 320 319 317 316 317 317 316 316 316 316 316 315 314 313 312 312 311 310 310 309 308 306 304 302 300 299 299 299 298
326 325 327 325 319 311 311 318 318 317 317 319 320 320 319 318 317 315 316 315 315 315 315 315 315 315 314 313 313 312 311 311 310 310 309 307 304 301 300 299 298 298 299
327 326 326 322 319 312 316 320 320 319 319 319 319 320 320 319 318 317 315 316 315 315 315 314 314 314 313 313 313 312 312 311 311 310 309 309 307 303 302 300 300 300 300
327 325 324 323 320 316 317 320 319 319 319 319 319 320 320 320 319 318 318 316 315 315 315 315 314 314 312 312 313 313 313 312 311 311 310 309 309 307 304 302 302 302 302
325 322 322 322 322 321 320 319 318 318 319 318 319 319 319 320 320 319 319 318 317 317 316 315 315 314 313 312 312 314 314 314 313 311 311 310 310 308 306 305 305 305 305
321 321 321 320 321 321 319 317 317 316 318 317 317 317 315 317 319 319 320 319 319 318 317 318 317 316 315 314 313 312 315 315 316 315 313 311 310 309 308 308 309 309 308
320 319 322 322 320 318 318 317 316 316 316 316 317 316 315 315 315 317 318 318 319 319 319 318 318 318 317 317 316 315 313 313 315 317 316 314 313 311 311 310 311 311 310
320 321 321 320 319 319 317 316 316 314 315 315 317 318 316 317 315 316 315 316 318 318 317 317 317 316 318 318 317 317 316 315 314 313 315 317 315 314 313 312 312 312 312
316 318 317 316 318 317 317 314 315 315 314 315 315 317 320 320 320 318 316 316 315 315 315 315 315 316 317 317 317 317 317 317 316 315 313 312 314 314 313 313 313 313 312
315 315 315 316 316 315 314 313 314 313 315 317 315 316 319 319 320 320 318 317 317 316 315 314 314 314 315 315 315 316 316 314 315 315 315 314 313 313 312 313 312 311 309
315 314 314 314 313 316 315 315 314 314 314 320 318 317 317 318 319 320 320 318 318 319 320 319 319 318 316 315 314 314 314 310 314 315 314 313 314 313 312 310 309 308 307
314 315 317 316 314 315 317 318 316 316 318 319 319 319 319 319 318 320 320 319 318 318 320 321 320 320 320 319 318 316 315 312 312 312 312 312 313 312 311 309 308 305 303
314 314 316 317 317 317 316 319 319 319 319 319 318 318 319 318 318 317 319 320 319 319 313 320 320 321 320 319 319 318 316 317 315 313 312 311 310 310 310 307 305 302 301
314 314 314 316 317 317 316 316 319 319 318 317 318 318 317 317 318 316 318 319 319 319 319 319 318 318 319 318 318 318 317 317 316 312 311 310 310 308 306 304 302 300 299
314 314 314 314 316 316 317 317 318 318 318 318 317 317 317 317 317 317 318 319 319 320 320 319 319 319 318 318 317 316 316 315 314 313 310 308 306 305 303 302 300 299 298
315 314 314 314 315 316 316 316 317 316 317 318 318 318 318 318 319 318 318 319 319 319 320 319 319 319 318 318 317 316 315 314 313 311 308 306 305 303 302 301 300 298 297
316 315 314 314 314 315 315 316 316 316 317 317 317 318 319 319 319 319 320 320 320 320 320 319 319 318 317 316 315 315 314 310 310 308 306 305 304 303 302 300 297 294 292
318 316 315 315 314 313 314 314 315 316 316 316 316 317 317 319 320 320 320 321 320 320 319 318 317 317 315 315 314 310 305 306 306 305 306 305 302 301 299 296 292 289 289
321 319 317 316 315 315 314 314 315 316 317 316 316 317 318 318 319 320 320 320 321 320 318 316 316 314 310 307 309 309 307 305 302 301 301 300 298 296 292 291 290 291 291
324 322 321 319 318 317 317 317 316 317 317 317 317 318 319 319 320 320 320 321 321 320 318 316 315 313 308 309 310 307 304 299 296 297 297 295 292 292 291 291 291 291 291
323 325 324 323 322 321 320 319 319 319 319 319 319 319 319 320 320 321 321 321 321 320 318 317 314 313 311 307 306 301 298 295 293 291 292 292 292 291 291 291 291 291 290
324 323 324 324 323 323 322 321 321 321 319 320 320 320 320 320 321 321 321 320 316 312 311 310 307 306 301 300 299 298 295 293 291 291 290 289 291 290 290 290 289 289 289
324 324 324 324 323 323 323 323 322 322 319 319 319 320 320 320 321 320 319 312 300 295 294 296 296 294 294 293 293 293 290 290 288 288 288 288 289 288 288 288 288 288 288
324 324 324 324 324 323 323 323 323 322 318 317 316 316 316 318 319 319 317 308 293 289 289 289 289 289 288 288 288 288 288 287 287 286 283 284 286 285 285 286 287 287 286

GFSMA_925_thetae_093.txt.gz
Theta_e
326 329 328 328 325 327 328 326 322 321 322 322 321 320 318 318 318 318 318 319 319 319 319 319 319 318 317 316 315 315 314 314 313 313 312 312 311 311 310 310 309 308 308
326 327 327 325 327 326 327 325 321 321 320 320 320 319 318 318 317 318 318 318 319 319 319 319 318 318 316 316 315 314 313 313 312 312 311 310 310 309 308 308 308 306 306
325 324 327 326 328 324 324 323 320 319 319 320 320 319 318 318 317 318 318 318 317 318 318 318 318 317 316 316 314 314 313 312 312 311 310 308 307 307 305 305 305 300 302
327 327 327 326 327 324 322 321 321 318 319 319 319 319 318 317 317 318 318 318 318 317 317 317 316 316 316 315 315 314 313 313 311 310 309 308 302 301 300 301 301 301 300
328 327 326 325 327 324 322 320 319 318 318 319 319 319 318 317 317 317 317 317 318 318 317 316 316 315 315 315 315 315 314 313 312 311 310 308 303 302 301 301 301 301 301
328 327 326 325 325 322 320 319 317 316 318 319 319 318 318 317 317 317 317 317 316 315 316 316 316 315 315 315 315 315 315 314 313 313 311 310 307 306 302 302 301 301 302
328 327 326 325 324 319 319 317 315 315 317 319 318 317 317 317 317 317 317 316 316 315 315 315 314 314 314 314 314 316 316 316 315 314 313 313 311 309 304 303 303 303 303
327 327 326 325 324 317 315 316 314 316 317 319 318 318 317 316 316 316 316 316 315 315 314 314 313 313 313 313 312 312 316 317 317 316 315 314 313 312 310 308 308 308 307
326 326 326 324 322 315 314 317 315 316 317 318 319 319 316 319 316 316 316 316 315 315 315 314 314 313 313 313 312 312 311 314 316 317 316 314 313 312 310 309 309 310 311
324 325 325 324 321 317 315 318 316 316 318 317 318 319 319 317 316 313 316 316 315 316 316 315 316 315 315 315 315 314 314 313 312 313 315 317 316 315 314 313 311 310 311
323 324 324 323 322 316 316 317 317 317 318 317 318 316 316 316 316 313 313 315 317 317 317 317 318 317 317 317 317 317 317 316 315 315 314 313 315 316 316 315 314 314 313
321 323 323 320 318 315 317 317 317 318 318 318 317 318 317 316 316 316 314 314 316 317 318 318 318 318 318 318 318 318 317 317 317 316 316 316 316 314 314 315 316 315 315
319 319 319 319 316 313 317 319 318 317 318 317 316 317 317 317 316 316 316 315 314 316 316 317 318 318 318 318 317 317 316 315 315 315 316 316 317 317 316 315 315 314 314
320 319 319 318 317 316 317 318 317 316 316 316 317 317 317 316 317 316 316 317 314 315 316 316 317 317 316 316 316 316 315 316 317 316 317 316 315 315 316 316 316 315 315
319 320 319 318 318 317 319 317 316 316 317 315 315 316 316 316 317 318 318 318 318 316 315 317 318 318 318 318 318 318 319 317 317 317 318 319 317 315 314 313 313 314 315
317 319 319 319 318 318 320 318 318 317 316 316 315 315 315 315 316 317 318 318 318 318 317 317 317 317 317 318 317 317 317 317 318 317 318 318 318 317 317 316 312 313 315
317 317 318 319 318 317 316 316 317 318 316 315 314 314 314 314 317 318 317 318 319 318 317 317 317 317 317 317 318 318 317 318 318 318 318 318 318 318 317 317 315 313 313
316 316 316 316 315 314 314 314 315 316 316 315 314 315 314 315 316 318 318 318 318 318 317 317 317 316 317 317 317 317 317 317 318 318 318 318 317 317 316 316 316 315 313
314 315 315 315 315 315 315 315 315 315 315 316 316 317 317 317 317 317 318 317 317 317 317 317 317 317 316 317 317 317 317 317 318 318 318 318 317 316 315 315 315 314 313
314 313 313 314 314 314 315 315 316 316 316 315 316 316 316 316 317 317 317 317 316 316 316 316 317 317 316 316 316 316 314 316 316 317 318 317 316 315 315 314 313 312 309
316 314 313 312 313 313 313 314 315 315 315 315 316 315 316 316 316 316 316 316 316 316 316 316 315 316 316 316 314 315 314 314 314 315 315 314 312 311 311 309 306 306 304
318 317 316 314 313 312 313 313 313 313 314 314 313 314 314 314 315 316 316 316 316 316 315 316 316 316 316 316 316 315 314 313 309 311 311 308 306 304 303 302 300 300 298
319 318 317 316 315 315 314 313 313 313 313 313 313 313 313 313 314 314 314 315 316 316 316 315 315 315 315 316 316 316 314 313 312 308 304 297 297 297 296 296 295 296 294
321 320 320 318 316 316 315 315 314 314 312 313 313 313 313 313 313 313 313 312 313 314 314 315 314 313 314 315 316 316 315 309 299 296 295 292 291 291 291 291 292 292 292
321 321 322 321 320 319 318 318 316 314 312 312 313 312 312 312 312 313 313 312 312 312 312 311 307 304 305 306 307 308 305 297 292 290 290 291 289 288 289 289 289 289 289
319 322 321 321 320 319 317 318 317 315 313 313 313 312 312 312 312 313 313 312 312 305 302 294 292 290 291 291 292 294 294 294 288 286 286 286 285 286 286 285 286 286 286

GFSMA_925_thetae_096.txt.gz
Theta_e
324 325 326 326 328 328 328 328 326 324 323 324 323 322 321 320 320 319 319 319 320 319 320 320 319 318 317 317 316 316 315 315 315 314 314 313 312 312 312 311 310 310 308
327 326 325 327 328 327 327 326 325 323 323 323 322 320 319 319 318 319 319 319 319 319 319 320 319 318 317 316 315 315 315 315 314 313 313 312 311 311 311 310 308 308 307
328 326 327 327 326 325 326 322 321 321 322 322 321 319 318 318 318 318 318 318 319 318 318 318 318 317 317 316 315 314 314 314 313 312 312 311 310 309 308 306 306 305 304
326 325 326 326 325 326 326 321 320 320 320 321 319 319 318 317 317 318 318 318 318 318 318 317 317 317 316 316 315 315 314 313 313 312 311 309 308 306 304 302 302 302 301
326 325 326 325 323 326 325 322 319 320 319 319 319 318 318 317 317 318 318 318 317 318 317 316 316 316 316 316 316 315 315 313 313 312 310 308 306 301 303 301 302 302 301
328 325 326 326 324 325 322 320 318 318 319 319 318 317 317 317 317 318 318 317 317 317 317 316 316 315 315 315 316 316 315 315 314 313 312 310 308 303 302 302 302 302 302
328 327 326 326 325 324 322 320 317 317 317 318 317 316 317 317 317 318 317 317 317 318 317 316 315 315 315 314 314 316 317 316 315 314 313 312 311 308 303 303 303 302 303
326 327 326 326 325 323 319 319 316 316 317 317 318 317 317 316 317 317 317 317 317 316 316 316 316 315 314 314 313 315 317 317 317 316 315 314 313 311 307 305 304 304 304
323 327 327 325 324 324 319 318 316 317 317 318 318 318 317 318 315 316 316 316 316 316 316 315 315 315 313 313 313 312 312 315 317 318 317 315 314 313 312 310 309 306 306
321 323 324 325 324 324 321 319 316 316 317 318 318 318 319 318 316 314 315 316 316 316 316 315 315 314 314 313 313 313 312 311 311 314 316 317 316 315 314 313 313 311 309
320 325 324 325 323 323 318 317 315 315 316 318 318 317 316 318 317 314 314 314 316 316 315 315 315 315 315 314 315 315 316 315 314 314 313 313 315 317 317 316 315 315 314
320 323 323 323 322 323 319 316 314 314 316 317 318 318 317 317 316 315 313 315 316 317 317 316 316 316 317 317 317 317 317 317 317 316 316 315 315 314 314 315 316 316 316
319 321 322 323 321 320 319 316 316 315 317 318 319 319 319 314 313 314 316 315 315 317 317 317 318 318 318 318 318 318 318 318 317 317 317 317 316 316 316 316 315 315 316
320 320 321 322 321 319 317 316 315 312 316 317 318 317 315 314 312 316 316 315 314 314 315 316 317 317 318 318 317 317 317 316 316 315 315 314 315 315 315 315 316 316 316
319 319 320 319 318 317 316 315 314 314 314 318 315 315 315 313 314 316 316 316 315 316 315 316 316 316 316 317 317 317 317 317 317 318 317 317 317 317 318 317 317 315 314
318 319 319 318 316 315 316 316 316 316 317 314 315 316 315 315 316 317 315 317 317 316 316 316 318 318 318 318 317 317 318 317 317 317 317 317 317 317 317 317 317 317 316
318 319 319 318 317 316 316 317 317 316 315 315 315 316 316 315 316 316 316 317 317 317 317 317 317 318 317 317 317 316 317 316 316 317 317 317 317 317 318 318 318 317 317
317 318 319 319 318 318 317 317 317 318 317 316 316 316 316 315 315 315 315 316 317 317 317 317 317 317 317 317 317 317 317 316 317 317 317 317 317 317 318 318 318 317 316
316 316 316 317 318 319 317 317 318 318 318 317 317 316 316 315 314 315 315 316 316 317 317 317 317 317 316 316 317 317 316 316 316 316 316 316 317 317 317 318 317 317 316
316 315 315 315 315 316 317 317 315 315 315 315 316 316 315 315 314 314 315 315 315 316 316 316 316 317 316 316 316 316 315 316 316 316 315 315 315 316 316 317 317 316 315
317 317 316 314 314 315 315 315 315 315 314 314 314 314 314 314 314 315 315 315 315 315 315 316 316 316 316 316 315 315 314 314 314 314 314 314 315 315 315 316 315 314 314
317 316 315 315 315 313 313 313 314 314 315 315 315 315 315 316 315 315 315 315 315 314 315 315 315 315 315 315 315 315 314 313 313 314 314 312 313 313 313 313 311 310 310
319 318 317 316 315 315 315 314 313 313 313 313 313 313 313 313 314 314 314 315 315 315 315 314 314 315 315 315 315 314 314 314 314 314 314 308 307 304 302 302 300 299 298
319 319 319 319 318 318 318 318 316 313 312 312 312 312 312 312 312 313 313 312 312 313 314 315 313 314 314 314 313 313 314 314 308 304 300 295 292 292 292 293 291 291 290
316 320 320 319 318 317 316 316 316 314 312 312 312 312 312 312 313 313 312 311 311 311 310 309 307 303 307 309 310 309 306 305 295 291 291 292 288 288 287 287 287 287 286
304 310 311 308 304 307 301 301 307 311 311 311 312 312 311 311 312 312 311 310 310 310 305 293 291 289 289 291 291 295 296 301 290 285 285 286 285 286 285 282 283 283 283

GFSMA_925_thetae_099.txt.gz
Theta_e
329 329 329 329 326 329 329 329 328 328 327 326 325 324 324 323 323 324 323 321 322 322 322 321 321 319 318 317 316 316 315 316 315 315 315 315 314 314 313 312 312 310 310
330 327 327 328 327 327 329 328 328 327 326 325 324 323 322 322 322 322 322 322 321 320 321 322 321 320 319 317 316 316 316 316 315 315 314 314 314 313 312 311 311 309 309
326 327 326 325 327 328 327 327 327 325 323 323 323 322 321 321 321 321 321 320 320 319 320 320 320 320 319 317 316 316 315 315 315 314 314 313 313 312 312 310 309 308 306
327 327 326 327 327 327 326 325 325 323 321 322 322 321 320 320 320 320 320 319 319 320 319 319 318 318 317 317 316 316 316 315 314 314 313 313 312 311 310 309 306 306 302
327 326 326 326 326 325 324 323 321 322 320 321 321 320 320 319 319 319 319 320 320 319 320 318 318 317 316 316 316 316 315 315 314 313 313 312 311 310 308 307 303 301 302
327 325 326 325 325 324 324 322 320 320 320 321 320 319 319 319 319 319 319 319 319 319 319 318 318 317 316 316 315 316 316 315 314 314 312 311 310 308 305 304 304 303 302
327 324 326 324 324 325 323 321 320 320 320 319 319 319 318 319 319 319 319 318 318 319 319 318 317 317 316 315 315 317 317 317 315 315 314 312 311 309 305 303 303 303 303
327 326 325 325 324 323 322 320 319 318 319 318 320 319 319 317 318 318 319 319 319 318 318 317 317 317 317 316 316 315 317 317 317 316 316 314 313 311 307 305 304 304 304
327 327 326 325 325 323 321 319 317 318 318 318 319 320 320 321 318 318 318 318 318 318 318 318 318 317 317 316 316 315 315 317 318 318 317 316 315 314 312 310 308 305 307
324 327 325 325 324 324 322 319 317 318 318 319 318 319 320 320 321 321 317 317 318 318 318 317 316 317 317 316 314 315 312 312 314 316 318 318 317 316 315 315 314 312 310
320 323 324 325 324 323 323 322 317 318 318 319 318 317 317 319 319 320 320 317 317 317 317 317 316 316 316 314 313 313 313 312 312 311 312 314 317 318 317 317 316 315 315
319 321 322 324 322 323 321 321 318 317 317 318 318 317 318 318 317 317 318 318 319 318 317 316 315 315 315 315 315 315 315 315 315 315 314 315 314 313 314 316 316 317 317
319 321 323 323 323 322 322 321 319 317 316 318 318 318 319 319 318 318 316 318 320 319 318 317 317 317 316 316 317 317 317 317 317 317 317 317 317 316 316 315 315 315 316
319 320 322 323 322 322 322 319 319 318 316 317 317 318 317 318 318 317 316 315 318 318 318 318 316 315 316 317 318 318 318 318 318 317 317 317 317 316 316 316 316 315 315
319 320 321 321 321 321 321 320 317 316 315 316 315 313 316 318 315 313 313 313 315 319 319 317 317 315 315 315 316 317 317 317 316 316 316 317 317 317 317 317 316 316 316
319 319 319 320 319 319 318 317 316 315 315 315 313 315 317 316 318 315 314 314 316 316 319 315 316 315 315 315 316 317 318 317 317 317 317 317 317 316 317 317 317 317 317
317 319 319 318 317 317 317 317 316 315 314 313 314 317 317 316 315 315 316 316 315 316 318 317 317 317 316 316 315 317 316 316 316 316 316 316 316 316 316 317 316 317 317
317 317 319 318 317 316 316 316 316 315 315 314 315 315 315 315 315 315 315 316 317 317 317 318 317 318 317 317 317 317 317 317 317 316 317 316 317 316 317 317 317 316 316
317 317 317 318 318 317 316 316 316 316 316 315 315 316 316 315 315 315 315 315 316 316 317 317 317 317 318 317 317 317 317 317 316 316 316 317 316 316 316 316 316 316 316
316 316 317 317 317 317 317 317 316 316 317 317 318 317 316 315 315 315 315 315 315 315 316 317 317 317 317 318 318 318 318 317 316 316 316 316 316 316 316 316 315 315 315
315 316 316 316 316 316 317 316 316 317 316 317 317 317 317 317 317 317 316 315 314 315 316 316 317 317 318 318 318 317 317 317 317 317 315 315 315 314 314 314 315 314 314
315 315 315 315 315 315 315 316 316 316 316 316 316 316 316 315 315 315 315 315 316 315 316 316 316 316 316 316 316 316 316 316 317 315 316 316 315 315 313 311 311 310 308
317 315 315 315 315 315 315 316 315 315 316 316 316 316 315 315 314 314 314 314 315 315 315 315 316 315 315 315 315 315 316 316 316 316 315 315 312 309 303 301 300 299 300
317 318 318 318 317 313 313 313 315 315 314 314 315 315 315 315 315 314 314 314 314 313 313 313 312 313 313 313 313 313 314 314 313 310 308 305 300 292 290 291 291 291 291
309 308 308 311 311 303 304 310 312 311 310 311 312 312 311 312 312 312 312 311 311 311 310 310 304 300 297 300 306 309 303 305 305 295 292 292 289 285 284 284 283 285 286
296 296 295 295 294 295 299 302 306 310 308 309 309 305 302 302 305 309 310 310 307 308 306 299 295 292 292 291 291 292 293 295 297 290 285 287 286 286 284 281 282 283 283

GFSMA_925_thetae_102.txt.gz
Theta_e
333 330 329 327 331 331 329 329 329 327 331 330 329 328 327 326 325 324 325 323 323 324 323 323 323 321 318 318 318 317 317 316 316 316 316 316 316 315 315 314 314 312 312
331 329 328 330 330 331 328 329 328 329 330 330 328 327 326 326 325 324 324 324 323 322 323 323 323 322 321 318 317 316 316 316 316 316 316 316 315 315 314 314 312 311 311
331 331 330 329 330 329 328 328 328 328 328 328 327 326 326 325 323 322 323 324 323 321 320 321 322 321 321 319 317 316 316 316 316 316 315 315 315 314 313 313 311 310 310
331 330 329 327 327 327 327 326 326 326 327 327 326 326 325 324 323 322 320 322 323 322 320 320 320 320 320 318 317 316 316 316 316 316 315 314 314 313 312 311 311 309 308
331 330 329 327 327 326 325 326 324 326 326 326 326 325 324 323 322 322 320 320 321 321 321 320 319 318 318 317 317 317 317 316 316 315 315 314 313 313 312 311 309 308 306
331 330 329 326 326 323 323 323 323 323 325 326 325 325 324 322 322 321 321 319 320 320 320 321 320 319 317 317 316 317 317 316 315 315 314 313 313 312 311 311 309 306 307
329 328 326 325 324 322 321 321 321 322 323 323 323 323 322 322 322 321 321 320 319 320 320 321 320 319 318 316 316 317 318 317 316 316 315 314 313 312 311 308 307 306 307
328 327 326 325 323 321 321 321 320 320 321 322 322 321 322 320 321 321 321 320 319 319 319 319 319 318 318 317 316 316 317 318 318 316 316 315 313 311 310 306 306 306 307
328 327 325 324 324 323 322 321 322 323 321 321 322 322 322 323 320 320 321 320 320 318 318 319 319 318 317 318 317 316 316 317 318 318 317 315 315 313 311 309 306 305 305
327 327 326 325 324 323 322 321 321 322 321 320 322 321 321 321 322 323 320 320 320 319 319 318 318 318 318 317 317 317 316 315 317 318 318 318 317 316 316 315 314 313 311
327 326 326 325 324 323 322 321 321 322 321 321 321 322 323 323 321 322 323 321 320 320 319 318 318 318 318 317 317 317 316 314 312 316 317 318 318 318 318 318 317 316 316
324 325 326 325 324 324 323 321 320 320 320 322 322 323 322 323 323 322 322 321 321 320 318 318 318 318 318 318 317 317 317 313 312 312 312 313 314 316 317 318 317 318 317
323 323 324 324 323 323 323 322 320 320 319 320 322 322 320 319 320 320 320 321 322 320 320 319 319 318 318 317 318 317 316 315 315 314 314 314 315 314 314 314 314 314 315
322 322 322 324 323 323 323 321 319 318 319 319 320 319 318 319 319 319 318 317 319 318 319 320 320 319 319 319 319 318 318 317 317 317 316 317 316 316 316 316 316 317 316
321 320 322 322 323 322 321 320 320 319 318 318 319 319 319 318 319 318 317 316 317 320 317 315 318 320 320 320 319 317 317 317 318 318 317 317 317 317 317 316 316 316 316
321 320 321 322 322 322 322 320 320 319 318 317 317 318 318 318 318 316 318 317 316 316 318 316 317 318 320 319 319 316 316 315 316 317 317 317 317 317 317 317 316 316 317
320 320 320 321 320 320 320 319 318 317 317 316 316 316 316 316 316 315 316 315 314 316 317 314 315 317 318 320 317 315 315 315 315 316 316 316 316 316 316 316 316 316 316
320 320 319 321 319 318 317 317 317 316 316 315 316 315 314 315 315 316 316 317 317 318 318 318 316 316 317 319 320 319 318 316 315 315 316 316 316 317 316 316 316 316 316
320 319 320 320 319 319 319 318 318 318 317 316 316 315 316 318 317 316 316 316 316 317 318 317 316 317 318 318 319 319 320 319 318 317 317 317 317 317 316 316 316 316 316
320 320 319 320 320 320 319 319 319 318 318 318 317 316 315 315 315 315 316 316 315 315 316 317 317 317 317 317 318 318 319 319 319 319 318 317 317 317 316 315 316 316 316
320 320 320 321 321 320 319 319 318 318 318 318 318 317 317 316 315 316 316 317 316 316 316 317 317 316 316 317 318 318 319 319 319 319 319 319 319 319 317 317 316 315 315
319 319 319 320 320 320 320 318 319 319 319 319 320 318 318 318 319 319 318 317 318 317 317 317 316 316 317 317 318 319 319 320 321 318 319 319 318 318 314 315 315 314 312
320 319 319 319 319 319 318 317 317 319 320 319 319 319 319 319 319 319 318 317 317 316 317 317 319 319 319 318 317 317 318 318 318 317 316 317 314 309 297 296 294 297 297
316 317 316 317 317 312 315 315 314 314 314 316 318 318 318 318 318 318 317 317 316 315 313 314 313 312 311 311 311 311 311 309 308 307 305 300 295 288 288 287 286 288 289
302 301 299 301 301 300 303 307 310 312 312 311 310 310 311 311 312 313 314 314 314 311 307 307 305 301 301 300 302 304 302 301 303 299 295 293 289 285 284 284 283 283 284
292 292 291 292 293 294 298 302 305 308 306 304 300 296 296 299 299 302 304 306 306 303 298 293 291 291 289 289 291 292 290 291 294 291 286 288 286 285 284 281 282 282 282

GFSMA_925_thetae_105.txt.gz
Theta_e
338 336 335 334 333 333 332 331 329 327 326 325 327 330 330 330 326 326 325 324 325 325 325 323 324 323 320 320 319 319 318 317 318 317 316 316 316 316 316 316 315 314 314
336 336 335 334 332 330 330 331 330 328 327 325 329 330 329 327 327 327 326 325 324 323 323 324 325 324 320 319 318 318 317 317 316 316 316 316 315 315 315 315 313 313 312
336 335 333 330 331 332 331 330 329 329 327 330 330 329 327 325 325 326 325 325 325 322 323 323 323 323 322 319 318 316 316 317 316 316 316 316 315 314 314 314 312 312 312
335 334 333 332 332 331 331 330 329 328 327 329 329 328 326 324 323 325 324 325 324 323 322 321 322 321 320 319 318 317 316 316 316 316 316 315 315 314 314 313 312 310 311
334 333 332 332 331 331 329 328 328 328 328 328 329 327 324 324 323 321 325 324 324 322 321 320 321 320 319 319 319 318 318 317 316 317 316 316 315 314 313 312 312 310 309
333 332 331 332 331 329 327 327 326 327 326 327 327 326 324 324 322 322 321 323 322 322 322 322 321 320 319 318 317 318 319 318 317 316 316 316 315 314 313 313 311 311 310
332 331 331 329 326 327 326 325 325 326 326 327 325 324 324 323 322 322 321 320 320 321 320 322 321 321 319 318 317 317 319 320 317 317 316 315 315 314 313 312 312 311 310
331 331 330 326 325 324 322 323 323 324 325 325 324 324 324 322 322 322 322 322 322 321 321 322 321 321 320 319 318 317 317 318 318 318 317 315 314 313 312 311 312 312 311
331 331 330 326 324 323 321 322 323 323 324 323 323 324 323 324 323 323 322 322 321 321 320 320 321 319 319 319 318 317 316 317 319 318 317 316 315 313 312 309 310 310 310
330 330 328 325 324 323 321 321 322 322 323 322 322 322 321 321 323 324 322 322 322 321 319 320 319 319 319 319 319 318 317 316 316 318 319 317 316 315 315 314 312 311 309
329 329 328 327 324 323 322 322 322 323 322 322 322 322 322 322 322 323 323 322 321 320 320 319 319 319 319 318 318 319 318 317 316 316 318 319 319 318 317 317 317 317 316
328 329 327 326 325 324 323 323 323 323 323 322 322 322 322 323 323 323 324 323 323 321 320 320 319 319 319 319 319 318 318 318 317 314 314 317 317 318 319 319 319 319 318
327 328 328 327 325 324 323 323 323 323 322 322 321 322 322 324 323 323 322 323 322 321 321 321 319 319 319 319 319 318 318 317 317 314 312 312 312 313 314 315 316 316 316
325 325 325 326 325 324 324 323 322 322 323 323 323 323 323 323 323 322 321 319 320 319 320 320 320 320 319 319 319 318 317 317 316 315 315 314 314 314 315 315 315 315 314
325 323 325 325 325 324 323 322 321 320 321 321 321 323 323 321 320 320 320 318 317 318 318 319 320 321 320 320 319 319 319 318 317 317 317 316 316 316 316 316 317 317 317
323 324 323 324 325 324 323 322 321 319 319 320 320 321 321 320 319 319 319 318 317 317 317 316 317 318 318 321 321 321 321 320 316 315 316 317 317 317 317 317 316 316 316
323 323 323 323 322 322 323 323 321 321 320 319 319 319 320 319 319 319 318 318 317 317 317 316 316 315 318 318 318 319 319 320 320 318 314 315 315 316 316 316 317 316 317
323 323 323 322 322 320 321 322 321 320 319 318 318 317 318 318 318 318 317 317 317 316 315 315 315 315 315 317 318 317 319 319 319 319 318 316 315 315 315 316 316 316 316
322 322 322 322 321 321 319 320 319 318 318 318 317 316 316 316 316 317 317 317 317 317 317 317 318 319 318 318 317 317 318 319 319 320 319 318 317 316 315 315 317 316 316
321 321 321 322 320 320 320 320 320 320 319 319 319 318 317 317 316 317 318 318 318 318 317 317 317 318 318 318 318 319 320 320 320 320 320 319 318 318 318 317 317 316 317
320 320 321 321 320 320 320 320 320 319 319 319 319 318 318 318 318 319 319 319 319 318 317 317 317 316 316 317 319 318 317 317 319 319 320 320 320 319 314 314 314 314 315
320 321 321 321 322 322 321 321 321 321 320 320 321 320 320 318 318 317 316 316 317 319 319 318 317 317 317 318 319 319 318 319 320 320 318 318 318 314 307 301 297 306 309
320 321 320 320 320 315 318 320 319 319 321 321 320 320 320 320 319 318 317 317 318 318 318 318 318 318 318 317 314 313 313 312 311 313 311 311 309 304 295 293 292 292 293
316 315 314 315 310 307 312 317 317 317 317 316 314 313 314 314 315 315 316 316 314 314 315 315 312 310 310 311 309 307 306 305 304 304 303 301 297 291 288 287 286 286 288
301 300 299 300 300 300 304 311 314 314 311 308 305 304 306 307 308 311 313 311 306 303 302 305 305 301 297 298 301 302 300 298 299 296 293 293 290 287 285 284 284 284 284
291 290 291 291 291 293 298 302 305 305 302 296 294 294 295 297 298 301 304 305 302 293 293 292 291 292 292 292 292 292 292 291 292 291 285 287 287 286 284 283 283 283 283

GFSMA_925_thetae_108.txt.gz
Theta_e
336 336 336 335 335 334 332 331 330 328 327 326 326 325 326 328 328 327 325 325 324 325 326 325 324 324 320 320 320 320 319 318 318 318 316 316 316 316 316 315 315 314 314
337 336 335 334 334 333 331 331 330 329 326 326 326 325 327 329 327 326 324 324 324 325 324 324 325 324 323 320 319 319 318 318 318 318 316 316 315 316 315 314 313 312 312
337 335 335 334 334 333 332 331 329 329 327 327 327 325 327 328 327 327 324 324 325 324 323 323 324 324 323 320 319 318 318 317 317 317 316 315 315 315 314 313 310 310 310
336 335 334 333 333 331 331 330 329 330 329 328 326 324 328 327 327 326 325 323 324 323 322 323 323 322 321 319 318 317 317 317 316 316 316 316 315 314 312 313 310 309 310
334 335 334 333 332 332 331 331 330 329 328 328 326 326 327 326 326 324 325 324 323 323 322 323 323 321 320 319 318 319 318 318 317 317 316 316 316 314 313 311 310 308 308
335 335 334 333 331 331 330 330 329 328 328 327 327 328 327 325 325 325 324 324 324 323 322 321 322 321 319 318 318 318 319 317 317 317 317 316 316 315 314 311 311 312 309
333 334 332 331 331 330 329 328 327 327 328 327 328 327 324 324 322 324 325 324 324 322 322 322 320 321 320 318 318 318 318 319 319 318 317 317 316 314 314 313 312 311 311
334 333 332 331 329 328 326 325 325 326 326 327 326 324 322 322 322 322 322 323 322 321 322 322 321 320 320 319 318 317 318 318 319 318 317 316 315 314 313 312 313 312 312
332 331 331 330 328 325 324 324 325 325 325 326 325 323 323 324 322 322 320 320 321 320 320 321 322 321 320 319 318 317 317 316 318 318 317 316 315 314 313 312 311 312 312
331 331 330 329 325 324 322 323 323 325 325 324 323 322 322 322 322 323 323 322 322 322 320 320 320 321 321 321 319 318 316 315 316 318 318 317 316 316 315 313 309 308 308
329 330 329 328 325 323 322 322 323 324 324 323 323 322 321 321 321 321 322 322 322 322 322 321 320 319 319 319 320 319 318 317 315 316 318 319 319 317 316 316 316 315 315
329 329 329 327 325 324 322 322 322 323 323 323 322 321 321 319 319 319 321 322 321 321 321 321 320 321 320 319 319 318 318 318 318 317 314 316 318 319 319 318 318 318 318
329 329 328 328 326 324 322 322 322 323 323 323 322 322 321 320 320 322 321 322 321 322 321 320 320 320 319 319 319 318 318 318 318 318 317 314 313 316 316 317 318 319 319
328 328 329 327 325 325 324 323 323 323 323 323 322 322 322 321 322 323 322 322 320 320 321 321 320 321 319 318 320 320 319 318 318 318 317 316 314 312 311 312 314 315 315
327 326 327 329 326 325 324 323 322 322 323 323 323 322 321 322 323 323 323 322 320 319 319 320 320 320 320 319 318 319 319 318 318 317 316 316 316 315 313 313 313 313 313
326 325 324 325 327 325 324 324 323 322 323 323 323 322 321 321 322 322 321 319 318 317 316 317 318 319 320 320 320 319 319 318 317 318 318 318 317 317 316 316 316 316 316
325 324 324 325 326 325 324 323 323 322 321 322 321 322 322 322 321 321 321 321 320 318 316 316 316 317 316 317 319 320 319 319 320 319 319 318 316 315 316 316 316 317 317
323 323 323 323 324 324 324 323 322 321 321 320 320 320 321 321 321 320 319 319 318 318 317 317 317 316 316 316 315 315 317 318 319 319 319 319 318 317 317 316 316 316 316
322 323 323 323 322 322 322 322 322 321 321 320 320 319 319 319 319 319 318 318 318 318 317 317 316 316 315 315 316 318 318 317 316 317 318 318 320 319 318 318 318 317 316
322 322 322 322 322 321 320 320 320 321 320 319 319 319 318 318 317 317 317 317 317 317 317 316 316 317 317 317 318 319 318 318 319 319 319 319 319 319 317 317 316 316 316
322 322 322 322 320 320 321 321 320 319 319 319 319 319 318 317 317 317 317 318 318 318 318 318 317 317 316 316 317 317 317 318 318 318 318 318 317 314 312 310 306 310 313
321 321 321 321 320 319 320 320 320 319 319 319 319 319 318 317 317 317 317 319 319 319 319 318 317 317 317 317 317 317 316 317 316 315 313 312 311 309 304 301 298 297 298
321 321 321 320 314 313 318 320 321 320 320 320 320 319 319 317 318 318 318 318 317 316 316 316 315 317 316 316 316 315 312 310 310 310 308 307 303 300 293 290 288 290 291
311 308 306 308 310 310 316 318 319 319 317 316 314 313 313 314 316 316 315 315 314 313 312 311 312 309 308 309 308 305 306 304 302 300 300 300 293 289 289 288 287 286 287
298 295 294 295 295 299 304 311 314 313 310 304 302 304 304 306 306 309 309 308 304 298 295 298 298 295 295 297 299 302 299 298 298 291 293 293 290 287 286 285 285 284 284
291 292 291 291 290 293 298 303 306 306 298 293 292 292 294 297 299 301 303 303 295 290 292 291 291 292 292 292 294 294 293 293 293 288 285 288 287 287 285 283 283 283 283

GFSMA_925_thetae_111.txt.gz
Theta_e
338 337 337 336 334 333 331 330 331 330 329 327 327 326 326 325 326 328 327 327 327 327 328 326 325 324 321 320 321 320 319 318 318 318 317 316 316 316 316 316 315 315 315
337 335 336 336 335 334 332 331 331 329 327 326 326 326 326 325 327 328 327 327 326 326 326 326 325 324 322 320 320 319 319 318 318 318 318 316 316 315 315 314 312 312 313
337 336 336 335 334 334 333 332 331 330 328 327 326 326 326 325 328 327 326 326 326 324 323 324 324 323 324 320 320 319 319 317 318 318 318 315 315 316 315 313 311 310 311
337 336 335 335 334 333 333 332 331 330 329 327 326 326 326 325 328 326 325 325 325 324 322 322 323 323 322 322 320 320 318 317 317 317 317 315 315 315 314 312 309 308 309
336 336 334 334 333 333 332 332 331 329 329 328 327 327 325 325 327 326 324 324 325 323 322 322 323 322 321 321 321 320 319 317 317 318 317 316 316 315 313 312 310 309 309
335 335 334 334 333 332 331 331 330 330 329 328 327 327 324 325 327 326 324 324 324 323 322 323 323 321 320 319 319 320 319 318 318 317 317 316 316 315 314 312 310 309 308
334 334 334 333 332 332 332 329 330 330 329 327 327 327 326 327 327 325 325 323 323 322 321 322 322 321 320 319 318 319 319 319 318 318 317 316 316 315 314 313 311 311 310
332 334 334 333 332 331 330 328 328 327 327 326 327 327 323 323 325 324 325 324 323 323 321 321 320 321 320 319 319 318 318 320 319 317 317 317 316 315 314 314 313 313 311
332 332 333 332 330 329 329 328 326 325 325 326 326 323 323 323 322 323 324 324 324 323 322 321 321 319 319 319 318 318 318 318 318 318 317 317 315 315 314 314 312 310 312
332 334 333 332 330 329 327 324 324 323 325 326 325 323 322 322 322 322 322 322 323 322 321 321 321 320 319 319 319 318 317 317 316 318 318 317 316 315 315 314 312 311 312
332 332 331 331 329 328 325 323 322 323 325 325 324 322 322 322 321 321 322 322 322 322 320 321 320 321 321 320 319 320 318 317 316 316 318 318 318 317 316 316 315 314 312
330 332 331 330 328 326 324 322 321 323 324 325 323 322 321 321 320 320 320 321 321 322 322 321 320 319 320 321 320 320 320 318 318 316 314 316 318 318 318 317 317 317 316
330 331 330 328 327 325 324 322 322 323 323 324 322 321 321 321 320 318 317 320 320 321 321 321 321 320 320 319 319 320 319 319 318 318 318 316 315 316 318 318 318 319 318
330 329 329 328 327 326 323 321 321 323 323 323 322 321 321 320 320 320 318 320 319 319 321 321 320 320 320 320 320 319 319 318 317 317 318 318 317 316 314 315 317 317 318
329 328 329 329 327 325 324 322 321 322 323 323 323 322 321 321 320 320 319 320 320 318 320 321 320 320 319 320 319 319 320 319 319 318 318 318 317 317 316 316 314 313 313
328 328 328 328 327 326 324 322 323 322 323 323 323 322 322 322 321 321 322 322 322 321 320 321 320 319 319 320 320 319 318 318 319 319 319 318 317 317 316 316 316 316 315
327 326 327 328 328 325 325 323 323 322 322 322 323 323 322 321 321 322 322 321 319 318 316 316 319 319 317 318 320 319 319 319 319 319 318 318 318 318 319 318 317 317 317
327 326 325 325 326 326 325 324 323 322 322 322 322 322 322 322 321 321 321 321 321 321 319 318 317 316 317 318 316 317 319 319 319 318 318 317 317 317 317 317 318 318 317
325 324 324 324 323 325 325 324 323 322 321 321 321 321 321 321 321 321 320 320 320 320 319 319 318 317 316 316 316 316 315 315 316 316 317 318 317 319 318 318 317 318 318
323 323 322 322 321 323 323 323 323 322 322 321 321 320 320 320 320 320 320 319 319 318 318 317 317 317 316 316 316 316 316 317 318 318 317 318 318 318 317 317 318 315 314
322 322 322 322 322 322 322 322 321 321 321 321 320 320 320 319 319 319 318 318 318 318 317 316 316 316 316 316 317 317 318 318 317 317 318 316 313 312 310 308 307 307 305
322 322 322 322 321 320 320 320 320 320 320 319 318 319 318 317 317 316 316 317 317 317 317 317 317 316 316 316 317 316 316 316 314 314 313 308 306 305 303 301 298 296 296
322 321 321 320 317 316 319 320 320 320 319 319 319 319 319 318 318 317 317 316 317 317 317 317 317 316 315 315 315 315 315 315 313 309 306 303 298 296 292 290 290 290 291
307 311 308 308 308 308 314 318 320 318 317 314 314 314 314 315 316 315 316 314 311 312 313 313 312 312 310 310 310 308 307 305 303 301 301 296 291 288 287 286 286 286 286
291 291 293 297 299 302 305 310 317 314 310 306 304 305 306 307 307 309 311 309 302 298 296 300 300 297 298 300 302 303 302 300 295 291 294 293 288 285 285 284 284 284 284
290 289 289 289 292 294 299 305 307 303 297 294 295 295 297 301 302 305 307 305 295 289 291 292 292 293 293 293 295 296 295 296 293 287 287 288 287 287 284 283 283 283 282

GFSMA_925_thetae_114.txt.gz
Theta_e
338 338 337 336 334 332 331 330 328 330 329 330 327 327 326 326 326 329 329 328 327 329 329 328 324 322 322 321 321 321 320 319 319 319 317 318 317 317 317 316 316 315 316
336 337 336 336 335 333 332 331 330 329 330 330 327 327 326 325 325 325 328 328 327 327 328 327 326 325 324 322 321 320 319 318 319 319 317 317 317 317 316 316 314 315 315
336 336 337 337 337 334 333 332 330 330 330 329 326 326 325 326 325 325 326 328 327 326 328 327 326 325 324 323 321 320 319 318 318 319 316 316 316 316 315 314 313 314 314
338 337 336 335 336 335 334 333 331 331 330 328 326 326 325 326 325 327 327 328 326 326 326 326 324 322 323 321 320 319 319 318 318 318 316 316 316 315 315 313 312 312 313
335 337 336 335 335 334 334 333 331 330 328 327 327 326 325 326 326 327 327 327 326 326 325 325 323 322 321 321 320 320 321 318 318 318 317 316 315 315 315 314 312 311 311
335 336 336 335 334 334 333 333 331 331 329 328 327 327 325 326 326 326 327 326 326 325 324 323 323 322 321 321 320 322 321 320 318 319 317 317 315 315 314 314 312 310 310
333 334 336 334 334 332 332 332 332 330 329 328 328 327 326 325 325 326 326 326 326 325 323 322 323 322 322 320 319 320 321 320 318 318 317 316 315 316 314 313 312 311 310
334 333 335 333 334 333 331 332 331 329 329 328 327 326 324 325 325 326 325 325 325 324 323 322 322 322 321 321 319 319 320 319 318 319 317 316 315 316 315 314 313 310 311
332 333 334 334 333 333 331 332 330 329 328 327 326 325 323 324 324 325 324 324 324 324 322 321 322 322 321 320 319 318 318 318 319 319 317 317 316 316 314 314 313 313 313
331 333 333 334 333 332 330 330 329 328 327 325 326 324 323 322 324 323 323 323 323 323 322 321 321 320 320 320 319 318 318 318 317 318 318 317 316 316 315 315 314 313 311
332 332 332 333 333 332 329 328 328 326 325 324 324 324 324 323 323 323 324 321 322 322 322 321 321 320 319 319 319 319 318 317 317 317 318 318 317 317 316 315 315 314 311
332 331 331 333 333 331 329 328 326 324 323 323 324 324 322 322 321 322 323 321 322 321 322 322 321 321 320 320 319 319 318 318 317 317 316 316 318 318 317 317 316 316 315
331 332 332 332 332 330 328 326 323 321 322 322 324 323 322 322 321 320 321 320 321 321 321 321 321 321 320 320 320 320 319 319 319 318 317 315 315 317 317 318 318 318 318
331 330 331 331 330 329 325 325 320 320 322 322 324 323 321 321 320 320 320 320 319 319 320 321 321 321 320 320 319 320 320 320 320 319 318 317 317 315 315 315 316 316 317
331 330 330 330 330 327 325 324 321 319 320 323 323 323 321 321 320 320 320 320 319 319 319 320 321 321 321 321 320 320 319 319 319 318 318 317 317 317 317 317 316 315 315
330 330 329 329 329 327 325 324 321 320 322 322 323 321 321 320 321 321 320 319 319 319 319 319 320 320 321 321 320 320 320 319 319 319 319 318 318 318 317 317 317 317 316
330 329 329 328 326 326 324 323 322 320 321 322 322 322 321 321 320 320 320 319 318 319 319 320 320 320 320 320 320 319 320 320 319 319 319 319 318 318 318 318 317 317 317
330 330 328 327 326 327 325 323 322 321 322 322 322 322 322 321 321 321 320 320 320 320 319 318 318 320 320 318 317 318 319 320 319 319 319 318 318 319 318 318 318 316 317
328 328 327 327 326 326 324 323 323 322 322 322 322 322 322 322 321 321 321 321 321 321 318 318 318 318 318 319 318 318 317 318 318 319 318 317 318 318 318 318 318 318 317
327 327 325 326 326 324 323 324 323 322 322 322 321 322 322 322 321 321 321 320 320 320 320 320 320 317 317 317 317 316 316 316 316 316 317 317 317 317 317 317 317 316 315
326 325 324 323 323 322 323 324 323 322 322 321 320 321 321 320 320 320 320 319 319 319 318 318 317 317 316 315 315 316 316 316 316 317 315 312 311 310 307 307 307 306 306
323 323 322 322 322 321 322 322 322 322 322 321 321 320 320 320 320 320 319 319 318 318 317 317 316 316 316 316 316 316 316 316 313 312 312 304 302 302 299 298 295 296 296
319 320 320 320 318 318 320 320 320 320 320 320 320 319 318 318 318 318 317 317 317 317 317 317 317 316 316 316 316 316 315 315 314 309 308 295 295 294 291 290 291 291 291
295 296 301 304 304 306 313 319 320 319 319 317 317 317 318 318 317 317 316 315 313 313 314 314 315 315 314 315 314 312 312 311 305 303 303 291 289 287 288 287 287 288 288
291 290 290 292 295 298 305 312 318 316 311 307 306 307 309 309 311 313 314 312 305 303 301 306 307 307 308 311 310 307 306 304 295 294 295 292 287 285 285 285 285 285 284
291 292 290 291 291 292 294 300 301 300 300 297 295 296 299 302 303 304 307 306 298 293 294 294 294 295 296 297 300 298 299 299 292 288 290 289 285 285 283 283 283 282 280

GFSMA_925_thetae_117.txt.gz
Theta_e
336 337 337 336 336 336 335 334 332 331 330 329 329 327 327 328 327 328 329 330 329 329 330 330 328 326 321 321 321 320 320 319 318 318 318 317 317 317 317 317 317 316 316
335 336 337 337 335 334 333 332 331 331 329 329 329 328 327 326 326 326 328 329 329 328 329 329 328 326 324 321 321 320 320 319 319 319 318 317 317 317 316 316 315 315 315
335 335 336 337 336 334 333 331 330 329 329 330 329 328 327 326 325 325 325 328 329 328 328 328 327 326 325 324 321 320 319 319 318 318 317 317 317 316 316 315 314 315 315
333 335 336 336 335 335 333 332 331 330 330 330 329 328 326 326 325 326 325 325 328 327 327 327 326 325 324 323 321 320 319 318 318 318 317 316 316 316 315 314 313 314 314
336 336 336 335 335 336 335 333 332 330 329 329 329 327 326 325 325 326 326 326 327 327 326 326 326 325 323 322 322 321 319 318 317 318 316 316 316 315 315 313 312 312 312
337 338 337 336 335 335 335 334 332 329 328 328 328 326 325 325 325 326 326 326 327 327 327 326 326 324 321 321 321 320 322 320 318 317 318 316 315 315 315 314 313 310 309
339 337 336 336 335 334 334 333 332 330 329 328 326 327 326 326 326 326 326 326 327 327 326 325 325 323 321 320 321 320 323 322 320 319 318 317 316 315 315 314 313 311 308
338 335 335 335 335 334 332 332 332 329 328 328 327 325 325 325 325 326 326 325 325 326 326 325 323 322 321 320 320 320 321 322 321 319 318 317 315 315 315 314 313 313 310
337 335 333 334 335 334 331 330 330 330 329 328 328 326 323 325 324 325 325 325 326 326 326 324 323 322 322 320 320 319 319 320 319 318 317 317 316 315 315 315 314 314 312
334 334 333 333 334 333 332 330 330 329 329 328 327 327 324 322 325 324 324 324 325 324 325 324 322 322 322 321 320 319 318 318 318 317 318 317 317 316 315 315 314 314 315
334 334 333 332 334 333 332 331 331 328 329 327 326 326 325 324 322 322 324 322 323 323 324 323 322 321 321 321 320 319 318 318 318 317 317 318 317 316 316 316 315 315 314
334 333 333 331 333 333 332 331 330 327 328 327 325 324 324 323 323 322 323 323 322 321 322 322 322 321 320 319 320 319 319 318 318 317 317 317 319 318 317 316 316 315 315
332 332 331 331 332 332 332 332 330 327 327 325 325 324 323 323 323 323 323 323 322 320 321 322 322 321 320 320 319 319 319 319 318 318 317 317 316 317 318 318 318 317 317
332 331 330 330 331 331 331 331 329 327 324 323 323 321 322 323 322 322 322 321 321 319 320 321 322 321 321 320 320 320 319 319 318 318 318 318 317 316 316 318 318 317 317
331 332 330 329 329 331 331 330 327 324 323 321 321 322 323 323 322 320 321 321 321 321 321 320 320 315 317 320 320 320 320 319 320 319 319 320 319 317 316 316 315 315 316
331 331 330 329 327 329 329 329 324 324 323 320 321 322 322 322 321 320 321 321 321 319 320 320 320 321 321 321 320 320 320 320 319 319 319 319 319 318 317 317 317 316 316
331 330 330 328 326 327 328 327 323 324 322 320 321 322 322 322 320 320 320 320 319 319 318 318 318 319 320 320 321 321 321 320 320 319 318 318 319 318 318 317 317 317 317
330 330 329 327 326 325 326 325 323 323 322 320 320 321 321 321 320 320 320 320 319 319 318 317 319 319 319 319 320 320 320 320 319 319 319 319 318 318 318 317 317 317 317
328 328 327 327 326 325 325 325 324 323 322 321 321 321 321 321 321 320 320 320 319 319 318 318 319 318 319 319 319 319 320 319 318 319 319 318 317 318 318 317 318 318 317
327 327 326 326 326 325 324 324 323 323 322 322 322 322 322 321 321 321 320 320 320 319 318 318 318 317 317 319 319 318 317 317 317 317 318 318 318 318 317 317 317 317 317
327 327 325 325 325 325 325 324 324 323 322 322 322 322 322 322 322 321 321 321 320 320 320 320 319 317 318 317 317 317 317 317 315 315 313 311 312 309 307 309 310 309 307
319 324 324 324 324 324 323 323 322 323 322 322 321 321 321 321 321 321 320 320 320 320 319 318 318 317 316 317 317 316 316 315 311 309 310 302 302 302 301 300 298 297 297
296 303 307 315 313 314 320 322 323 323 322 321 321 320 320 320 320 319 319 319 318 318 318 318 317 317 317 317 317 316 315 315 313 308 307 293 294 295 293 291 292 292 291
293 292 293 295 299 303 312 319 321 321 321 320 319 319 319 318 318 318 317 316 315 314 314 315 316 316 316 316 315 315 315 314 308 305 303 290 289 288 288 288 288 289 289
292 292 291 295 292 295 299 308 315 313 312 309 310 310 313 315 316 317 316 313 306 306 304 308 310 311 313 313 313 309 310 308 296 296 297 292 287 286 286 286 286 285 284
291 292 291 291 291 291 293 297 301 298 294 292 294 298 300 304 308 313 313 310 302 295 296 296 298 299 300 301 303 302 302 303 294 291 293 290 285 286 284 284 284 283 282

GFSMA_925_thetae_120.txt.gz
Theta_e
338 338 337 337 337 337 336 334 333 332 331 330 329 329 328 328 328 328 328 328 329 329 330 332 329 326 323 323 322 322 320 319 319 319 318 318 318 318 317 317 317 316 316
339 337 337 337 336 337 336 335 334 332 331 330 329 328 327 327 327 327 327 328 328 329 329 330 329 328 325 321 321 321 320 319 319 319 318 318 317 317 317 317 316 316 315
336 335 336 337 336 336 335 335 334 332 332 331 329 328 327 327 326 326 326 327 328 328 328 327 328 327 326 324 321 321 320 319 318 318 318 317 317 317 316 316 315 314 314
333 334 335 336 336 336 334 334 333 332 331 330 329 329 328 327 326 325 325 325 325 327 328 328 328 327 325 324 322 321 320 319 318 318 317 317 316 316 316 315 314 314 314
333 333 334 334 336 336 334 333 332 330 329 329 329 329 328 327 326 325 325 325 325 325 328 327 327 327 325 323 321 321 320 319 318 318 317 317 316 316 315 315 313 313 313
333 333 333 334 335 335 334 333 332 330 329 328 328 327 327 327 325 325 325 325 326 326 325 327 327 326 325 323 321 321 322 320 318 318 317 316 316 316 315 314 312 312 312
332 333 334 335 335 335 333 334 333 331 329 330 327 326 326 327 326 326 326 325 326 325 326 326 326 326 325 323 320 321 323 321 321 319 318 316 316 315 315 315 314 312 311
336 335 336 336 336 335 334 334 332 330 329 329 327 326 326 325 326 327 326 326 325 325 325 326 326 326 324 322 321 321 322 323 321 319 317 317 316 315 315 315 314 313 312
338 337 337 337 335 334 333 333 330 330 328 328 328 327 324 326 324 325 324 325 325 326 325 325 326 325 323 320 321 321 321 321 321 319 318 317 316 315 314 315 314 314 313
339 339 338 337 334 334 333 332 329 328 329 326 326 328 325 323 324 324 324 324 325 325 324 325 326 324 322 320 320 320 320 319 319 320 318 317 317 316 315 314 315 315 314
336 339 338 337 334 333 333 332 330 328 327 328 327 326 326 323 323 322 324 324 324 324 324 325 325 324 322 320 320 320 319 318 318 319 318 317 317 316 316 315 315 315 315
334 336 336 335 334 333 331 333 330 329 328 328 327 327 326 325 323 322 322 323 323 323 323 324 324 324 322 320 320 320 320 319 318 318 318 317 318 317 316 316 316 316 316
333 333 332 333 333 332 331 331 329 328 327 327 326 326 327 325 324 323 323 323 322 320 321 322 323 324 322 321 320 321 320 319 318 318 318 317 317 317 318 317 317 316 316
333 330 330 332 331 331 330 330 330 330 329 327 326 326 325 324 324 322 323 322 321 319 320 320 322 323 322 321 320 319 319 319 319 319 318 317 317 317 317 318 318 318 318
329 325 327 330 331 330 329 329 329 328 328 327 326 324 323 323 322 322 322 322 321 321 322 320 320 321 321 321 320 320 319 319 319 319 318 318 318 318 317 317 316 316 318
328 326 329 330 329 330 327 328 329 327 327 326 324 323 322 321 321 321 322 321 322 321 322 320 321 320 320 317 315 319 320 320 319 319 319 319 319 318 319 319 318 316 316
332 331 330 330 328 326 327 327 327 326 327 324 322 322 321 320 321 321 321 320 321 321 319 320 321 320 318 318 315 314 317 320 320 320 319 319 319 319 319 319 318 317 317
330 329 328 328 326 327 326 326 325 325 325 322 322 321 321 320 321 321 321 320 319 320 320 318 319 319 319 319 319 320 320 320 320 320 320 319 319 318 318 318 318 317 317
327 327 328 327 326 326 325 324 324 324 324 322 322 321 321 321 320 320 320 319 319 320 319 318 318 318 318 318 318 319 319 319 320 320 320 319 319 319 317 318 318 318 317
325 326 325 326 325 325 325 323 323 324 323 323 322 321 320 321 321 320 320 320 319 319 318 318 318 318 318 318 318 318 318 318 319 319 318 318 319 319 318 317 318 317 317
312 319 323 325 325 325 324 323 323 322 322 321 322 322 321 321 321 321 320 320 320 319 319 318 318 318 317 318 318 318 318 318 317 316 314 313 314 312 313 314 314 313 312
302 304 311 310 317 319 323 323 324 322 322 322 322 322 322 322 322 321 321 321 321 320 319 319 319 318 318 318 318 318 318 316 308 310 312 304 302 304 303 303 303 303 303
293 297 298 297 297 299 306 321 322 323 322 322 322 322 321 322 321 321 321 320 320 320 320 320 319 318 318 318 318 317 316 315 312 308 308 293 295 296 295 294 293 294 295
290 290 291 293 294 293 300 307 316 321 321 320 319 319 320 321 320 320 319 317 316 316 317 317 317 317 317 317 317 317 316 314 308 305 304 290 290 289 290 289 288 290 290
288 288 287 289 291 292 294 298 305 303 307 305 306 308 312 314 317 317 317 314 309 309 309 314 314 314 314 314 315 314 313 308 296 298 299 295 288 286 286 286 285 285 286
287 287 286 286 285 288 291 292 296 296 291 293 294 296 299 302 302 311 312 313 304 301 302 301 301 302 304 306 307 307 306 306 295 292 294 292 286 287 285 284 284 283 282